<?xml version="1.0"?>
<gpx
 version="1.1"
 creator="Satmap Active 20"
 xmlns:xsi="http://www.w3.org/2001/XMLSchema-instance"
 xmlns="http://www.topografix.com/GPX/1/1"
 xmlns:satmap="http://www.satmap.com/updates/xmlschemas/GpxExtensions/v2/GpxExtensions_v2.xsd"
 xsi:schemaLocation="http://www.topografix.com/GPX/1/1 http://www.topografix.com/GPX/1/1/gpx.xsd">
<metadata>
<time>2020-08-11T12:54:39Z</time>
<extensions>
<satmap:platform>43</satmap:platform>
<satmap:software version="3.12.831">SM15.exe</satmap:software>
<satmap:username>Jim Grant</satmap:username>
<satmap:network_ids>
<satmap:network_id type="wifi">00-23-A7-EC-D5-78</satmap:network_id>
<satmap:network_id type="bluetooth">80-BB-EB-D7-5B-7C</satmap:network_id>
</satmap:network_ids>
<satmap:snap_type>simple</satmap:snap_type>
</extensions>
</metadata>
<trk>
<name>2020-08-11_1254</name>
<desc>Track 1</desc>
<number>1</number>
<trkseg>
<trkpt lat="54.665058" lon="-3.187950"><ele>130</ele><time>2020-08-11T12:54:39Z</time><name>PT1</name></trkpt>
<trkpt lat="54.665065" lon="-3.187937"><ele>130</ele><time>2020-08-11T12:55:08Z</time><name>PT2</name></trkpt>
<trkpt lat="54.665075" lon="-3.187928"><ele>130</ele><time>2020-08-11T12:55:09Z</time><name>PT3</name></trkpt>
<trkpt lat="54.665085" lon="-3.187915"><ele>130</ele><time>2020-08-11T12:55:09Z</time><name>PT4</name></trkpt>
<trkpt lat="54.665093" lon="-3.187908"><ele>130</ele><time>2020-08-11T12:55:11Z</time><name>PT5</name></trkpt>
<trkpt lat="54.665102" lon="-3.187900"><ele>130</ele><time>2020-08-11T12:55:12Z</time><name>PT6</name></trkpt>
<trkpt lat="54.665111" lon="-3.187902"><ele>130</ele><time>2020-08-11T12:55:12Z</time><name>PT7</name></trkpt>
<trkpt lat="54.665118" lon="-3.187905"><ele>130</ele><time>2020-08-11T12:55:14Z</time><name>PT8</name></trkpt>
<trkpt lat="54.665129" lon="-3.187909"><ele>130</ele><time>2020-08-11T12:55:15Z</time><name>PT9</name></trkpt>
<trkpt lat="54.665138" lon="-3.187910"><ele>131</ele><time>2020-08-11T12:55:15Z</time><name>PT10</name></trkpt>
<trkpt lat="54.665150" lon="-3.187903"><ele>131</ele><time>2020-08-11T12:55:17Z</time><name>PT11</name></trkpt>
<trkpt lat="54.665160" lon="-3.187903"><ele>132</ele><time>2020-08-11T12:55:18Z</time><name>PT12</name></trkpt>
<trkpt lat="54.665167" lon="-3.187905"><ele>132</ele><time>2020-08-11T12:55:18Z</time><name>PT13</name></trkpt>
<trkpt lat="54.665174" lon="-3.187906"><ele>133</ele><time>2020-08-11T12:55:19Z</time><name>PT14</name></trkpt>
<trkpt lat="54.665185" lon="-3.187904"><ele>133</ele><time>2020-08-11T12:55:21Z</time><name>PT15</name></trkpt>
<trkpt lat="54.665197" lon="-3.187901"><ele>133</ele><time>2020-08-11T12:55:21Z</time><name>PT16</name></trkpt>
<trkpt lat="54.665206" lon="-3.187897"><ele>134</ele><time>2020-08-11T12:55:22Z</time><name>PT17</name></trkpt>
<trkpt lat="54.665219" lon="-3.187892"><ele>134</ele><time>2020-08-11T12:55:24Z</time><name>PT18</name></trkpt>
<trkpt lat="54.665228" lon="-3.187891"><ele>135</ele><time>2020-08-11T12:55:24Z</time><name>PT19</name></trkpt>
<trkpt lat="54.665242" lon="-3.187892"><ele>135</ele><time>2020-08-11T12:55:25Z</time><name>PT20</name></trkpt>
<trkpt lat="54.665251" lon="-3.187897"><ele>136</ele><time>2020-08-11T12:55:27Z</time><name>PT21</name></trkpt>
<trkpt lat="54.665262" lon="-3.187893"><ele>136</ele><time>2020-08-11T12:55:27Z</time><name>PT22</name></trkpt>
<trkpt lat="54.665272" lon="-3.187891"><ele>137</ele><time>2020-08-11T12:55:28Z</time><name>PT23</name></trkpt>
<trkpt lat="54.665282" lon="-3.187886"><ele>137</ele><time>2020-08-11T12:55:30Z</time><name>PT24</name></trkpt>
<trkpt lat="54.665289" lon="-3.187872"><ele>137</ele><time>2020-08-11T12:55:31Z</time><name>PT25</name></trkpt>
<trkpt lat="54.665296" lon="-3.187869"><ele>137</ele><time>2020-08-11T12:55:32Z</time><name>PT26</name></trkpt>
<trkpt lat="54.665305" lon="-3.187865"><ele>137</ele><time>2020-08-11T12:55:33Z</time><name>PT27</name></trkpt>
<trkpt lat="54.665323" lon="-3.187850"><ele>138</ele><time>2020-08-11T12:55:35Z</time><name>PT28</name></trkpt>
<trkpt lat="54.665341" lon="-3.187846"><ele>136</ele><time>2020-08-11T12:55:36Z</time><name>PT29</name></trkpt>
<trkpt lat="54.665350" lon="-3.187841"><ele>135</ele><time>2020-08-11T12:55:36Z</time><name>PT30</name></trkpt>
<trkpt lat="54.665363" lon="-3.187832"><ele>135</ele><time>2020-08-11T12:55:38Z</time><name>PT31</name></trkpt>
<trkpt lat="54.665371" lon="-3.187828"><ele>134</ele><time>2020-08-11T12:55:39Z</time><name>PT32</name></trkpt>
<trkpt lat="54.665384" lon="-3.187827"><ele>134</ele><time>2020-08-11T12:55:39Z</time><name>PT33</name></trkpt>
<trkpt lat="54.665392" lon="-3.187826"><ele>134</ele><time>2020-08-11T12:55:41Z</time><name>PT34</name></trkpt>
<trkpt lat="54.665400" lon="-3.187836"><ele>136</ele><time>2020-08-11T12:55:42Z</time><name>PT35</name></trkpt>
<trkpt lat="54.665403" lon="-3.187838"><ele>136</ele><time>2020-08-11T12:55:42Z</time><name>PT36</name></trkpt>
<trkpt lat="54.665406" lon="-3.187839"><ele>137</ele><time>2020-08-11T12:55:43Z</time><name>PT37</name></trkpt>
<trkpt lat="54.665408" lon="-3.187838"><ele>137</ele><time>2020-08-11T12:55:45Z</time><name>PT38</name></trkpt>
<trkpt lat="54.665409" lon="-3.187840"><ele>137</ele><time>2020-08-11T12:55:45Z</time><name>PT39</name></trkpt>
<trkpt lat="54.665416" lon="-3.187836"><ele>136</ele><time>2020-08-11T12:55:48Z</time><name>PT40</name></trkpt>
<trkpt lat="54.665438" lon="-3.187832"><ele>136</ele><time>2020-08-11T12:55:50Z</time><name>PT41</name></trkpt>
<trkpt lat="54.665454" lon="-3.187825"><ele>136</ele><time>2020-08-11T12:55:51Z</time><name>PT42</name></trkpt>
<trkpt lat="54.665466" lon="-3.187819"><ele>137</ele><time>2020-08-11T12:55:52Z</time><name>PT43</name></trkpt>
<trkpt lat="54.665477" lon="-3.187811"><ele>137</ele><time>2020-08-11T12:55:53Z</time><name>PT44</name></trkpt>
<trkpt lat="54.665488" lon="-3.187807"><ele>137</ele><time>2020-08-11T12:55:54Z</time><name>PT45</name></trkpt>
<trkpt lat="54.665504" lon="-3.187797"><ele>138</ele><time>2020-08-11T12:55:55Z</time><name>PT46</name></trkpt>
<trkpt lat="54.665516" lon="-3.187793"><ele>139</ele><time>2020-08-11T12:55:56Z</time><name>PT47</name></trkpt>
<trkpt lat="54.665529" lon="-3.187786"><ele>139</ele><time>2020-08-11T12:55:57Z</time><name>PT48</name></trkpt>
<trkpt lat="54.665540" lon="-3.187776"><ele>139</ele><time>2020-08-11T12:55:57Z</time><name>PT49</name></trkpt>
<trkpt lat="54.665550" lon="-3.187775"><ele>139</ele><time>2020-08-11T12:55:59Z</time><name>PT50</name></trkpt>
<trkpt lat="54.665563" lon="-3.187775"><ele>140</ele><time>2020-08-11T12:56:00Z</time><name>PT51</name></trkpt>
<trkpt lat="54.665579" lon="-3.187771"><ele>140</ele><time>2020-08-11T12:56:00Z</time><name>PT52</name></trkpt>
<trkpt lat="54.665593" lon="-3.187763"><ele>139</ele><time>2020-08-11T12:56:01Z</time><name>PT53</name></trkpt>
<trkpt lat="54.665603" lon="-3.187761"><ele>139</ele><time>2020-08-11T12:56:03Z</time><name>PT54</name></trkpt>
<trkpt lat="54.665612" lon="-3.187761"><ele>138</ele><time>2020-08-11T12:56:03Z</time><name>PT55</name></trkpt>
<trkpt lat="54.665626" lon="-3.187751"><ele>138</ele><time>2020-08-11T12:56:05Z</time><name>PT56</name></trkpt>
<trkpt lat="54.665640" lon="-3.187737"><ele>137</ele><time>2020-08-11T12:56:06Z</time><name>PT57</name></trkpt>
<trkpt lat="54.665650" lon="-3.187719"><ele>137</ele><time>2020-08-11T12:56:06Z</time><name>PT58</name></trkpt>
<trkpt lat="54.665656" lon="-3.187712"><ele>137</ele><time>2020-08-11T12:56:07Z</time><name>PT59</name></trkpt>
<trkpt lat="54.665660" lon="-3.187708"><ele>138</ele><time>2020-08-11T12:56:09Z</time><name>PT60</name></trkpt>
<trkpt lat="54.665669" lon="-3.187697"><ele>138</ele><time>2020-08-11T12:56:09Z</time><name>PT61</name></trkpt>
<trkpt lat="54.665681" lon="-3.187699"><ele>137</ele><time>2020-08-11T12:56:10Z</time><name>PT62</name></trkpt>
<trkpt lat="54.665693" lon="-3.187697"><ele>138</ele><time>2020-08-11T12:56:12Z</time><name>PT63</name></trkpt>
<trkpt lat="54.665707" lon="-3.187690"><ele>138</ele><time>2020-08-11T12:56:12Z</time><name>PT64</name></trkpt>
<trkpt lat="54.665715" lon="-3.187701"><ele>138</ele><time>2020-08-11T12:56:13Z</time><name>PT65</name></trkpt>
<trkpt lat="54.665731" lon="-3.187680"><ele>137</ele><time>2020-08-11T12:56:15Z</time><name>PT66</name></trkpt>
<trkpt lat="54.665747" lon="-3.187678"><ele>138</ele><time>2020-08-11T12:56:15Z</time><name>PT67</name></trkpt>
<trkpt lat="54.665758" lon="-3.187677"><ele>139</ele><time>2020-08-11T12:56:16Z</time><name>PT68</name></trkpt>
<trkpt lat="54.665768" lon="-3.187664"><ele>139</ele><time>2020-08-11T12:56:18Z</time><name>PT69</name></trkpt>
<trkpt lat="54.665771" lon="-3.187661"><ele>139</ele><time>2020-08-11T12:56:18Z</time><name>PT70</name></trkpt>
<trkpt lat="54.665780" lon="-3.187655"><ele>140</ele><time>2020-08-11T12:56:19Z</time><name>PT71</name></trkpt>
<trkpt lat="54.665791" lon="-3.187646"><ele>140</ele><time>2020-08-11T12:56:21Z</time><name>PT72</name></trkpt>
<trkpt lat="54.665803" lon="-3.187642"><ele>140</ele><time>2020-08-11T12:56:21Z</time><name>PT73</name></trkpt>
<trkpt lat="54.665812" lon="-3.187635"><ele>140</ele><time>2020-08-11T12:56:22Z</time><name>PT74</name></trkpt>
<trkpt lat="54.665815" lon="-3.187631"><ele>140</ele><time>2020-08-11T12:56:24Z</time><name>PT75</name></trkpt>
<trkpt lat="54.665822" lon="-3.187625"><ele>140</ele><time>2020-08-11T12:56:24Z</time><name>PT76</name></trkpt>
<trkpt lat="54.665834" lon="-3.187622"><ele>141</ele><time>2020-08-11T12:56:25Z</time><name>PT77</name></trkpt>
<trkpt lat="54.665849" lon="-3.187620"><ele>141</ele><time>2020-08-11T12:56:27Z</time><name>PT78</name></trkpt>
<trkpt lat="54.665859" lon="-3.187621"><ele>142</ele><time>2020-08-11T12:56:27Z</time><name>PT79</name></trkpt>
<trkpt lat="54.665869" lon="-3.187618"><ele>141</ele><time>2020-08-11T12:56:28Z</time><name>PT80</name></trkpt>
<trkpt lat="54.665871" lon="-3.187619"><ele>141</ele><time>2020-08-11T12:56:30Z</time><name>PT81</name></trkpt>
<trkpt lat="54.665878" lon="-3.187623"><ele>141</ele><time>2020-08-11T12:56:30Z</time><name>PT82</name></trkpt>
<trkpt lat="54.665888" lon="-3.187621"><ele>142</ele><time>2020-08-11T12:56:31Z</time><name>PT83</name></trkpt>
<trkpt lat="54.665897" lon="-3.187610"><ele>142</ele><time>2020-08-11T12:56:33Z</time><name>PT84</name></trkpt>
<trkpt lat="54.665906" lon="-3.187608"><ele>142</ele><time>2020-08-11T12:56:33Z</time><name>PT85</name></trkpt>
<trkpt lat="54.665913" lon="-3.187610"><ele>143</ele><time>2020-08-11T12:56:35Z</time><name>PT86</name></trkpt>
<trkpt lat="54.665915" lon="-3.187612"><ele>143</ele><time>2020-08-11T12:56:36Z</time><name>PT87</name></trkpt>
<trkpt lat="54.665920" lon="-3.187600"><ele>142</ele><time>2020-08-11T12:56:36Z</time><name>PT88</name></trkpt>
<trkpt lat="54.665927" lon="-3.187591"><ele>140</ele><time>2020-08-11T12:56:38Z</time><name>PT89</name></trkpt>
<trkpt lat="54.665931" lon="-3.187587"><ele>139</ele><time>2020-08-11T12:56:39Z</time><name>PT90</name></trkpt>
<trkpt lat="54.665935" lon="-3.187585"><ele>138</ele><time>2020-08-11T12:56:39Z</time><name>PT91</name></trkpt>
<trkpt lat="54.665940" lon="-3.187585"><ele>139</ele><time>2020-08-11T12:56:41Z</time><name>PT92</name></trkpt>
<trkpt lat="54.665952" lon="-3.187580"><ele>139</ele><time>2020-08-11T12:56:42Z</time><name>PT93</name></trkpt>
<trkpt lat="54.665966" lon="-3.187577"><ele>139</ele><time>2020-08-11T12:56:42Z</time><name>PT94</name></trkpt>
<trkpt lat="54.665977" lon="-3.187571"><ele>138</ele><time>2020-08-11T12:56:44Z</time><name>PT95</name></trkpt>
<trkpt lat="54.665981" lon="-3.187567"><ele>138</ele><time>2020-08-11T12:56:45Z</time><name>PT96</name></trkpt>
<trkpt lat="54.665990" lon="-3.187559"><ele>139</ele><time>2020-08-11T12:56:45Z</time><name>PT97</name></trkpt>
<trkpt lat="54.666003" lon="-3.187559"><ele>139</ele><time>2020-08-11T12:56:47Z</time><name>PT98</name></trkpt>
<trkpt lat="54.666021" lon="-3.187560"><ele>139</ele><time>2020-08-11T12:56:48Z</time><name>PT99</name></trkpt>
<trkpt lat="54.666024" lon="-3.187557"><ele>139</ele><time>2020-08-11T12:56:48Z</time><name>PT100</name></trkpt>
<trkpt lat="54.666027" lon="-3.187550"><ele>139</ele><time>2020-08-11T12:56:50Z</time><name>PT101</name></trkpt>
<trkpt lat="54.666026" lon="-3.187554"><ele>139</ele><time>2020-08-11T12:56:51Z</time><name>PT102</name></trkpt>
<trkpt lat="54.666034" lon="-3.187555"><ele>138</ele><time>2020-08-11T12:56:52Z</time><name>PT103</name></trkpt>
<trkpt lat="54.666043" lon="-3.187549"><ele>137</ele><time>2020-08-11T12:56:53Z</time><name>PT104</name></trkpt>
<trkpt lat="54.666052" lon="-3.187538"><ele>137</ele><time>2020-08-11T12:56:54Z</time><name>PT105</name></trkpt>
<trkpt lat="54.666061" lon="-3.187545"><ele>139</ele><time>2020-08-11T12:56:54Z</time><name>PT106</name></trkpt>
<trkpt lat="54.666073" lon="-3.187541"><ele>138</ele><time>2020-08-11T12:56:55Z</time><name>PT107</name></trkpt>
<trkpt lat="54.666083" lon="-3.187533"><ele>138</ele><time>2020-08-11T12:56:57Z</time><name>PT108</name></trkpt>
<trkpt lat="54.666097" lon="-3.187530"><ele>139</ele><time>2020-08-11T12:56:57Z</time><name>PT109</name></trkpt>
<trkpt lat="54.666109" lon="-3.187520"><ele>139</ele><time>2020-08-11T12:56:58Z</time><name>PT110</name></trkpt>
<trkpt lat="54.666120" lon="-3.187513"><ele>141</ele><time>2020-08-11T12:57:00Z</time><name>PT111</name></trkpt>
<trkpt lat="54.666132" lon="-3.187506"><ele>141</ele><time>2020-08-11T12:57:00Z</time><name>PT112</name></trkpt>
<trkpt lat="54.666145" lon="-3.187499"><ele>141</ele><time>2020-08-11T12:57:01Z</time><name>PT113</name></trkpt>
<trkpt lat="54.666158" lon="-3.187499"><ele>141</ele><time>2020-08-11T12:57:03Z</time><name>PT114</name></trkpt>
<trkpt lat="54.666171" lon="-3.187493"><ele>141</ele><time>2020-08-11T12:57:03Z</time><name>PT115</name></trkpt>
<trkpt lat="54.666178" lon="-3.187482"><ele>140</ele><time>2020-08-11T12:57:06Z</time><name>PT116</name></trkpt>
<trkpt lat="54.666169" lon="-3.187490"><ele>138</ele><time>2020-08-11T12:57:06Z</time><name>PT117</name></trkpt>
<trkpt lat="54.666169" lon="-3.187499"><ele>137</ele><time>2020-08-11T12:57:07Z</time><name>PT118</name></trkpt>
<trkpt lat="54.666182" lon="-3.187502"><ele>136</ele><time>2020-08-11T12:57:09Z</time><name>PT119</name></trkpt>
<trkpt lat="54.666186" lon="-3.187491"><ele>136</ele><time>2020-08-11T12:57:09Z</time><name>PT120</name></trkpt>
<trkpt lat="54.666195" lon="-3.187485"><ele>136</ele><time>2020-08-11T12:57:10Z</time><name>PT121</name></trkpt>
<trkpt lat="54.666204" lon="-3.187490"><ele>135</ele><time>2020-08-11T12:57:12Z</time><name>PT122</name></trkpt>
<trkpt lat="54.666215" lon="-3.187491"><ele>135</ele><time>2020-08-11T12:57:12Z</time><name>PT123</name></trkpt>
<trkpt lat="54.666224" lon="-3.187491"><ele>135</ele><time>2020-08-11T12:57:13Z</time><name>PT124</name></trkpt>
<trkpt lat="54.666236" lon="-3.187484"><ele>136</ele><time>2020-08-11T12:57:15Z</time><name>PT125</name></trkpt>
<trkpt lat="54.666247" lon="-3.187481"><ele>135</ele><time>2020-08-11T12:57:15Z</time><name>PT126</name></trkpt>
<trkpt lat="54.666260" lon="-3.187476"><ele>136</ele><time>2020-08-11T12:57:16Z</time><name>PT127</name></trkpt>
<trkpt lat="54.666276" lon="-3.187470"><ele>136</ele><time>2020-08-11T12:57:18Z</time><name>PT128</name></trkpt>
<trkpt lat="54.666285" lon="-3.187463"><ele>136</ele><time>2020-08-11T12:57:18Z</time><name>PT129</name></trkpt>
<trkpt lat="54.666300" lon="-3.187462"><ele>137</ele><time>2020-08-11T12:57:19Z</time><name>PT130</name></trkpt>
<trkpt lat="54.666310" lon="-3.187453"><ele>137</ele><time>2020-08-11T12:57:21Z</time><name>PT131</name></trkpt>
<trkpt lat="54.666327" lon="-3.187438"><ele>137</ele><time>2020-08-11T12:57:21Z</time><name>PT132</name></trkpt>
<trkpt lat="54.666336" lon="-3.187427"><ele>138</ele><time>2020-08-11T12:57:22Z</time><name>PT133</name></trkpt>
<trkpt lat="54.666346" lon="-3.187422"><ele>138</ele><time>2020-08-11T12:57:24Z</time><name>PT134</name></trkpt>
<trkpt lat="54.666362" lon="-3.187421"><ele>138</ele><time>2020-08-11T12:57:24Z</time><name>PT135</name></trkpt>
<trkpt lat="54.666371" lon="-3.187425"><ele>138</ele><time>2020-08-11T12:57:25Z</time><name>PT136</name></trkpt>
<trkpt lat="54.666375" lon="-3.187421"><ele>139</ele><time>2020-08-11T12:57:27Z</time><name>PT137</name></trkpt>
<trkpt lat="54.666387" lon="-3.187410"><ele>138</ele><time>2020-08-11T12:57:27Z</time><name>PT138</name></trkpt>
<trkpt lat="54.666391" lon="-3.187409"><ele>139</ele><time>2020-08-11T12:57:28Z</time><name>PT139</name></trkpt>
<trkpt lat="54.666403" lon="-3.187412"><ele>138</ele><time>2020-08-11T12:57:30Z</time><name>PT140</name></trkpt>
<trkpt lat="54.666423" lon="-3.187418"><ele>137</ele><time>2020-08-11T12:57:30Z</time><name>PT141</name></trkpt>
<trkpt lat="54.666430" lon="-3.187421"><ele>137</ele><time>2020-08-11T12:57:31Z</time><name>PT142</name></trkpt>
<trkpt lat="54.666439" lon="-3.187423"><ele>137</ele><time>2020-08-11T12:57:33Z</time><name>PT143</name></trkpt>
<trkpt lat="54.666457" lon="-3.187420"><ele>137</ele><time>2020-08-11T12:57:33Z</time><name>PT144</name></trkpt>
<trkpt lat="54.666471" lon="-3.187422"><ele>137</ele><time>2020-08-11T12:57:35Z</time><name>PT145</name></trkpt>
<trkpt lat="54.666477" lon="-3.187422"><ele>136</ele><time>2020-08-11T12:57:36Z</time><name>PT146</name></trkpt>
<trkpt lat="54.666508" lon="-3.187415"><ele>129</ele><time>2020-08-11T12:57:36Z</time><name>PT147</name></trkpt>
<trkpt lat="54.666520" lon="-3.187407"><ele>128</ele><time>2020-08-11T12:57:37Z</time><name>PT148</name></trkpt>
<trkpt lat="54.666532" lon="-3.187402"><ele>128</ele><time>2020-08-11T12:57:39Z</time><name>PT149</name></trkpt>
<trkpt lat="54.666542" lon="-3.187397"><ele>130</ele><time>2020-08-11T12:57:39Z</time><name>PT150</name></trkpt>
<trkpt lat="54.666552" lon="-3.187390"><ele>131</ele><time>2020-08-11T12:57:41Z</time><name>PT151</name></trkpt>
<trkpt lat="54.666561" lon="-3.187386"><ele>130</ele><time>2020-08-11T12:57:42Z</time><name>PT152</name></trkpt>
<trkpt lat="54.666568" lon="-3.187380"><ele>131</ele><time>2020-08-11T12:57:42Z</time><name>PT153</name></trkpt>
<trkpt lat="54.666574" lon="-3.187377"><ele>131</ele><time>2020-08-11T12:57:43Z</time><name>PT154</name></trkpt>
<trkpt lat="54.666575" lon="-3.187376"><ele>132</ele><time>2020-08-11T12:57:45Z</time><name>PT155</name></trkpt>
<trkpt lat="54.666570" lon="-3.187378"><ele>131</ele><time>2020-08-11T12:57:45Z</time><name>PT156</name></trkpt>
<trkpt lat="54.666582" lon="-3.187369"><ele>135</ele><time>2020-08-11T12:57:51Z</time><name>PT157</name></trkpt>
<trkpt lat="54.666610" lon="-3.187340"><ele>140</ele><time>2020-08-11T12:57:54Z</time><name>PT158</name></trkpt>
<trkpt lat="54.666647" lon="-3.187305"><ele>143</ele><time>2020-08-11T12:57:57Z</time><name>PT159</name></trkpt>
<trkpt lat="54.666702" lon="-3.187261"><ele>146</ele><time>2020-08-11T12:58:01Z</time><name>PT160</name></trkpt>
<trkpt lat="54.666736" lon="-3.187226"><ele>148</ele><time>2020-08-11T12:58:06Z</time><name>PT161</name></trkpt>
<trkpt lat="54.666770" lon="-3.187205"><ele>150</ele><time>2020-08-11T12:58:09Z</time><name>PT162</name></trkpt>
<trkpt lat="54.666808" lon="-3.187188"><ele>154</ele><time>2020-08-11T12:58:13Z</time><name>PT163</name></trkpt>
<trkpt lat="54.666833" lon="-3.187163"><ele>155</ele><time>2020-08-11T12:58:16Z</time><name>PT164</name></trkpt>
<trkpt lat="54.666879" lon="-3.187139"><ele>157</ele><time>2020-08-11T12:58:21Z</time><name>PT165</name></trkpt>
<trkpt lat="54.666909" lon="-3.187129"><ele>159</ele><time>2020-08-11T12:58:24Z</time><name>PT166</name></trkpt>
<trkpt lat="54.666977" lon="-3.187100"><ele>157</ele><time>2020-08-11T12:58:27Z</time><name>PT167</name></trkpt>
<trkpt lat="54.667035" lon="-3.187063"><ele>158</ele><time>2020-08-11T12:58:31Z</time><name>PT168</name></trkpt>
<trkpt lat="54.667071" lon="-3.187038"><ele>156</ele><time>2020-08-11T12:58:36Z</time><name>PT169</name></trkpt>
<trkpt lat="54.667117" lon="-3.187018"><ele>152</ele><time>2020-08-11T12:58:39Z</time><name>PT170</name></trkpt>
<trkpt lat="54.667165" lon="-3.187016"><ele>149</ele><time>2020-08-11T12:58:43Z</time><name>PT171</name></trkpt>
<trkpt lat="54.667200" lon="-3.187004"><ele>147</ele><time>2020-08-11T12:58:48Z</time><name>PT172</name></trkpt>
<trkpt lat="54.667220" lon="-3.186995"><ele>147</ele><time>2020-08-11T12:58:51Z</time><name>PT173</name></trkpt>
<trkpt lat="54.667264" lon="-3.186982"><ele>144</ele><time>2020-08-11T12:58:54Z</time><name>PT174</name></trkpt>
<trkpt lat="54.667297" lon="-3.186972"><ele>145</ele><time>2020-08-11T12:58:57Z</time><name>PT175</name></trkpt>
<trkpt lat="54.667352" lon="-3.186949"><ele>148</ele><time>2020-08-11T12:59:01Z</time><name>PT176</name></trkpt>
<trkpt lat="54.667397" lon="-3.186948"><ele>149</ele><time>2020-08-11T12:59:05Z</time><name>PT177</name></trkpt>
<trkpt lat="54.667442" lon="-3.186915"><ele>149</ele><time>2020-08-11T12:59:09Z</time><name>PT178</name></trkpt>
<trkpt lat="54.667495" lon="-3.186895"><ele>150</ele><time>2020-08-11T12:59:12Z</time><name>PT179</name></trkpt>
<trkpt lat="54.667547" lon="-3.186874"><ele>151</ele><time>2020-08-11T12:59:15Z</time><name>PT180</name></trkpt>
<trkpt lat="54.667598" lon="-3.186839"><ele>153</ele><time>2020-08-11T12:59:19Z</time><name>PT181</name></trkpt>
<trkpt lat="54.667638" lon="-3.186800"><ele>155</ele><time>2020-08-11T12:59:24Z</time><name>PT182</name></trkpt>
<trkpt lat="54.667720" lon="-3.186763"><ele>157</ele><time>2020-08-11T12:59:27Z</time><name>PT183</name></trkpt>
<trkpt lat="54.667751" lon="-3.186717"><ele>158</ele><time>2020-08-11T12:59:31Z</time><name>PT184</name></trkpt>
<trkpt lat="54.667801" lon="-3.186679"><ele>156</ele><time>2020-08-11T12:59:34Z</time><name>PT185</name></trkpt>
<trkpt lat="54.667872" lon="-3.186624"><ele>156</ele><time>2020-08-11T12:59:40Z</time><name>PT186</name></trkpt>
<trkpt lat="54.667910" lon="-3.186582"><ele>157</ele><time>2020-08-11T12:59:45Z</time><name>PT187</name></trkpt>
<trkpt lat="54.667939" lon="-3.186567"><ele>154</ele><time>2020-08-11T12:59:48Z</time><name>PT188</name></trkpt>
<trkpt lat="54.667961" lon="-3.186517"><ele>151</ele><time>2020-08-11T12:59:51Z</time><name>PT189</name></trkpt>
<trkpt lat="54.668000" lon="-3.186461"><ele>148</ele><time>2020-08-11T12:59:55Z</time><name>PT190</name></trkpt>
<trkpt lat="54.668022" lon="-3.186400"><ele>148</ele><time>2020-08-11T12:59:58Z</time><name>PT191</name></trkpt>
<trkpt lat="54.668071" lon="-3.186326"><ele>147</ele><time>2020-08-11T13:00:03Z</time><name>PT192</name></trkpt>
<trkpt lat="54.668092" lon="-3.186279"><ele>146</ele><time>2020-08-11T13:00:06Z</time><name>PT193</name></trkpt>
<trkpt lat="54.668128" lon="-3.186210"><ele>148</ele><time>2020-08-11T13:00:09Z</time><name>PT194</name></trkpt>
<trkpt lat="54.668163" lon="-3.186161"><ele>147</ele><time>2020-08-11T13:00:13Z</time><name>PT195</name></trkpt>
<trkpt lat="54.668210" lon="-3.186114"><ele>149</ele><time>2020-08-11T13:00:18Z</time><name>PT196</name></trkpt>
<trkpt lat="54.668241" lon="-3.186070"><ele>146</ele><time>2020-08-11T13:00:21Z</time><name>PT197</name></trkpt>
<trkpt lat="54.668281" lon="-3.186056"><ele>145</ele><time>2020-08-11T13:00:24Z</time><name>PT198</name></trkpt>
<trkpt lat="54.668334" lon="-3.186006"><ele>146</ele><time>2020-08-11T13:00:27Z</time><name>PT199</name></trkpt>
<trkpt lat="54.668364" lon="-3.185952"><ele>146</ele><time>2020-08-11T13:00:31Z</time><name>PT200</name></trkpt>
<trkpt lat="54.668387" lon="-3.185905"><ele>147</ele><time>2020-08-11T13:00:36Z</time><name>PT201</name></trkpt>
<trkpt lat="54.668420" lon="-3.185847"><ele>149</ele><time>2020-08-11T13:00:39Z</time><name>PT202</name></trkpt>
<trkpt lat="54.668437" lon="-3.185783"><ele>150</ele><time>2020-08-11T13:00:43Z</time><name>PT203</name></trkpt>
<trkpt lat="54.668449" lon="-3.185753"><ele>152</ele><time>2020-08-11T13:00:48Z</time><name>PT204</name></trkpt>
<trkpt lat="54.668447" lon="-3.185702"><ele>152</ele><time>2020-08-11T13:00:54Z</time><name>PT205</name></trkpt>
<trkpt lat="54.668459" lon="-3.185654"><ele>152</ele><time>2020-08-11T13:00:57Z</time><name>PT206</name></trkpt>
<trkpt lat="54.668469" lon="-3.185610"><ele>154</ele><time>2020-08-11T13:01:00Z</time><name>PT207</name></trkpt>
<trkpt lat="54.668476" lon="-3.185593"><ele>154</ele><time>2020-08-11T13:01:00Z</time><name>PT208</name></trkpt>
<trkpt lat="54.668480" lon="-3.185564"><ele>155</ele><time>2020-08-11T13:01:01Z</time><name>PT209</name></trkpt>
<trkpt lat="54.668482" lon="-3.185553"><ele>155</ele><time>2020-08-11T13:01:03Z</time><name>PT210</name></trkpt>
<trkpt lat="54.668491" lon="-3.185538"><ele>155</ele><time>2020-08-11T13:01:03Z</time><name>PT211</name></trkpt>
<trkpt lat="54.668495" lon="-3.185532"><ele>156</ele><time>2020-08-11T13:01:04Z</time><name>PT212</name></trkpt>
<trkpt lat="54.668495" lon="-3.185534"><ele>156</ele><time>2020-08-11T13:01:06Z</time><name>PT213</name></trkpt>
<trkpt lat="54.668498" lon="-3.185530"><ele>156</ele><time>2020-08-11T13:01:06Z</time><name>PT214</name></trkpt>
<trkpt lat="54.668498" lon="-3.185529"><ele>157</ele><time>2020-08-11T13:01:07Z</time><name>PT215</name></trkpt>
<trkpt lat="54.668489" lon="-3.185540"><ele>157</ele><time>2020-08-11T13:01:09Z</time><name>PT216</name></trkpt>
<trkpt lat="54.668482" lon="-3.185546"><ele>157</ele><time>2020-08-11T13:01:09Z</time><name>PT217</name></trkpt>
<trkpt lat="54.668478" lon="-3.185545"><ele>157</ele><time>2020-08-11T13:01:10Z</time><name>PT218</name></trkpt>
<trkpt lat="54.668477" lon="-3.185541"><ele>158</ele><time>2020-08-11T13:01:12Z</time><name>PT219</name></trkpt>
<trkpt lat="54.668475" lon="-3.185542"><ele>157</ele><time>2020-08-11T13:01:12Z</time><name>PT220</name></trkpt>
<trkpt lat="54.668469" lon="-3.185545"><ele>157</ele><time>2020-08-11T13:01:13Z</time><name>PT221</name></trkpt>
<trkpt lat="54.668465" lon="-3.185548"><ele>157</ele><time>2020-08-11T13:01:15Z</time><name>PT222</name></trkpt>
<trkpt lat="54.668460" lon="-3.185549"><ele>157</ele><time>2020-08-11T13:01:15Z</time><name>PT223</name></trkpt>
<trkpt lat="54.668454" lon="-3.185545"><ele>157</ele><time>2020-08-11T13:01:16Z</time><name>PT224</name></trkpt>
<trkpt lat="54.668450" lon="-3.185540"><ele>157</ele><time>2020-08-11T13:01:18Z</time><name>PT225</name></trkpt>
<trkpt lat="54.668447" lon="-3.185518"><ele>159</ele><time>2020-08-11T13:01:18Z</time><name>PT226</name></trkpt>
<trkpt lat="54.668452" lon="-3.185501"><ele>160</ele><time>2020-08-11T13:01:19Z</time><name>PT227</name></trkpt>
<trkpt lat="54.668446" lon="-3.185490"><ele>162</ele><time>2020-08-11T13:01:21Z</time><name>PT228</name></trkpt>
<trkpt lat="54.668441" lon="-3.185478"><ele>162</ele><time>2020-08-11T13:01:21Z</time><name>PT229</name></trkpt>
<trkpt lat="54.668438" lon="-3.185464"><ele>163</ele><time>2020-08-11T13:01:22Z</time><name>PT230</name></trkpt>
<trkpt lat="54.668433" lon="-3.185451"><ele>163</ele><time>2020-08-11T13:01:24Z</time><name>PT231</name></trkpt>
<trkpt lat="54.668431" lon="-3.185442"><ele>164</ele><time>2020-08-11T13:01:24Z</time><name>PT232</name></trkpt>
<trkpt lat="54.668425" lon="-3.185433"><ele>164</ele><time>2020-08-11T13:01:25Z</time><name>PT233</name></trkpt>
<trkpt lat="54.668419" lon="-3.185430"><ele>164</ele><time>2020-08-11T13:01:27Z</time><name>PT234</name></trkpt>
<trkpt lat="54.668414" lon="-3.185429"><ele>164</ele><time>2020-08-11T13:01:27Z</time><name>PT235</name></trkpt>
<trkpt lat="54.668410" lon="-3.185429"><ele>165</ele><time>2020-08-11T13:01:28Z</time><name>PT236</name></trkpt>
<trkpt lat="54.668408" lon="-3.185424"><ele>165</ele><time>2020-08-11T13:01:30Z</time><name>PT237</name></trkpt>
<trkpt lat="54.668405" lon="-3.185417"><ele>165</ele><time>2020-08-11T13:01:30Z</time><name>PT238</name></trkpt>
<trkpt lat="54.668402" lon="-3.185411"><ele>165</ele><time>2020-08-11T13:01:31Z</time><name>PT239</name></trkpt>
<trkpt lat="54.668396" lon="-3.185404"><ele>166</ele><time>2020-08-11T13:01:33Z</time><name>PT240</name></trkpt>
<trkpt lat="54.668390" lon="-3.185399"><ele>165</ele><time>2020-08-11T13:01:33Z</time><name>PT241</name></trkpt>
<trkpt lat="54.668381" lon="-3.185396"><ele>165</ele><time>2020-08-11T13:01:34Z</time><name>PT242</name></trkpt>
<trkpt lat="54.668359" lon="-3.185390"><ele>166</ele><time>2020-08-11T13:01:36Z</time><name>PT243</name></trkpt>
<trkpt lat="54.668351" lon="-3.185382"><ele>166</ele><time>2020-08-11T13:01:37Z</time><name>PT244</name></trkpt>
<trkpt lat="54.668344" lon="-3.185379"><ele>166</ele><time>2020-08-11T13:01:39Z</time><name>PT245</name></trkpt>
<trkpt lat="54.668338" lon="-3.185377"><ele>166</ele><time>2020-08-11T13:01:39Z</time><name>PT246</name></trkpt>
<trkpt lat="54.668330" lon="-3.185369"><ele>166</ele><time>2020-08-11T13:01:40Z</time><name>PT247</name></trkpt>
<trkpt lat="54.668324" lon="-3.185361"><ele>166</ele><time>2020-08-11T13:01:42Z</time><name>PT248</name></trkpt>
<trkpt lat="54.668320" lon="-3.185352"><ele>166</ele><time>2020-08-11T13:01:42Z</time><name>PT249</name></trkpt>
<trkpt lat="54.668316" lon="-3.185344"><ele>167</ele><time>2020-08-11T13:01:43Z</time><name>PT250</name></trkpt>
<trkpt lat="54.668310" lon="-3.185334"><ele>166</ele><time>2020-08-11T13:01:45Z</time><name>PT251</name></trkpt>
<trkpt lat="54.668306" lon="-3.185330"><ele>166</ele><time>2020-08-11T13:01:45Z</time><name>PT252</name></trkpt>
<trkpt lat="54.668305" lon="-3.185328"><ele>166</ele><time>2020-08-11T13:01:47Z</time><name>PT253</name></trkpt>
<trkpt lat="54.668305" lon="-3.185328"><ele>166</ele><time>2020-08-11T13:01:48Z</time><name>PT254</name></trkpt>
<trkpt lat="54.668306" lon="-3.185328"><ele>166</ele><time>2020-08-11T13:01:49Z</time><name>PT255</name></trkpt>
<trkpt lat="54.668306" lon="-3.185326"><ele>166</ele><time>2020-08-11T13:01:51Z</time><name>PT256</name></trkpt>
<trkpt lat="54.668296" lon="-3.185314"><ele>166</ele><time>2020-08-11T13:01:51Z</time><name>PT257</name></trkpt>
<trkpt lat="54.668291" lon="-3.185304"><ele>166</ele><time>2020-08-11T13:01:52Z</time><name>PT258</name></trkpt>
<trkpt lat="54.668288" lon="-3.185294"><ele>166</ele><time>2020-08-11T13:01:54Z</time><name>PT259</name></trkpt>
<trkpt lat="54.668282" lon="-3.185284"><ele>167</ele><time>2020-08-11T13:01:54Z</time><name>PT260</name></trkpt>
<trkpt lat="54.668281" lon="-3.185272"><ele>166</ele><time>2020-08-11T13:01:55Z</time><name>PT261</name></trkpt>
<trkpt lat="54.668277" lon="-3.185273"><ele>167</ele><time>2020-08-11T13:01:57Z</time><name>PT262</name></trkpt>
<trkpt lat="54.668273" lon="-3.185265"><ele>167</ele><time>2020-08-11T13:01:57Z</time><name>PT263</name></trkpt>
<trkpt lat="54.668269" lon="-3.185260"><ele>167</ele><time>2020-08-11T13:01:58Z</time><name>PT264</name></trkpt>
<trkpt lat="54.668254" lon="-3.185251"><ele>168</ele><time>2020-08-11T13:02:00Z</time><name>PT265</name></trkpt>
<trkpt lat="54.668245" lon="-3.185244"><ele>168</ele><time>2020-08-11T13:02:01Z</time><name>PT266</name></trkpt>
<trkpt lat="54.668236" lon="-3.185231"><ele>168</ele><time>2020-08-11T13:02:03Z</time><name>PT267</name></trkpt>
<trkpt lat="54.668230" lon="-3.185218"><ele>168</ele><time>2020-08-11T13:02:03Z</time><name>PT268</name></trkpt>
<trkpt lat="54.668225" lon="-3.185207"><ele>168</ele><time>2020-08-11T13:02:04Z</time><name>PT269</name></trkpt>
<trkpt lat="54.668224" lon="-3.185198"><ele>168</ele><time>2020-08-11T13:02:06Z</time><name>PT270</name></trkpt>
<trkpt lat="54.668220" lon="-3.185189"><ele>169</ele><time>2020-08-11T13:02:06Z</time><name>PT271</name></trkpt>
<trkpt lat="54.668215" lon="-3.185179"><ele>169</ele><time>2020-08-11T13:02:07Z</time><name>PT272</name></trkpt>
<trkpt lat="54.668211" lon="-3.185172"><ele>169</ele><time>2020-08-11T13:02:09Z</time><name>PT273</name></trkpt>
<trkpt lat="54.668202" lon="-3.185168"><ele>169</ele><time>2020-08-11T13:02:09Z</time><name>PT274</name></trkpt>
<trkpt lat="54.668196" lon="-3.185163"><ele>169</ele><time>2020-08-11T13:02:10Z</time><name>PT275</name></trkpt>
<trkpt lat="54.668189" lon="-3.185154"><ele>169</ele><time>2020-08-11T13:02:12Z</time><name>PT276</name></trkpt>
<trkpt lat="54.668185" lon="-3.185147"><ele>169</ele><time>2020-08-11T13:02:12Z</time><name>PT277</name></trkpt>
<trkpt lat="54.668178" lon="-3.185138"><ele>169</ele><time>2020-08-11T13:02:13Z</time><name>PT278</name></trkpt>
<trkpt lat="54.668175" lon="-3.185129"><ele>170</ele><time>2020-08-11T13:02:15Z</time><name>PT279</name></trkpt>
<trkpt lat="54.668173" lon="-3.185116"><ele>170</ele><time>2020-08-11T13:02:15Z</time><name>PT280</name></trkpt>
<trkpt lat="54.668170" lon="-3.185103"><ele>170</ele><time>2020-08-11T13:02:16Z</time><name>PT281</name></trkpt>
<trkpt lat="54.668163" lon="-3.185094"><ele>170</ele><time>2020-08-11T13:02:18Z</time><name>PT282</name></trkpt>
<trkpt lat="54.668159" lon="-3.185085"><ele>170</ele><time>2020-08-11T13:02:18Z</time><name>PT283</name></trkpt>
<trkpt lat="54.668152" lon="-3.185072"><ele>171</ele><time>2020-08-11T13:02:19Z</time><name>PT284</name></trkpt>
<trkpt lat="54.668145" lon="-3.185065"><ele>170</ele><time>2020-08-11T13:02:21Z</time><name>PT285</name></trkpt>
<trkpt lat="54.668139" lon="-3.185054"><ele>170</ele><time>2020-08-11T13:02:21Z</time><name>PT286</name></trkpt>
<trkpt lat="54.668134" lon="-3.185043"><ele>170</ele><time>2020-08-11T13:02:22Z</time><name>PT287</name></trkpt>
<trkpt lat="54.668130" lon="-3.185030"><ele>170</ele><time>2020-08-11T13:02:24Z</time><name>PT288</name></trkpt>
<trkpt lat="54.668125" lon="-3.185023"><ele>171</ele><time>2020-08-11T13:02:24Z</time><name>PT289</name></trkpt>
<trkpt lat="54.668120" lon="-3.185013"><ele>171</ele><time>2020-08-11T13:02:25Z</time><name>PT290</name></trkpt>
<trkpt lat="54.668114" lon="-3.184999"><ele>172</ele><time>2020-08-11T13:02:27Z</time><name>PT291</name></trkpt>
<trkpt lat="54.668111" lon="-3.184989"><ele>172</ele><time>2020-08-11T13:02:27Z</time><name>PT292</name></trkpt>
<trkpt lat="54.668106" lon="-3.184981"><ele>172</ele><time>2020-08-11T13:02:29Z</time><name>PT293</name></trkpt>
<trkpt lat="54.668100" lon="-3.184972"><ele>172</ele><time>2020-08-11T13:02:30Z</time><name>PT294</name></trkpt>
<trkpt lat="54.668094" lon="-3.184958"><ele>172</ele><time>2020-08-11T13:02:30Z</time><name>PT295</name></trkpt>
<trkpt lat="54.668088" lon="-3.184948"><ele>172</ele><time>2020-08-11T13:02:32Z</time><name>PT296</name></trkpt>
<trkpt lat="54.668080" lon="-3.184940"><ele>172</ele><time>2020-08-11T13:02:33Z</time><name>PT297</name></trkpt>
<trkpt lat="54.668077" lon="-3.184928"><ele>172</ele><time>2020-08-11T13:02:33Z</time><name>PT298</name></trkpt>
<trkpt lat="54.668073" lon="-3.184914"><ele>172</ele><time>2020-08-11T13:02:35Z</time><name>PT299</name></trkpt>
<trkpt lat="54.668070" lon="-3.184904"><ele>172</ele><time>2020-08-11T13:02:36Z</time><name>PT300</name></trkpt>
<trkpt lat="54.668064" lon="-3.184893"><ele>172</ele><time>2020-08-11T13:02:36Z</time><name>PT301</name></trkpt>
<trkpt lat="54.668058" lon="-3.184883"><ele>172</ele><time>2020-08-11T13:02:37Z</time><name>PT302</name></trkpt>
<trkpt lat="54.668052" lon="-3.184871"><ele>173</ele><time>2020-08-11T13:02:39Z</time><name>PT303</name></trkpt>
<trkpt lat="54.668050" lon="-3.184862"><ele>172</ele><time>2020-08-11T13:02:39Z</time><name>PT304</name></trkpt>
<trkpt lat="54.668046" lon="-3.184855"><ele>173</ele><time>2020-08-11T13:02:40Z</time><name>PT305</name></trkpt>
<trkpt lat="54.668040" lon="-3.184846"><ele>173</ele><time>2020-08-11T13:02:42Z</time><name>PT306</name></trkpt>
<trkpt lat="54.668034" lon="-3.184834"><ele>173</ele><time>2020-08-11T13:02:42Z</time><name>PT307</name></trkpt>
<trkpt lat="54.668031" lon="-3.184825"><ele>174</ele><time>2020-08-11T13:02:44Z</time><name>PT308</name></trkpt>
<trkpt lat="54.668027" lon="-3.184816"><ele>174</ele><time>2020-08-11T13:02:45Z</time><name>PT309</name></trkpt>
<trkpt lat="54.668023" lon="-3.184804"><ele>174</ele><time>2020-08-11T13:02:45Z</time><name>PT310</name></trkpt>
<trkpt lat="54.668018" lon="-3.184792"><ele>174</ele><time>2020-08-11T13:02:47Z</time><name>PT311</name></trkpt>
<trkpt lat="54.668015" lon="-3.184783"><ele>175</ele><time>2020-08-11T13:02:48Z</time><name>PT312</name></trkpt>
<trkpt lat="54.668013" lon="-3.184775"><ele>175</ele><time>2020-08-11T13:02:48Z</time><name>PT313</name></trkpt>
<trkpt lat="54.668010" lon="-3.184764"><ele>175</ele><time>2020-08-11T13:02:49Z</time><name>PT314</name></trkpt>
<trkpt lat="54.668005" lon="-3.184751"><ele>176</ele><time>2020-08-11T13:02:51Z</time><name>PT315</name></trkpt>
<trkpt lat="54.668000" lon="-3.184743"><ele>176</ele><time>2020-08-11T13:02:51Z</time><name>PT316</name></trkpt>
<trkpt lat="54.667991" lon="-3.184733"><ele>176</ele><time>2020-08-11T13:02:52Z</time><name>PT317</name></trkpt>
<trkpt lat="54.667985" lon="-3.184722"><ele>176</ele><time>2020-08-11T13:02:54Z</time><name>PT318</name></trkpt>
<trkpt lat="54.667978" lon="-3.184710"><ele>177</ele><time>2020-08-11T13:02:54Z</time><name>PT319</name></trkpt>
<trkpt lat="54.667972" lon="-3.184699"><ele>176</ele><time>2020-08-11T13:02:55Z</time><name>PT320</name></trkpt>
<trkpt lat="54.667964" lon="-3.184690"><ele>176</ele><time>2020-08-11T13:02:57Z</time><name>PT321</name></trkpt>
<trkpt lat="54.667960" lon="-3.184681"><ele>176</ele><time>2020-08-11T13:02:57Z</time><name>PT322</name></trkpt>
<trkpt lat="54.667956" lon="-3.184671"><ele>177</ele><time>2020-08-11T13:02:59Z</time><name>PT323</name></trkpt>
<trkpt lat="54.667951" lon="-3.184662"><ele>177</ele><time>2020-08-11T13:03:00Z</time><name>PT324</name></trkpt>
<trkpt lat="54.667943" lon="-3.184653"><ele>177</ele><time>2020-08-11T13:03:00Z</time><name>PT325</name></trkpt>
<trkpt lat="54.667940" lon="-3.184644"><ele>177</ele><time>2020-08-11T13:03:02Z</time><name>PT326</name></trkpt>
<trkpt lat="54.667936" lon="-3.184632"><ele>178</ele><time>2020-08-11T13:03:03Z</time><name>PT327</name></trkpt>
<trkpt lat="54.667930" lon="-3.184622"><ele>177</ele><time>2020-08-11T13:03:03Z</time><name>PT328</name></trkpt>
<trkpt lat="54.667923" lon="-3.184612"><ele>176</ele><time>2020-08-11T13:03:04Z</time><name>PT329</name></trkpt>
<trkpt lat="54.667919" lon="-3.184599"><ele>177</ele><time>2020-08-11T13:03:06Z</time><name>PT330</name></trkpt>
<trkpt lat="54.667914" lon="-3.184589"><ele>178</ele><time>2020-08-11T13:03:06Z</time><name>PT331</name></trkpt>
<trkpt lat="54.667909" lon="-3.184580"><ele>177</ele><time>2020-08-11T13:03:07Z</time><name>PT332</name></trkpt>
<trkpt lat="54.667902" lon="-3.184571"><ele>177</ele><time>2020-08-11T13:03:09Z</time><name>PT333</name></trkpt>
<trkpt lat="54.667893" lon="-3.184557"><ele>177</ele><time>2020-08-11T13:03:09Z</time><name>PT334</name></trkpt>
<trkpt lat="54.667885" lon="-3.184545"><ele>178</ele><time>2020-08-11T13:03:10Z</time><name>PT335</name></trkpt>
<trkpt lat="54.667878" lon="-3.184540"><ele>177</ele><time>2020-08-11T13:03:12Z</time><name>PT336</name></trkpt>
<trkpt lat="54.667871" lon="-3.184532"><ele>177</ele><time>2020-08-11T13:03:12Z</time><name>PT337</name></trkpt>
<trkpt lat="54.667866" lon="-3.184519"><ele>177</ele><time>2020-08-11T13:03:13Z</time><name>PT338</name></trkpt>
<trkpt lat="54.667861" lon="-3.184505"><ele>177</ele><time>2020-08-11T13:03:15Z</time><name>PT339</name></trkpt>
<trkpt lat="54.667856" lon="-3.184494"><ele>178</ele><time>2020-08-11T13:03:15Z</time><name>PT340</name></trkpt>
<trkpt lat="54.667855" lon="-3.184486"><ele>178</ele><time>2020-08-11T13:03:16Z</time><name>PT341</name></trkpt>
<trkpt lat="54.667851" lon="-3.184475"><ele>180</ele><time>2020-08-11T13:03:18Z</time><name>PT342</name></trkpt>
<trkpt lat="54.667845" lon="-3.184464"><ele>180</ele><time>2020-08-11T13:03:18Z</time><name>PT343</name></trkpt>
<trkpt lat="54.667838" lon="-3.184456"><ele>180</ele><time>2020-08-11T13:03:19Z</time><name>PT344</name></trkpt>
<trkpt lat="54.667834" lon="-3.184449"><ele>181</ele><time>2020-08-11T13:03:21Z</time><name>PT345</name></trkpt>
<trkpt lat="54.667827" lon="-3.184442"><ele>181</ele><time>2020-08-11T13:03:21Z</time><name>PT346</name></trkpt>
<trkpt lat="54.667819" lon="-3.184429"><ele>182</ele><time>2020-08-11T13:03:22Z</time><name>PT347</name></trkpt>
<trkpt lat="54.667813" lon="-3.184419"><ele>182</ele><time>2020-08-11T13:03:24Z</time><name>PT348</name></trkpt>
<trkpt lat="54.667808" lon="-3.184414"><ele>182</ele><time>2020-08-11T13:03:24Z</time><name>PT349</name></trkpt>
<trkpt lat="54.667802" lon="-3.184406"><ele>182</ele><time>2020-08-11T13:03:25Z</time><name>PT350</name></trkpt>
<trkpt lat="54.667795" lon="-3.184396"><ele>183</ele><time>2020-08-11T13:03:27Z</time><name>PT351</name></trkpt>
<trkpt lat="54.667790" lon="-3.184387"><ele>183</ele><time>2020-08-11T13:03:27Z</time><name>PT352</name></trkpt>
<trkpt lat="54.667784" lon="-3.184379"><ele>183</ele><time>2020-08-11T13:03:28Z</time><name>PT353</name></trkpt>
<trkpt lat="54.667777" lon="-3.184374"><ele>183</ele><time>2020-08-11T13:03:30Z</time><name>PT354</name></trkpt>
<trkpt lat="54.667770" lon="-3.184365"><ele>183</ele><time>2020-08-11T13:03:30Z</time><name>PT355</name></trkpt>
<trkpt lat="54.667765" lon="-3.184353"><ele>184</ele><time>2020-08-11T13:03:31Z</time><name>PT356</name></trkpt>
<trkpt lat="54.667761" lon="-3.184341"><ele>183</ele><time>2020-08-11T13:03:33Z</time><name>PT357</name></trkpt>
<trkpt lat="54.667755" lon="-3.184336"><ele>183</ele><time>2020-08-11T13:03:33Z</time><name>PT358</name></trkpt>
<trkpt lat="54.667749" lon="-3.184323"><ele>183</ele><time>2020-08-11T13:03:34Z</time><name>PT359</name></trkpt>
<trkpt lat="54.667743" lon="-3.184312"><ele>184</ele><time>2020-08-11T13:03:36Z</time><name>PT360</name></trkpt>
<trkpt lat="54.667739" lon="-3.184302"><ele>184</ele><time>2020-08-11T13:03:37Z</time><name>PT361</name></trkpt>
<trkpt lat="54.667730" lon="-3.184295"><ele>184</ele><time>2020-08-11T13:03:38Z</time><name>PT362</name></trkpt>
<trkpt lat="54.667723" lon="-3.184286"><ele>184</ele><time>2020-08-11T13:03:39Z</time><name>PT363</name></trkpt>
<trkpt lat="54.667717" lon="-3.184278"><ele>185</ele><time>2020-08-11T13:03:39Z</time><name>PT364</name></trkpt>
<trkpt lat="54.667711" lon="-3.184271"><ele>185</ele><time>2020-08-11T13:03:41Z</time><name>PT365</name></trkpt>
<trkpt lat="54.667705" lon="-3.184267"><ele>186</ele><time>2020-08-11T13:03:42Z</time><name>PT366</name></trkpt>
<trkpt lat="54.667698" lon="-3.184258"><ele>186</ele><time>2020-08-11T13:03:43Z</time><name>PT367</name></trkpt>
<trkpt lat="54.667689" lon="-3.184248"><ele>186</ele><time>2020-08-11T13:03:43Z</time><name>PT368</name></trkpt>
<trkpt lat="54.667681" lon="-3.184240"><ele>187</ele><time>2020-08-11T13:03:45Z</time><name>PT369</name></trkpt>
<trkpt lat="54.667674" lon="-3.184235"><ele>187</ele><time>2020-08-11T13:03:45Z</time><name>PT370</name></trkpt>
<trkpt lat="54.667666" lon="-3.184230"><ele>187</ele><time>2020-08-11T13:03:46Z</time><name>PT371</name></trkpt>
<trkpt lat="54.667659" lon="-3.184222"><ele>187</ele><time>2020-08-11T13:03:48Z</time><name>PT372</name></trkpt>
<trkpt lat="54.667651" lon="-3.184214"><ele>187</ele><time>2020-08-11T13:03:48Z</time><name>PT373</name></trkpt>
<trkpt lat="54.667647" lon="-3.184207"><ele>187</ele><time>2020-08-11T13:03:49Z</time><name>PT374</name></trkpt>
<trkpt lat="54.667641" lon="-3.184200"><ele>187</ele><time>2020-08-11T13:03:51Z</time><name>PT375</name></trkpt>
<trkpt lat="54.667635" lon="-3.184191"><ele>188</ele><time>2020-08-11T13:03:51Z</time><name>PT376</name></trkpt>
<trkpt lat="54.667626" lon="-3.184183"><ele>188</ele><time>2020-08-11T13:03:52Z</time><name>PT377</name></trkpt>
<trkpt lat="54.667618" lon="-3.184177"><ele>188</ele><time>2020-08-11T13:03:54Z</time><name>PT378</name></trkpt>
<trkpt lat="54.667608" lon="-3.184175"><ele>188</ele><time>2020-08-11T13:03:54Z</time><name>PT379</name></trkpt>
<trkpt lat="54.667601" lon="-3.184166"><ele>188</ele><time>2020-08-11T13:03:55Z</time><name>PT380</name></trkpt>
<trkpt lat="54.667594" lon="-3.184155"><ele>188</ele><time>2020-08-11T13:03:57Z</time><name>PT381</name></trkpt>
<trkpt lat="54.667588" lon="-3.184147"><ele>188</ele><time>2020-08-11T13:03:57Z</time><name>PT382</name></trkpt>
<trkpt lat="54.667583" lon="-3.184144"><ele>188</ele><time>2020-08-11T13:03:58Z</time><name>PT383</name></trkpt>
<trkpt lat="54.667573" lon="-3.184136"><ele>188</ele><time>2020-08-11T13:04:00Z</time><name>PT384</name></trkpt>
<trkpt lat="54.667562" lon="-3.184124"><ele>188</ele><time>2020-08-11T13:04:00Z</time><name>PT385</name></trkpt>
<trkpt lat="54.667555" lon="-3.184116"><ele>188</ele><time>2020-08-11T13:04:01Z</time><name>PT386</name></trkpt>
<trkpt lat="54.667543" lon="-3.184115"><ele>189</ele><time>2020-08-11T13:04:03Z</time><name>PT387</name></trkpt>
<trkpt lat="54.667525" lon="-3.184075"><ele>189</ele><time>2020-08-11T13:04:06Z</time><name>PT388</name></trkpt>
<trkpt lat="54.667506" lon="-3.184050"><ele>189</ele><time>2020-08-11T13:04:09Z</time><name>PT389</name></trkpt>
<trkpt lat="54.667479" lon="-3.184025"><ele>190</ele><time>2020-08-11T13:04:12Z</time><name>PT390</name></trkpt>
<trkpt lat="54.667451" lon="-3.183985"><ele>191</ele><time>2020-08-11T13:04:15Z</time><name>PT391</name></trkpt>
<trkpt lat="54.667433" lon="-3.183956"><ele>192</ele><time>2020-08-11T13:04:18Z</time><name>PT392</name></trkpt>
<trkpt lat="54.667414" lon="-3.183899"><ele>192</ele><time>2020-08-11T13:04:22Z</time><name>PT393</name></trkpt>
<trkpt lat="54.667392" lon="-3.183860"><ele>192</ele><time>2020-08-11T13:04:25Z</time><name>PT394</name></trkpt>
<trkpt lat="54.667364" lon="-3.183798"><ele>192</ele><time>2020-08-11T13:04:30Z</time><name>PT395</name></trkpt>
<trkpt lat="54.667349" lon="-3.183730"><ele>193</ele><time>2020-08-11T13:04:33Z</time><name>PT396</name></trkpt>
<trkpt lat="54.667327" lon="-3.183671"><ele>193</ele><time>2020-08-11T13:04:37Z</time><name>PT397</name></trkpt>
<trkpt lat="54.667306" lon="-3.183608"><ele>194</ele><time>2020-08-11T13:04:42Z</time><name>PT398</name></trkpt>
<trkpt lat="54.667287" lon="-3.183565"><ele>195</ele><time>2020-08-11T13:04:45Z</time><name>PT399</name></trkpt>
<trkpt lat="54.667260" lon="-3.183504"><ele>194</ele><time>2020-08-11T13:04:48Z</time><name>PT400</name></trkpt>
<trkpt lat="54.667240" lon="-3.183452"><ele>195</ele><time>2020-08-11T13:04:52Z</time><name>PT401</name></trkpt>
<trkpt lat="54.667225" lon="-3.183411"><ele>195</ele><time>2020-08-11T13:04:56Z</time><name>PT402</name></trkpt>
<trkpt lat="54.667206" lon="-3.183352"><ele>195</ele><time>2020-08-11T13:05:00Z</time><name>PT403</name></trkpt>
<trkpt lat="54.667185" lon="-3.183306"><ele>197</ele><time>2020-08-11T13:05:03Z</time><name>PT404</name></trkpt>
<trkpt lat="54.667167" lon="-3.183249"><ele>197</ele><time>2020-08-11T13:05:06Z</time><name>PT405</name></trkpt>
<trkpt lat="54.667155" lon="-3.183202"><ele>197</ele><time>2020-08-11T13:05:09Z</time><name>PT406</name></trkpt>
<trkpt lat="54.667140" lon="-3.183164"><ele>198</ele><time>2020-08-11T13:05:12Z</time><name>PT407</name></trkpt>
<trkpt lat="54.667127" lon="-3.183120"><ele>197</ele><time>2020-08-11T13:05:15Z</time><name>PT408</name></trkpt>
<trkpt lat="54.667109" lon="-3.183065"><ele>197</ele><time>2020-08-11T13:05:19Z</time><name>PT409</name></trkpt>
<trkpt lat="54.667095" lon="-3.183022"><ele>197</ele><time>2020-08-11T13:05:22Z</time><name>PT410</name></trkpt>
<trkpt lat="54.667085" lon="-3.182971"><ele>198</ele><time>2020-08-11T13:05:27Z</time><name>PT411</name></trkpt>
<trkpt lat="54.667060" lon="-3.182920"><ele>199</ele><time>2020-08-11T13:05:30Z</time><name>PT412</name></trkpt>
<trkpt lat="54.667051" lon="-3.182884"><ele>199</ele><time>2020-08-11T13:05:33Z</time><name>PT413</name></trkpt>
<trkpt lat="54.667030" lon="-3.182829"><ele>200</ele><time>2020-08-11T13:05:37Z</time><name>PT414</name></trkpt>
<trkpt lat="54.667011" lon="-3.182792"><ele>200</ele><time>2020-08-11T13:05:40Z</time><name>PT415</name></trkpt>
<trkpt lat="54.666993" lon="-3.182731"><ele>201</ele><time>2020-08-11T13:05:45Z</time><name>PT416</name></trkpt>
<trkpt lat="54.666985" lon="-3.182680"><ele>200</ele><time>2020-08-11T13:05:48Z</time><name>PT417</name></trkpt>
<trkpt lat="54.666970" lon="-3.182619"><ele>200</ele><time>2020-08-11T13:05:51Z</time><name>PT418</name></trkpt>
<trkpt lat="54.666954" lon="-3.182564"><ele>201</ele><time>2020-08-11T13:05:55Z</time><name>PT419</name></trkpt>
<trkpt lat="54.666944" lon="-3.182507"><ele>202</ele><time>2020-08-11T13:06:00Z</time><name>PT420</name></trkpt>
<trkpt lat="54.666937" lon="-3.182445"><ele>203</ele><time>2020-08-11T13:06:03Z</time><name>PT421</name></trkpt>
<trkpt lat="54.666929" lon="-3.182400"><ele>205</ele><time>2020-08-11T13:06:07Z</time><name>PT422</name></trkpt>
<trkpt lat="54.666919" lon="-3.182345"><ele>206</ele><time>2020-08-11T13:06:12Z</time><name>PT423</name></trkpt>
<trkpt lat="54.666917" lon="-3.182293"><ele>206</ele><time>2020-08-11T13:06:15Z</time><name>PT424</name></trkpt>
<trkpt lat="54.666913" lon="-3.182239"><ele>205</ele><time>2020-08-11T13:06:18Z</time><name>PT425</name></trkpt>
<trkpt lat="54.666907" lon="-3.182190"><ele>206</ele><time>2020-08-11T13:06:22Z</time><name>PT426</name></trkpt>
<trkpt lat="54.666908" lon="-3.182152"><ele>207</ele><time>2020-08-11T13:06:26Z</time><name>PT427</name></trkpt>
<trkpt lat="54.666905" lon="-3.182108"><ele>207</ele><time>2020-08-11T13:06:29Z</time><name>PT428</name></trkpt>
<trkpt lat="54.666901" lon="-3.182042"><ele>208</ele><time>2020-08-11T13:06:33Z</time><name>PT429</name></trkpt>
<trkpt lat="54.666891" lon="-3.181984"><ele>210</ele><time>2020-08-11T13:06:36Z</time><name>PT430</name></trkpt>
<trkpt lat="54.666892" lon="-3.181924"><ele>210</ele><time>2020-08-11T13:06:40Z</time><name>PT431</name></trkpt>
<trkpt lat="54.666889" lon="-3.181884"><ele>210</ele><time>2020-08-11T13:06:43Z</time><name>PT432</name></trkpt>
<trkpt lat="54.666891" lon="-3.181845"><ele>211</ele><time>2020-08-11T13:06:46Z</time><name>PT433</name></trkpt>
<trkpt lat="54.666889" lon="-3.181793"><ele>212</ele><time>2020-08-11T13:06:51Z</time><name>PT434</name></trkpt>
<trkpt lat="54.666894" lon="-3.181754"><ele>213</ele><time>2020-08-11T13:06:54Z</time><name>PT435</name></trkpt>
<trkpt lat="54.666901" lon="-3.181689"><ele>214</ele><time>2020-08-11T13:06:57Z</time><name>PT436</name></trkpt>
<trkpt lat="54.666922" lon="-3.181632"><ele>214</ele><time>2020-08-11T13:07:01Z</time><name>PT437</name></trkpt>
<trkpt lat="54.666935" lon="-3.181580"><ele>213</ele><time>2020-08-11T13:07:04Z</time><name>PT438</name></trkpt>
<trkpt lat="54.666951" lon="-3.181539"><ele>213</ele><time>2020-08-11T13:07:07Z</time><name>PT439</name></trkpt>
<trkpt lat="54.666977" lon="-3.181499"><ele>214</ele><time>2020-08-11T13:07:12Z</time><name>PT440</name></trkpt>
<trkpt lat="54.666989" lon="-3.181459"><ele>215</ele><time>2020-08-11T13:07:15Z</time><name>PT441</name></trkpt>
<trkpt lat="54.667006" lon="-3.181418"><ele>216</ele><time>2020-08-11T13:07:18Z</time><name>PT442</name></trkpt>
<trkpt lat="54.667019" lon="-3.181376"><ele>217</ele><time>2020-08-11T13:07:21Z</time><name>PT443</name></trkpt>
<trkpt lat="54.667032" lon="-3.181342"><ele>217</ele><time>2020-08-11T13:07:24Z</time><name>PT444</name></trkpt>
<trkpt lat="54.667043" lon="-3.181291"><ele>218</ele><time>2020-08-11T13:07:27Z</time><name>PT445</name></trkpt>
<trkpt lat="54.667055" lon="-3.181253"><ele>219</ele><time>2020-08-11T13:07:30Z</time><name>PT446</name></trkpt>
<trkpt lat="54.667075" lon="-3.181217"><ele>220</ele><time>2020-08-11T13:07:33Z</time><name>PT447</name></trkpt>
<trkpt lat="54.667090" lon="-3.181179"><ele>220</ele><time>2020-08-11T13:07:36Z</time><name>PT448</name></trkpt>
<trkpt lat="54.667108" lon="-3.181139"><ele>220</ele><time>2020-08-11T13:07:39Z</time><name>PT449</name></trkpt>
<trkpt lat="54.667126" lon="-3.181106"><ele>221</ele><time>2020-08-11T13:07:43Z</time><name>PT450</name></trkpt>
<trkpt lat="54.667150" lon="-3.181054"><ele>221</ele><time>2020-08-11T13:07:47Z</time><name>PT451</name></trkpt>
<trkpt lat="54.667172" lon="-3.181009"><ele>222</ele><time>2020-08-11T13:07:51Z</time><name>PT452</name></trkpt>
<trkpt lat="54.667187" lon="-3.180984"><ele>223</ele><time>2020-08-11T13:07:54Z</time><name>PT453</name></trkpt>
<trkpt lat="54.667211" lon="-3.180956"><ele>223</ele><time>2020-08-11T13:07:57Z</time><name>PT454</name></trkpt>
<trkpt lat="54.667213" lon="-3.180943"><ele>223</ele><time>2020-08-11T13:07:57Z</time><name>PT455</name></trkpt>
<trkpt lat="54.667218" lon="-3.180937"><ele>222</ele><time>2020-08-11T13:07:58Z</time><name>PT456</name></trkpt>
<trkpt lat="54.667219" lon="-3.180934"><ele>222</ele><time>2020-08-11T13:08:00Z</time><name>PT457</name></trkpt>
<trkpt lat="54.667219" lon="-3.180933"><ele>222</ele><time>2020-08-11T13:08:00Z</time><name>PT458</name></trkpt>
<trkpt lat="54.667219" lon="-3.180935"><ele>222</ele><time>2020-08-11T13:08:01Z</time><name>PT459</name></trkpt>
<trkpt lat="54.667221" lon="-3.180937"><ele>222</ele><time>2020-08-11T13:08:03Z</time><name>PT460</name></trkpt>
<trkpt lat="54.667223" lon="-3.180929"><ele>222</ele><time>2020-08-11T13:08:03Z</time><name>PT461</name></trkpt>
<trkpt lat="54.667224" lon="-3.180923"><ele>222</ele><time>2020-08-11T13:08:05Z</time><name>PT462</name></trkpt>
<trkpt lat="54.667225" lon="-3.180922"><ele>222</ele><time>2020-08-11T13:08:06Z</time><name>PT463</name></trkpt>
<trkpt lat="54.667224" lon="-3.180919"><ele>223</ele><time>2020-08-11T13:08:07Z</time><name>PT464</name></trkpt>
<trkpt lat="54.667227" lon="-3.180911"><ele>223</ele><time>2020-08-11T13:08:08Z</time><name>PT465</name></trkpt>
<trkpt lat="54.667230" lon="-3.180905"><ele>223</ele><time>2020-08-11T13:08:09Z</time><name>PT466</name></trkpt>
<trkpt lat="54.667232" lon="-3.180898"><ele>223</ele><time>2020-08-11T13:08:09Z</time><name>PT467</name></trkpt>
<trkpt lat="54.667232" lon="-3.180903"><ele>223</ele><time>2020-08-11T13:08:11Z</time><name>PT468</name></trkpt>
<trkpt lat="54.667230" lon="-3.180904"><ele>223</ele><time>2020-08-11T13:08:12Z</time><name>PT469</name></trkpt>
<trkpt lat="54.667228" lon="-3.180898"><ele>223</ele><time>2020-08-11T13:08:13Z</time><name>PT470</name></trkpt>
<trkpt lat="54.667232" lon="-3.180885"><ele>223</ele><time>2020-08-11T13:08:13Z</time><name>PT471</name></trkpt>
<trkpt lat="54.667238" lon="-3.180872"><ele>223</ele><time>2020-08-11T13:08:15Z</time><name>PT472</name></trkpt>
<trkpt lat="54.667247" lon="-3.180861"><ele>224</ele><time>2020-08-11T13:08:16Z</time><name>PT473</name></trkpt>
<trkpt lat="54.667254" lon="-3.180849"><ele>223</ele><time>2020-08-11T13:08:17Z</time><name>PT474</name></trkpt>
<trkpt lat="54.667259" lon="-3.180838"><ele>223</ele><time>2020-08-11T13:08:18Z</time><name>PT475</name></trkpt>
<trkpt lat="54.667265" lon="-3.180823"><ele>223</ele><time>2020-08-11T13:08:19Z</time><name>PT476</name></trkpt>
<trkpt lat="54.667271" lon="-3.180807"><ele>223</ele><time>2020-08-11T13:08:19Z</time><name>PT477</name></trkpt>
<trkpt lat="54.667277" lon="-3.180786"><ele>224</ele><time>2020-08-11T13:08:21Z</time><name>PT478</name></trkpt>
<trkpt lat="54.667283" lon="-3.180767"><ele>224</ele><time>2020-08-11T13:08:21Z</time><name>PT479</name></trkpt>
<trkpt lat="54.667288" lon="-3.180755"><ele>224</ele><time>2020-08-11T13:08:23Z</time><name>PT480</name></trkpt>
<trkpt lat="54.667291" lon="-3.180738"><ele>224</ele><time>2020-08-11T13:08:24Z</time><name>PT481</name></trkpt>
<trkpt lat="54.667297" lon="-3.180726"><ele>224</ele><time>2020-08-11T13:08:24Z</time><name>PT482</name></trkpt>
<trkpt lat="54.667305" lon="-3.180711"><ele>224</ele><time>2020-08-11T13:08:26Z</time><name>PT483</name></trkpt>
<trkpt lat="54.667314" lon="-3.180698"><ele>224</ele><time>2020-08-11T13:08:27Z</time><name>PT484</name></trkpt>
<trkpt lat="54.667318" lon="-3.180686"><ele>224</ele><time>2020-08-11T13:08:28Z</time><name>PT485</name></trkpt>
<trkpt lat="54.667322" lon="-3.180672"><ele>224</ele><time>2020-08-11T13:08:29Z</time><name>PT486</name></trkpt>
<trkpt lat="54.667323" lon="-3.180658"><ele>224</ele><time>2020-08-11T13:08:30Z</time><name>PT487</name></trkpt>
<trkpt lat="54.667330" lon="-3.180643"><ele>225</ele><time>2020-08-11T13:08:31Z</time><name>PT488</name></trkpt>
<trkpt lat="54.667336" lon="-3.180628"><ele>225</ele><time>2020-08-11T13:08:32Z</time><name>PT489</name></trkpt>
<trkpt lat="54.667340" lon="-3.180614"><ele>224</ele><time>2020-08-11T13:08:33Z</time><name>PT490</name></trkpt>
<trkpt lat="54.667343" lon="-3.180599"><ele>225</ele><time>2020-08-11T13:08:34Z</time><name>PT491</name></trkpt>
<trkpt lat="54.667349" lon="-3.180584"><ele>225</ele><time>2020-08-11T13:08:34Z</time><name>PT492</name></trkpt>
<trkpt lat="54.667356" lon="-3.180568"><ele>225</ele><time>2020-08-11T13:08:36Z</time><name>PT493</name></trkpt>
<trkpt lat="54.667361" lon="-3.180553"><ele>225</ele><time>2020-08-11T13:08:36Z</time><name>PT494</name></trkpt>
<trkpt lat="54.667364" lon="-3.180542"><ele>225</ele><time>2020-08-11T13:08:37Z</time><name>PT495</name></trkpt>
<trkpt lat="54.667368" lon="-3.180527"><ele>225</ele><time>2020-08-11T13:08:39Z</time><name>PT496</name></trkpt>
<trkpt lat="54.667374" lon="-3.180510"><ele>225</ele><time>2020-08-11T13:08:39Z</time><name>PT497</name></trkpt>
<trkpt lat="54.667380" lon="-3.180495"><ele>226</ele><time>2020-08-11T13:08:41Z</time><name>PT498</name></trkpt>
<trkpt lat="54.667386" lon="-3.180485"><ele>226</ele><time>2020-08-11T13:08:42Z</time><name>PT499</name></trkpt>
<trkpt lat="54.667389" lon="-3.180465"><ele>226</ele><time>2020-08-11T13:08:42Z</time><name>PT500</name></trkpt>
<trkpt lat="54.667394" lon="-3.180446"><ele>225</ele><time>2020-08-11T13:08:43Z</time><name>PT501</name></trkpt>
<trkpt lat="54.667397" lon="-3.180424"><ele>225</ele><time>2020-08-11T13:08:45Z</time><name>PT502</name></trkpt>
<trkpt lat="54.667403" lon="-3.180408"><ele>226</ele><time>2020-08-11T13:08:45Z</time><name>PT503</name></trkpt>
<trkpt lat="54.667407" lon="-3.180395"><ele>226</ele><time>2020-08-11T13:08:46Z</time><name>PT504</name></trkpt>
<trkpt lat="54.667408" lon="-3.180379"><ele>226</ele><time>2020-08-11T13:08:48Z</time><name>PT505</name></trkpt>
<trkpt lat="54.667411" lon="-3.180363"><ele>226</ele><time>2020-08-11T13:08:48Z</time><name>PT506</name></trkpt>
<trkpt lat="54.667414" lon="-3.180347"><ele>227</ele><time>2020-08-11T13:08:50Z</time><name>PT507</name></trkpt>
<trkpt lat="54.667417" lon="-3.180333"><ele>227</ele><time>2020-08-11T13:08:51Z</time><name>PT508</name></trkpt>
<trkpt lat="54.667418" lon="-3.180322"><ele>227</ele><time>2020-08-11T13:08:51Z</time><name>PT509</name></trkpt>
<trkpt lat="54.667420" lon="-3.180306"><ele>228</ele><time>2020-08-11T13:08:52Z</time><name>PT510</name></trkpt>
<trkpt lat="54.667423" lon="-3.180286"><ele>228</ele><time>2020-08-11T13:08:54Z</time><name>PT511</name></trkpt>
<trkpt lat="54.667427" lon="-3.180269"><ele>229</ele><time>2020-08-11T13:08:54Z</time><name>PT512</name></trkpt>
<trkpt lat="54.667430" lon="-3.180255"><ele>229</ele><time>2020-08-11T13:08:56Z</time><name>PT513</name></trkpt>
<trkpt lat="54.667431" lon="-3.180241"><ele>229</ele><time>2020-08-11T13:08:57Z</time><name>PT514</name></trkpt>
<trkpt lat="54.667436" lon="-3.180232"><ele>230</ele><time>2020-08-11T13:08:58Z</time><name>PT515</name></trkpt>
<trkpt lat="54.667441" lon="-3.180218"><ele>230</ele><time>2020-08-11T13:08:58Z</time><name>PT516</name></trkpt>
<trkpt lat="54.667444" lon="-3.180203"><ele>230</ele><time>2020-08-11T13:09:00Z</time><name>PT517</name></trkpt>
<trkpt lat="54.667445" lon="-3.180188"><ele>230</ele><time>2020-08-11T13:09:01Z</time><name>PT518</name></trkpt>
<trkpt lat="54.667448" lon="-3.180173"><ele>230</ele><time>2020-08-11T13:09:01Z</time><name>PT519</name></trkpt>
<trkpt lat="54.667450" lon="-3.180152"><ele>231</ele><time>2020-08-11T13:09:03Z</time><name>PT520</name></trkpt>
<trkpt lat="54.667452" lon="-3.180131"><ele>231</ele><time>2020-08-11T13:09:03Z</time><name>PT521</name></trkpt>
<trkpt lat="54.667455" lon="-3.180122"><ele>231</ele><time>2020-08-11T13:09:05Z</time><name>PT522</name></trkpt>
<trkpt lat="54.667457" lon="-3.180108"><ele>231</ele><time>2020-08-11T13:09:06Z</time><name>PT523</name></trkpt>
<trkpt lat="54.667460" lon="-3.180089"><ele>231</ele><time>2020-08-11T13:09:06Z</time><name>PT524</name></trkpt>
<trkpt lat="54.667465" lon="-3.180070"><ele>231</ele><time>2020-08-11T13:09:07Z</time><name>PT525</name></trkpt>
<trkpt lat="54.667468" lon="-3.180054"><ele>231</ele><time>2020-08-11T13:09:09Z</time><name>PT526</name></trkpt>
<trkpt lat="54.667470" lon="-3.180038"><ele>231</ele><time>2020-08-11T13:09:09Z</time><name>PT527</name></trkpt>
<trkpt lat="54.667470" lon="-3.180014"><ele>230</ele><time>2020-08-11T13:09:10Z</time><name>PT528</name></trkpt>
<trkpt lat="54.667473" lon="-3.179997"><ele>231</ele><time>2020-08-11T13:09:12Z</time><name>PT529</name></trkpt>
<trkpt lat="54.667477" lon="-3.179980"><ele>231</ele><time>2020-08-11T13:09:12Z</time><name>PT530</name></trkpt>
<trkpt lat="54.667481" lon="-3.179964"><ele>232</ele><time>2020-08-11T13:09:14Z</time><name>PT531</name></trkpt>
<trkpt lat="54.667483" lon="-3.179946"><ele>232</ele><time>2020-08-11T13:09:15Z</time><name>PT532</name></trkpt>
<trkpt lat="54.667486" lon="-3.179930"><ele>232</ele><time>2020-08-11T13:09:15Z</time><name>PT533</name></trkpt>
<trkpt lat="54.667489" lon="-3.179914"><ele>233</ele><time>2020-08-11T13:09:16Z</time><name>PT534</name></trkpt>
<trkpt lat="54.667493" lon="-3.179884"><ele>233</ele><time>2020-08-11T13:09:18Z</time><name>PT535</name></trkpt>
<trkpt lat="54.667496" lon="-3.179867"><ele>233</ele><time>2020-08-11T13:09:20Z</time><name>PT536</name></trkpt>
<trkpt lat="54.667502" lon="-3.179851"><ele>234</ele><time>2020-08-11T13:09:21Z</time><name>PT537</name></trkpt>
<trkpt lat="54.667508" lon="-3.179835"><ele>234</ele><time>2020-08-11T13:09:21Z</time><name>PT538</name></trkpt>
<trkpt lat="54.667513" lon="-3.179824"><ele>234</ele><time>2020-08-11T13:09:22Z</time><name>PT539</name></trkpt>
<trkpt lat="54.667517" lon="-3.179809"><ele>234</ele><time>2020-08-11T13:09:24Z</time><name>PT540</name></trkpt>
<trkpt lat="54.667519" lon="-3.179789"><ele>235</ele><time>2020-08-11T13:09:24Z</time><name>PT541</name></trkpt>
<trkpt lat="54.667525" lon="-3.179757"><ele>236</ele><time>2020-08-11T13:09:27Z</time><name>PT542</name></trkpt>
<trkpt lat="54.667527" lon="-3.179743"><ele>236</ele><time>2020-08-11T13:09:27Z</time><name>PT543</name></trkpt>
<trkpt lat="54.667530" lon="-3.179727"><ele>236</ele><time>2020-08-11T13:09:29Z</time><name>PT544</name></trkpt>
<trkpt lat="54.667534" lon="-3.179713"><ele>236</ele><time>2020-08-11T13:09:30Z</time><name>PT545</name></trkpt>
<trkpt lat="54.667537" lon="-3.179698"><ele>237</ele><time>2020-08-11T13:09:30Z</time><name>PT546</name></trkpt>
<trkpt lat="54.667538" lon="-3.179678"><ele>237</ele><time>2020-08-11T13:09:31Z</time><name>PT547</name></trkpt>
<trkpt lat="54.667538" lon="-3.179665"><ele>237</ele><time>2020-08-11T13:09:33Z</time><name>PT548</name></trkpt>
<trkpt lat="54.667540" lon="-3.179650"><ele>237</ele><time>2020-08-11T13:09:33Z</time><name>PT549</name></trkpt>
<trkpt lat="54.667545" lon="-3.179637"><ele>238</ele><time>2020-08-11T13:09:35Z</time><name>PT550</name></trkpt>
<trkpt lat="54.667549" lon="-3.179622"><ele>238</ele><time>2020-08-11T13:09:36Z</time><name>PT551</name></trkpt>
<trkpt lat="54.667551" lon="-3.179607"><ele>238</ele><time>2020-08-11T13:09:36Z</time><name>PT552</name></trkpt>
<trkpt lat="54.667551" lon="-3.179590"><ele>238</ele><time>2020-08-11T13:09:37Z</time><name>PT553</name></trkpt>
<trkpt lat="54.667553" lon="-3.179573"><ele>238</ele><time>2020-08-11T13:09:39Z</time><name>PT554</name></trkpt>
<trkpt lat="54.667557" lon="-3.179558"><ele>238</ele><time>2020-08-11T13:09:39Z</time><name>PT555</name></trkpt>
<trkpt lat="54.667563" lon="-3.179539"><ele>238</ele><time>2020-08-11T13:09:40Z</time><name>PT556</name></trkpt>
<trkpt lat="54.667567" lon="-3.179525"><ele>238</ele><time>2020-08-11T13:09:42Z</time><name>PT557</name></trkpt>
<trkpt lat="54.667570" lon="-3.179510"><ele>238</ele><time>2020-08-11T13:09:42Z</time><name>PT558</name></trkpt>
<trkpt lat="54.667574" lon="-3.179492"><ele>238</ele><time>2020-08-11T13:09:44Z</time><name>PT559</name></trkpt>
<trkpt lat="54.667579" lon="-3.179475"><ele>238</ele><time>2020-08-11T13:09:45Z</time><name>PT560</name></trkpt>
<trkpt lat="54.667582" lon="-3.179456"><ele>238</ele><time>2020-08-11T13:09:45Z</time><name>PT561</name></trkpt>
<trkpt lat="54.667585" lon="-3.179446"><ele>238</ele><time>2020-08-11T13:09:46Z</time><name>PT562</name></trkpt>
<trkpt lat="54.667589" lon="-3.179432"><ele>238</ele><time>2020-08-11T13:09:48Z</time><name>PT563</name></trkpt>
<trkpt lat="54.667592" lon="-3.179417"><ele>239</ele><time>2020-08-11T13:09:48Z</time><name>PT564</name></trkpt>
<trkpt lat="54.667595" lon="-3.179401"><ele>239</ele><time>2020-08-11T13:09:50Z</time><name>PT565</name></trkpt>
<trkpt lat="54.667597" lon="-3.179388"><ele>239</ele><time>2020-08-11T13:09:51Z</time><name>PT566</name></trkpt>
<trkpt lat="54.667599" lon="-3.179375"><ele>239</ele><time>2020-08-11T13:09:51Z</time><name>PT567</name></trkpt>
<trkpt lat="54.667603" lon="-3.179359"><ele>239</ele><time>2020-08-11T13:09:53Z</time><name>PT568</name></trkpt>
<trkpt lat="54.667607" lon="-3.179343"><ele>239</ele><time>2020-08-11T13:09:54Z</time><name>PT569</name></trkpt>
<trkpt lat="54.667612" lon="-3.179331"><ele>239</ele><time>2020-08-11T13:09:54Z</time><name>PT570</name></trkpt>
<trkpt lat="54.667615" lon="-3.179321"><ele>239</ele><time>2020-08-11T13:09:55Z</time><name>PT571</name></trkpt>
<trkpt lat="54.667621" lon="-3.179308"><ele>239</ele><time>2020-08-11T13:09:57Z</time><name>PT572</name></trkpt>
<trkpt lat="54.667629" lon="-3.179294"><ele>239</ele><time>2020-08-11T13:09:58Z</time><name>PT573</name></trkpt>
<trkpt lat="54.667635" lon="-3.179282"><ele>239</ele><time>2020-08-11T13:09:59Z</time><name>PT574</name></trkpt>
<trkpt lat="54.667636" lon="-3.179272"><ele>239</ele><time>2020-08-11T13:10:00Z</time><name>PT575</name></trkpt>
<trkpt lat="54.667636" lon="-3.179260"><ele>239</ele><time>2020-08-11T13:10:00Z</time><name>PT576</name></trkpt>
<trkpt lat="54.667636" lon="-3.179243"><ele>239</ele><time>2020-08-11T13:10:01Z</time><name>PT577</name></trkpt>
<trkpt lat="54.667641" lon="-3.179229"><ele>239</ele><time>2020-08-11T13:10:03Z</time><name>PT578</name></trkpt>
<trkpt lat="54.667646" lon="-3.179229"><ele>239</ele><time>2020-08-11T13:10:03Z</time><name>PT579</name></trkpt>
<trkpt lat="54.667647" lon="-3.179228"><ele>239</ele><time>2020-08-11T13:10:05Z</time><name>PT580</name></trkpt>
<trkpt lat="54.667648" lon="-3.179223"><ele>238</ele><time>2020-08-11T13:10:06Z</time><name>PT581</name></trkpt>
<trkpt lat="54.667653" lon="-3.179219"><ele>239</ele><time>2020-08-11T13:10:06Z</time><name>PT582</name></trkpt>
<trkpt lat="54.667655" lon="-3.179218"><ele>239</ele><time>2020-08-11T13:10:07Z</time><name>PT583</name></trkpt>
<trkpt lat="54.667655" lon="-3.179220"><ele>239</ele><time>2020-08-11T13:10:10Z</time><name>PT584</name></trkpt>
<trkpt lat="54.667656" lon="-3.179214"><ele>239</ele><time>2020-08-11T13:10:11Z</time><name>PT585</name></trkpt>
<trkpt lat="54.667655" lon="-3.179211"><ele>239</ele><time>2020-08-11T13:10:12Z</time><name>PT586</name></trkpt>
<trkpt lat="54.667658" lon="-3.179211"><ele>239</ele><time>2020-08-11T13:10:13Z</time><name>PT587</name></trkpt>
<trkpt lat="54.667655" lon="-3.179205"><ele>239</ele><time>2020-08-11T13:10:13Z</time><name>PT588</name></trkpt>
<trkpt lat="54.667652" lon="-3.179198"><ele>239</ele><time>2020-08-11T13:10:15Z</time><name>PT589</name></trkpt>
<trkpt lat="54.667651" lon="-3.179181"><ele>239</ele><time>2020-08-11T13:10:15Z</time><name>PT590</name></trkpt>
<trkpt lat="54.667649" lon="-3.179167"><ele>239</ele><time>2020-08-11T13:10:16Z</time><name>PT591</name></trkpt>
<trkpt lat="54.667647" lon="-3.179153"><ele>239</ele><time>2020-08-11T13:10:18Z</time><name>PT592</name></trkpt>
<trkpt lat="54.667646" lon="-3.179137"><ele>239</ele><time>2020-08-11T13:10:18Z</time><name>PT593</name></trkpt>
<trkpt lat="54.667644" lon="-3.179122"><ele>240</ele><time>2020-08-11T13:10:20Z</time><name>PT594</name></trkpt>
<trkpt lat="54.667643" lon="-3.179105"><ele>240</ele><time>2020-08-11T13:10:21Z</time><name>PT595</name></trkpt>
<trkpt lat="54.667642" lon="-3.179085"><ele>240</ele><time>2020-08-11T13:10:21Z</time><name>PT596</name></trkpt>
<trkpt lat="54.667638" lon="-3.179067"><ele>240</ele><time>2020-08-11T13:10:22Z</time><name>PT597</name></trkpt>
<trkpt lat="54.667635" lon="-3.179056"><ele>240</ele><time>2020-08-11T13:10:24Z</time><name>PT598</name></trkpt>
<trkpt lat="54.667630" lon="-3.179046"><ele>240</ele><time>2020-08-11T13:10:24Z</time><name>PT599</name></trkpt>
<trkpt lat="54.667628" lon="-3.179029"><ele>241</ele><time>2020-08-11T13:10:25Z</time><name>PT600</name></trkpt>
<trkpt lat="54.667624" lon="-3.179010"><ele>241</ele><time>2020-08-11T13:10:27Z</time><name>PT601</name></trkpt>
<trkpt lat="54.667622" lon="-3.178994"><ele>241</ele><time>2020-08-11T13:10:27Z</time><name>PT602</name></trkpt>
<trkpt lat="54.667619" lon="-3.178977"><ele>241</ele><time>2020-08-11T13:10:28Z</time><name>PT603</name></trkpt>
<trkpt lat="54.667616" lon="-3.178961"><ele>241</ele><time>2020-08-11T13:10:30Z</time><name>PT604</name></trkpt>
<trkpt lat="54.667614" lon="-3.178946"><ele>241</ele><time>2020-08-11T13:10:30Z</time><name>PT605</name></trkpt>
<trkpt lat="54.667610" lon="-3.178929"><ele>241</ele><time>2020-08-11T13:10:31Z</time><name>PT606</name></trkpt>
<trkpt lat="54.667607" lon="-3.178918"><ele>242</ele><time>2020-08-11T13:10:33Z</time><name>PT607</name></trkpt>
<trkpt lat="54.667604" lon="-3.178906"><ele>242</ele><time>2020-08-11T13:10:33Z</time><name>PT608</name></trkpt>
<trkpt lat="54.667600" lon="-3.178888"><ele>242</ele><time>2020-08-11T13:10:35Z</time><name>PT609</name></trkpt>
<trkpt lat="54.667597" lon="-3.178869"><ele>242</ele><time>2020-08-11T13:10:36Z</time><name>PT610</name></trkpt>
<trkpt lat="54.667595" lon="-3.178849"><ele>242</ele><time>2020-08-11T13:10:36Z</time><name>PT611</name></trkpt>
<trkpt lat="54.667596" lon="-3.178834"><ele>241</ele><time>2020-08-11T13:10:38Z</time><name>PT612</name></trkpt>
<trkpt lat="54.667593" lon="-3.178823"><ele>241</ele><time>2020-08-11T13:10:39Z</time><name>PT613</name></trkpt>
<trkpt lat="54.667589" lon="-3.178803"><ele>242</ele><time>2020-08-11T13:10:39Z</time><name>PT614</name></trkpt>
<trkpt lat="54.667586" lon="-3.178780"><ele>241</ele><time>2020-08-11T13:10:41Z</time><name>PT615</name></trkpt>
<trkpt lat="54.667585" lon="-3.178766"><ele>242</ele><time>2020-08-11T13:10:42Z</time><name>PT616</name></trkpt>
<trkpt lat="54.667584" lon="-3.178755"><ele>242</ele><time>2020-08-11T13:10:42Z</time><name>PT617</name></trkpt>
<trkpt lat="54.667580" lon="-3.178737"><ele>241</ele><time>2020-08-11T13:10:43Z</time><name>PT618</name></trkpt>
<trkpt lat="54.667576" lon="-3.178721"><ele>242</ele><time>2020-08-11T13:10:45Z</time><name>PT619</name></trkpt>
<trkpt lat="54.667574" lon="-3.178703"><ele>242</ele><time>2020-08-11T13:10:45Z</time><name>PT620</name></trkpt>
<trkpt lat="54.667573" lon="-3.178685"><ele>241</ele><time>2020-08-11T13:10:47Z</time><name>PT621</name></trkpt>
<trkpt lat="54.667569" lon="-3.178672"><ele>241</ele><time>2020-08-11T13:10:48Z</time><name>PT622</name></trkpt>
<trkpt lat="54.667566" lon="-3.178657"><ele>241</ele><time>2020-08-11T13:10:49Z</time><name>PT623</name></trkpt>
<trkpt lat="54.667563" lon="-3.178636"><ele>241</ele><time>2020-08-11T13:10:50Z</time><name>PT624</name></trkpt>
<trkpt lat="54.667560" lon="-3.178620"><ele>241</ele><time>2020-08-11T13:10:51Z</time><name>PT625</name></trkpt>
<trkpt lat="54.667554" lon="-3.178579"><ele>241</ele><time>2020-08-11T13:10:54Z</time><name>PT626</name></trkpt>
<trkpt lat="54.667554" lon="-3.178562"><ele>241</ele><time>2020-08-11T13:10:55Z</time><name>PT627</name></trkpt>
<trkpt lat="54.667555" lon="-3.178552"><ele>242</ele><time>2020-08-11T13:10:56Z</time><name>PT628</name></trkpt>
<trkpt lat="54.667552" lon="-3.178537"><ele>242</ele><time>2020-08-11T13:10:57Z</time><name>PT629</name></trkpt>
<trkpt lat="54.667550" lon="-3.178531"><ele>242</ele><time>2020-08-11T13:10:57Z</time><name>PT630</name></trkpt>
<trkpt lat="54.667548" lon="-3.178518"><ele>242</ele><time>2020-08-11T13:10:58Z</time><name>PT631</name></trkpt>
<trkpt lat="54.667544" lon="-3.178501"><ele>243</ele><time>2020-08-11T13:11:00Z</time><name>PT632</name></trkpt>
<trkpt lat="54.667541" lon="-3.178489"><ele>243</ele><time>2020-08-11T13:11:00Z</time><name>PT633</name></trkpt>
<trkpt lat="54.667537" lon="-3.178478"><ele>243</ele><time>2020-08-11T13:11:02Z</time><name>PT634</name></trkpt>
<trkpt lat="54.667533" lon="-3.178464"><ele>244</ele><time>2020-08-11T13:11:03Z</time><name>PT635</name></trkpt>
<trkpt lat="54.667529" lon="-3.178448"><ele>244</ele><time>2020-08-11T13:11:04Z</time><name>PT636</name></trkpt>
<trkpt lat="54.667524" lon="-3.178394"><ele>244</ele><time>2020-08-11T13:11:07Z</time><name>PT637</name></trkpt>
<trkpt lat="54.667506" lon="-3.178350"><ele>246</ele><time>2020-08-11T13:11:12Z</time><name>PT638</name></trkpt>
<trkpt lat="54.667482" lon="-3.178304"><ele>247</ele><time>2020-08-11T13:11:15Z</time><name>PT639</name></trkpt>
<trkpt lat="54.667459" lon="-3.178266"><ele>247</ele><time>2020-08-11T13:11:18Z</time><name>PT640</name></trkpt>
<trkpt lat="54.667433" lon="-3.178238"><ele>248</ele><time>2020-08-11T13:11:22Z</time><name>PT641</name></trkpt>
<trkpt lat="54.667409" lon="-3.178215"><ele>249</ele><time>2020-08-11T13:11:26Z</time><name>PT642</name></trkpt>
<trkpt lat="54.667383" lon="-3.178193"><ele>250</ele><time>2020-08-11T13:11:29Z</time><name>PT643</name></trkpt>
<trkpt lat="54.667363" lon="-3.178165"><ele>251</ele><time>2020-08-11T13:11:32Z</time><name>PT644</name></trkpt>
<trkpt lat="54.667333" lon="-3.178150"><ele>251</ele><time>2020-08-11T13:11:35Z</time><name>PT645</name></trkpt>
<trkpt lat="54.667299" lon="-3.178127"><ele>249</ele><time>2020-08-11T13:11:38Z</time><name>PT646</name></trkpt>
<trkpt lat="54.667265" lon="-3.178117"><ele>250</ele><time>2020-08-11T13:11:41Z</time><name>PT647</name></trkpt>
<trkpt lat="54.667226" lon="-3.178110"><ele>251</ele><time>2020-08-11T13:11:45Z</time><name>PT648</name></trkpt>
<trkpt lat="54.667183" lon="-3.178109"><ele>250</ele><time>2020-08-11T13:11:50Z</time><name>PT649</name></trkpt>
<trkpt lat="54.667150" lon="-3.178116"><ele>250</ele><time>2020-08-11T13:11:53Z</time><name>PT650</name></trkpt>
<trkpt lat="54.667113" lon="-3.178115"><ele>250</ele><time>2020-08-11T13:11:56Z</time><name>PT651</name></trkpt>
<trkpt lat="54.667083" lon="-3.178108"><ele>251</ele><time>2020-08-11T13:11:59Z</time><name>PT652</name></trkpt>
<trkpt lat="54.667045" lon="-3.178098"><ele>251</ele><time>2020-08-11T13:12:03Z</time><name>PT653</name></trkpt>
<trkpt lat="54.667009" lon="-3.178088"><ele>251</ele><time>2020-08-11T13:12:08Z</time><name>PT654</name></trkpt>
<trkpt lat="54.666977" lon="-3.178074"><ele>251</ele><time>2020-08-11T13:12:11Z</time><name>PT655</name></trkpt>
<trkpt lat="54.666936" lon="-3.178071"><ele>252</ele><time>2020-08-11T13:12:14Z</time><name>PT656</name></trkpt>
<trkpt lat="54.666895" lon="-3.178076"><ele>251</ele><time>2020-08-11T13:12:18Z</time><name>PT657</name></trkpt>
<trkpt lat="54.666853" lon="-3.178087"><ele>252</ele><time>2020-08-11T13:12:23Z</time><name>PT658</name></trkpt>
<trkpt lat="54.666812" lon="-3.178098"><ele>252</ele><time>2020-08-11T13:12:26Z</time><name>PT659</name></trkpt>
<trkpt lat="54.666770" lon="-3.178099"><ele>252</ele><time>2020-08-11T13:12:30Z</time><name>PT660</name></trkpt>
<trkpt lat="54.666728" lon="-3.178112"><ele>252</ele><time>2020-08-11T13:12:35Z</time><name>PT661</name></trkpt>
<trkpt lat="54.666689" lon="-3.178114"><ele>252</ele><time>2020-08-11T13:12:38Z</time><name>PT662</name></trkpt>
<trkpt lat="54.666660" lon="-3.178115"><ele>253</ele><time>2020-08-11T13:12:42Z</time><name>PT663</name></trkpt>
<trkpt lat="54.666620" lon="-3.178106"><ele>254</ele><time>2020-08-11T13:12:45Z</time><name>PT664</name></trkpt>
<trkpt lat="54.666574" lon="-3.178101"><ele>255</ele><time>2020-08-11T13:12:50Z</time><name>PT665</name></trkpt>
<trkpt lat="54.666544" lon="-3.178083"><ele>255</ele><time>2020-08-11T13:12:53Z</time><name>PT666</name></trkpt>
<trkpt lat="54.666497" lon="-3.178070"><ele>256</ele><time>2020-08-11T13:12:56Z</time><name>PT667</name></trkpt>
<trkpt lat="54.666459" lon="-3.178039"><ele>257</ele><time>2020-08-11T13:13:00Z</time><name>PT668</name></trkpt>
<trkpt lat="54.666428" lon="-3.178017"><ele>257</ele><time>2020-08-11T13:13:05Z</time><name>PT669</name></trkpt>
<trkpt lat="54.666403" lon="-3.177996"><ele>256</ele><time>2020-08-11T13:13:08Z</time><name>PT670</name></trkpt>
<trkpt lat="54.666365" lon="-3.177959"><ele>257</ele><time>2020-08-11T13:13:11Z</time><name>PT671</name></trkpt>
<trkpt lat="54.666341" lon="-3.177928"><ele>258</ele><time>2020-08-11T13:13:14Z</time><name>PT672</name></trkpt>
<trkpt lat="54.666312" lon="-3.177894"><ele>258</ele><time>2020-08-11T13:13:18Z</time><name>PT673</name></trkpt>
<trkpt lat="54.666280" lon="-3.177859"><ele>258</ele><time>2020-08-11T13:13:23Z</time><name>PT674</name></trkpt>
<trkpt lat="54.666250" lon="-3.177831"><ele>259</ele><time>2020-08-11T13:13:26Z</time><name>PT675</name></trkpt>
<trkpt lat="54.666224" lon="-3.177804"><ele>259</ele><time>2020-08-11T13:13:29Z</time><name>PT676</name></trkpt>
<trkpt lat="54.666190" lon="-3.177779"><ele>261</ele><time>2020-08-11T13:13:32Z</time><name>PT677</name></trkpt>
<trkpt lat="54.666152" lon="-3.177759"><ele>261</ele><time>2020-08-11T13:13:36Z</time><name>PT678</name></trkpt>
<trkpt lat="54.666104" lon="-3.177752"><ele>261</ele><time>2020-08-11T13:13:41Z</time><name>PT679</name></trkpt>
<trkpt lat="54.666082" lon="-3.177753"><ele>262</ele><time>2020-08-11T13:13:42Z</time><name>PT680</name></trkpt>
<trkpt lat="54.666070" lon="-3.177753"><ele>262</ele><time>2020-08-11T13:13:44Z</time><name>PT681</name></trkpt>
<trkpt lat="54.666060" lon="-3.177753"><ele>262</ele><time>2020-08-11T13:13:44Z</time><name>PT682</name></trkpt>
<trkpt lat="54.666049" lon="-3.177754"><ele>262</ele><time>2020-08-11T13:13:45Z</time><name>PT683</name></trkpt>
<trkpt lat="54.666037" lon="-3.177754"><ele>262</ele><time>2020-08-11T13:13:47Z</time><name>PT684</name></trkpt>
<trkpt lat="54.666026" lon="-3.177755"><ele>262</ele><time>2020-08-11T13:13:47Z</time><name>PT685</name></trkpt>
<trkpt lat="54.666014" lon="-3.177754"><ele>262</ele><time>2020-08-11T13:13:48Z</time><name>PT686</name></trkpt>
<trkpt lat="54.666003" lon="-3.177754"><ele>262</ele><time>2020-08-11T13:13:50Z</time><name>PT687</name></trkpt>
<trkpt lat="54.665992" lon="-3.177755"><ele>262</ele><time>2020-08-11T13:13:50Z</time><name>PT688</name></trkpt>
<trkpt lat="54.665981" lon="-3.177758"><ele>262</ele><time>2020-08-11T13:13:51Z</time><name>PT689</name></trkpt>
<trkpt lat="54.665970" lon="-3.177762"><ele>262</ele><time>2020-08-11T13:13:53Z</time><name>PT690</name></trkpt>
<trkpt lat="54.665959" lon="-3.177765"><ele>262</ele><time>2020-08-11T13:13:53Z</time><name>PT691</name></trkpt>
<trkpt lat="54.665949" lon="-3.177767"><ele>262</ele><time>2020-08-11T13:13:54Z</time><name>PT692</name></trkpt>
<trkpt lat="54.665937" lon="-3.177769"><ele>262</ele><time>2020-08-11T13:13:56Z</time><name>PT693</name></trkpt>
<trkpt lat="54.665927" lon="-3.177775"><ele>262</ele><time>2020-08-11T13:13:56Z</time><name>PT694</name></trkpt>
<trkpt lat="54.665915" lon="-3.177779"><ele>263</ele><time>2020-08-11T13:13:57Z</time><name>PT695</name></trkpt>
<trkpt lat="54.665904" lon="-3.177780"><ele>263</ele><time>2020-08-11T13:13:59Z</time><name>PT696</name></trkpt>
<trkpt lat="54.665892" lon="-3.177782"><ele>263</ele><time>2020-08-11T13:13:59Z</time><name>PT697</name></trkpt>
<trkpt lat="54.665880" lon="-3.177785"><ele>263</ele><time>2020-08-11T13:14:00Z</time><name>PT698</name></trkpt>
<trkpt lat="54.665868" lon="-3.177789"><ele>263</ele><time>2020-08-11T13:14:02Z</time><name>PT699</name></trkpt>
<trkpt lat="54.665857" lon="-3.177796"><ele>263</ele><time>2020-08-11T13:14:02Z</time><name>PT700</name></trkpt>
<trkpt lat="54.665846" lon="-3.177801"><ele>263</ele><time>2020-08-11T13:14:03Z</time><name>PT701</name></trkpt>
<trkpt lat="54.665836" lon="-3.177803"><ele>263</ele><time>2020-08-11T13:14:05Z</time><name>PT702</name></trkpt>
<trkpt lat="54.665826" lon="-3.177810"><ele>264</ele><time>2020-08-11T13:14:05Z</time><name>PT703</name></trkpt>
<trkpt lat="54.665816" lon="-3.177818"><ele>264</ele><time>2020-08-11T13:14:06Z</time><name>PT704</name></trkpt>
<trkpt lat="54.665805" lon="-3.177823"><ele>264</ele><time>2020-08-11T13:14:08Z</time><name>PT705</name></trkpt>
<trkpt lat="54.665794" lon="-3.177825"><ele>264</ele><time>2020-08-11T13:14:08Z</time><name>PT706</name></trkpt>
<trkpt lat="54.665783" lon="-3.177827"><ele>264</ele><time>2020-08-11T13:14:09Z</time><name>PT707</name></trkpt>
<trkpt lat="54.665773" lon="-3.177830"><ele>264</ele><time>2020-08-11T13:14:11Z</time><name>PT708</name></trkpt>
<trkpt lat="54.665762" lon="-3.177832"><ele>264</ele><time>2020-08-11T13:14:11Z</time><name>PT709</name></trkpt>
<trkpt lat="54.665750" lon="-3.177836"><ele>264</ele><time>2020-08-11T13:14:12Z</time><name>PT710</name></trkpt>
<trkpt lat="54.665739" lon="-3.177840"><ele>265</ele><time>2020-08-11T13:14:14Z</time><name>PT711</name></trkpt>
<trkpt lat="54.665728" lon="-3.177842"><ele>265</ele><time>2020-08-11T13:14:14Z</time><name>PT712</name></trkpt>
<trkpt lat="54.665716" lon="-3.177845"><ele>265</ele><time>2020-08-11T13:14:15Z</time><name>PT713</name></trkpt>
<trkpt lat="54.665706" lon="-3.177848"><ele>265</ele><time>2020-08-11T13:14:17Z</time><name>PT714</name></trkpt>
<trkpt lat="54.665695" lon="-3.177852"><ele>265</ele><time>2020-08-11T13:14:17Z</time><name>PT715</name></trkpt>
<trkpt lat="54.665684" lon="-3.177855"><ele>265</ele><time>2020-08-11T13:14:18Z</time><name>PT716</name></trkpt>
<trkpt lat="54.665672" lon="-3.177859"><ele>265</ele><time>2020-08-11T13:14:20Z</time><name>PT717</name></trkpt>
<trkpt lat="54.665663" lon="-3.177854"><ele>265</ele><time>2020-08-11T13:14:20Z</time><name>PT718</name></trkpt>
<trkpt lat="54.665656" lon="-3.177852"><ele>264</ele><time>2020-08-11T13:14:21Z</time><name>PT719</name></trkpt>
<trkpt lat="54.665649" lon="-3.177851"><ele>264</ele><time>2020-08-11T13:14:23Z</time><name>PT720</name></trkpt>
<trkpt lat="54.665645" lon="-3.177849"><ele>264</ele><time>2020-08-11T13:14:23Z</time><name>PT721</name></trkpt>
<trkpt lat="54.665644" lon="-3.177847"><ele>265</ele><time>2020-08-11T13:14:25Z</time><name>PT722</name></trkpt>
<trkpt lat="54.665643" lon="-3.177846"><ele>265</ele><time>2020-08-11T13:14:26Z</time><name>PT723</name></trkpt>
<trkpt lat="54.665635" lon="-3.177846"><ele>265</ele><time>2020-08-11T13:14:26Z</time><name>PT724</name></trkpt>
<trkpt lat="54.665627" lon="-3.177846"><ele>265</ele><time>2020-08-11T13:14:27Z</time><name>PT725</name></trkpt>
<trkpt lat="54.665623" lon="-3.177848"><ele>265</ele><time>2020-08-11T13:14:29Z</time><name>PT726</name></trkpt>
<trkpt lat="54.665621" lon="-3.177851"><ele>265</ele><time>2020-08-11T13:14:29Z</time><name>PT727</name></trkpt>
<trkpt lat="54.665618" lon="-3.177860"><ele>265</ele><time>2020-08-11T13:14:30Z</time><name>PT728</name></trkpt>
<trkpt lat="54.665609" lon="-3.177865"><ele>265</ele><time>2020-08-11T13:14:32Z</time><name>PT729</name></trkpt>
<trkpt lat="54.665601" lon="-3.177861"><ele>265</ele><time>2020-08-11T13:14:32Z</time><name>PT730</name></trkpt>
<trkpt lat="54.665593" lon="-3.177861"><ele>265</ele><time>2020-08-11T13:14:33Z</time><name>PT731</name></trkpt>
<trkpt lat="54.665585" lon="-3.177858"><ele>265</ele><time>2020-08-11T13:14:35Z</time><name>PT732</name></trkpt>
<trkpt lat="54.665576" lon="-3.177853"><ele>265</ele><time>2020-08-11T13:14:35Z</time><name>PT733</name></trkpt>
<trkpt lat="54.665565" lon="-3.177846"><ele>265</ele><time>2020-08-11T13:14:36Z</time><name>PT734</name></trkpt>
<trkpt lat="54.665544" lon="-3.177838"><ele>265</ele><time>2020-08-11T13:14:38Z</time><name>PT735</name></trkpt>
<trkpt lat="54.665533" lon="-3.177829"><ele>265</ele><time>2020-08-11T13:14:40Z</time><name>PT736</name></trkpt>
<trkpt lat="54.665525" lon="-3.177819"><ele>265</ele><time>2020-08-11T13:14:41Z</time><name>PT737</name></trkpt>
<trkpt lat="54.665513" lon="-3.177808"><ele>265</ele><time>2020-08-11T13:14:42Z</time><name>PT738</name></trkpt>
<trkpt lat="54.665501" lon="-3.177795"><ele>265</ele><time>2020-08-11T13:14:42Z</time><name>PT739</name></trkpt>
<trkpt lat="54.665494" lon="-3.177786"><ele>265</ele><time>2020-08-11T13:14:44Z</time><name>PT740</name></trkpt>
<trkpt lat="54.665488" lon="-3.177776"><ele>265</ele><time>2020-08-11T13:14:45Z</time><name>PT741</name></trkpt>
<trkpt lat="54.665479" lon="-3.177770"><ele>265</ele><time>2020-08-11T13:14:46Z</time><name>PT742</name></trkpt>
<trkpt lat="54.665468" lon="-3.177767"><ele>265</ele><time>2020-08-11T13:14:47Z</time><name>PT743</name></trkpt>
<trkpt lat="54.665459" lon="-3.177759"><ele>265</ele><time>2020-08-11T13:14:48Z</time><name>PT744</name></trkpt>
<trkpt lat="54.665447" lon="-3.177760"><ele>265</ele><time>2020-08-11T13:14:49Z</time><name>PT745</name></trkpt>
<trkpt lat="54.665438" lon="-3.177756"><ele>265</ele><time>2020-08-11T13:14:50Z</time><name>PT746</name></trkpt>
<trkpt lat="54.665427" lon="-3.177754"><ele>265</ele><time>2020-08-11T13:14:50Z</time><name>PT747</name></trkpt>
<trkpt lat="54.665414" lon="-3.177750"><ele>265</ele><time>2020-08-11T13:14:52Z</time><name>PT748</name></trkpt>
<trkpt lat="54.665403" lon="-3.177742"><ele>265</ele><time>2020-08-11T13:14:53Z</time><name>PT749</name></trkpt>
<trkpt lat="54.665392" lon="-3.177740"><ele>265</ele><time>2020-08-11T13:14:53Z</time><name>PT750</name></trkpt>
<trkpt lat="54.665382" lon="-3.177740"><ele>265</ele><time>2020-08-11T13:14:55Z</time><name>PT751</name></trkpt>
<trkpt lat="54.665371" lon="-3.177742"><ele>265</ele><time>2020-08-11T13:14:56Z</time><name>PT752</name></trkpt>
<trkpt lat="54.665360" lon="-3.177740"><ele>265</ele><time>2020-08-11T13:14:56Z</time><name>PT753</name></trkpt>
<trkpt lat="54.665347" lon="-3.177745"><ele>265</ele><time>2020-08-11T13:14:58Z</time><name>PT754</name></trkpt>
<trkpt lat="54.665335" lon="-3.177746"><ele>266</ele><time>2020-08-11T13:14:59Z</time><name>PT755</name></trkpt>
<trkpt lat="54.665324" lon="-3.177747"><ele>266</ele><time>2020-08-11T13:15:00Z</time><name>PT756</name></trkpt>
<trkpt lat="54.665313" lon="-3.177748"><ele>266</ele><time>2020-08-11T13:15:01Z</time><name>PT757</name></trkpt>
<trkpt lat="54.665302" lon="-3.177750"><ele>266</ele><time>2020-08-11T13:15:02Z</time><name>PT758</name></trkpt>
<trkpt lat="54.665288" lon="-3.177755"><ele>266</ele><time>2020-08-11T13:15:03Z</time><name>PT759</name></trkpt>
<trkpt lat="54.665276" lon="-3.177751"><ele>266</ele><time>2020-08-11T13:15:04Z</time><name>PT760</name></trkpt>
<trkpt lat="54.665265" lon="-3.177750"><ele>266</ele><time>2020-08-11T13:15:05Z</time><name>PT761</name></trkpt>
<trkpt lat="54.665256" lon="-3.177753"><ele>266</ele><time>2020-08-11T13:15:06Z</time><name>PT762</name></trkpt>
<trkpt lat="54.665247" lon="-3.177755"><ele>266</ele><time>2020-08-11T13:15:07Z</time><name>PT763</name></trkpt>
<trkpt lat="54.665234" lon="-3.177757"><ele>266</ele><time>2020-08-11T13:15:08Z</time><name>PT764</name></trkpt>
<trkpt lat="54.665220" lon="-3.177759"><ele>267</ele><time>2020-08-11T13:15:08Z</time><name>PT765</name></trkpt>
<trkpt lat="54.665205" lon="-3.177765"><ele>267</ele><time>2020-08-11T13:15:09Z</time><name>PT766</name></trkpt>
<trkpt lat="54.665194" lon="-3.177764"><ele>267</ele><time>2020-08-11T13:15:11Z</time><name>PT767</name></trkpt>
<trkpt lat="54.665181" lon="-3.177766"><ele>267</ele><time>2020-08-11T13:15:11Z</time><name>PT768</name></trkpt>
<trkpt lat="54.665171" lon="-3.177765"><ele>267</ele><time>2020-08-11T13:15:13Z</time><name>PT769</name></trkpt>
<trkpt lat="54.665158" lon="-3.177765"><ele>267</ele><time>2020-08-11T13:15:14Z</time><name>PT770</name></trkpt>
<trkpt lat="54.665141" lon="-3.177765"><ele>267</ele><time>2020-08-11T13:15:15Z</time><name>PT771</name></trkpt>
<trkpt lat="54.665130" lon="-3.177763"><ele>267</ele><time>2020-08-11T13:15:15Z</time><name>PT772</name></trkpt>
<trkpt lat="54.665120" lon="-3.177763"><ele>267</ele><time>2020-08-11T13:15:17Z</time><name>PT773</name></trkpt>
<trkpt lat="54.665110" lon="-3.177758"><ele>267</ele><time>2020-08-11T13:15:18Z</time><name>PT774</name></trkpt>
<trkpt lat="54.665099" lon="-3.177754"><ele>267</ele><time>2020-08-11T13:15:19Z</time><name>PT775</name></trkpt>
<trkpt lat="54.665086" lon="-3.177753"><ele>267</ele><time>2020-08-11T13:15:20Z</time><name>PT776</name></trkpt>
<trkpt lat="54.665076" lon="-3.177755"><ele>267</ele><time>2020-08-11T13:15:21Z</time><name>PT777</name></trkpt>
<trkpt lat="54.665068" lon="-3.177755"><ele>268</ele><time>2020-08-11T13:15:21Z</time><name>PT778</name></trkpt>
<trkpt lat="54.665057" lon="-3.177755"><ele>268</ele><time>2020-08-11T13:15:23Z</time><name>PT779</name></trkpt>
<trkpt lat="54.665047" lon="-3.177751"><ele>268</ele><time>2020-08-11T13:15:23Z</time><name>PT780</name></trkpt>
<trkpt lat="54.665036" lon="-3.177749"><ele>268</ele><time>2020-08-11T13:15:25Z</time><name>PT781</name></trkpt>
<trkpt lat="54.665023" lon="-3.177746"><ele>268</ele><time>2020-08-11T13:15:26Z</time><name>PT782</name></trkpt>
<trkpt lat="54.665010" lon="-3.177748"><ele>268</ele><time>2020-08-11T13:15:26Z</time><name>PT783</name></trkpt>
<trkpt lat="54.664999" lon="-3.177748"><ele>268</ele><time>2020-08-11T13:15:27Z</time><name>PT784</name></trkpt>
<trkpt lat="54.664985" lon="-3.177748"><ele>267</ele><time>2020-08-11T13:15:29Z</time><name>PT785</name></trkpt>
<trkpt lat="54.664973" lon="-3.177746"><ele>268</ele><time>2020-08-11T13:15:29Z</time><name>PT786</name></trkpt>
<trkpt lat="54.664962" lon="-3.177745"><ele>269</ele><time>2020-08-11T13:15:30Z</time><name>PT787</name></trkpt>
<trkpt lat="54.664952" lon="-3.177744"><ele>269</ele><time>2020-08-11T13:15:32Z</time><name>PT788</name></trkpt>
<trkpt lat="54.664939" lon="-3.177743"><ele>269</ele><time>2020-08-11T13:15:33Z</time><name>PT789</name></trkpt>
<trkpt lat="54.664927" lon="-3.177740"><ele>269</ele><time>2020-08-11T13:15:33Z</time><name>PT790</name></trkpt>
<trkpt lat="54.664917" lon="-3.177735"><ele>269</ele><time>2020-08-11T13:15:35Z</time><name>PT791</name></trkpt>
<trkpt lat="54.664904" lon="-3.177730"><ele>270</ele><time>2020-08-11T13:15:35Z</time><name>PT792</name></trkpt>
<trkpt lat="54.664890" lon="-3.177727"><ele>269</ele><time>2020-08-11T13:15:36Z</time><name>PT793</name></trkpt>
<trkpt lat="54.664879" lon="-3.177728"><ele>269</ele><time>2020-08-11T13:15:38Z</time><name>PT794</name></trkpt>
<trkpt lat="54.664869" lon="-3.177732"><ele>269</ele><time>2020-08-11T13:15:39Z</time><name>PT795</name></trkpt>
<trkpt lat="54.664855" lon="-3.177731"><ele>269</ele><time>2020-08-11T13:15:40Z</time><name>PT796</name></trkpt>
<trkpt lat="54.664832" lon="-3.177718"><ele>270</ele><time>2020-08-11T13:15:41Z</time><name>PT797</name></trkpt>
<trkpt lat="54.664820" lon="-3.177714"><ele>270</ele><time>2020-08-11T13:15:42Z</time><name>PT798</name></trkpt>
<trkpt lat="54.664806" lon="-3.177712"><ele>269</ele><time>2020-08-11T13:15:44Z</time><name>PT799</name></trkpt>
<trkpt lat="54.664794" lon="-3.177708"><ele>269</ele><time>2020-08-11T13:15:44Z</time><name>PT800</name></trkpt>
<trkpt lat="54.664782" lon="-3.177704"><ele>269</ele><time>2020-08-11T13:15:45Z</time><name>PT801</name></trkpt>
<trkpt lat="54.664767" lon="-3.177703"><ele>269</ele><time>2020-08-11T13:15:47Z</time><name>PT802</name></trkpt>
<trkpt lat="54.664753" lon="-3.177698"><ele>269</ele><time>2020-08-11T13:15:48Z</time><name>PT803</name></trkpt>
<trkpt lat="54.664743" lon="-3.177689"><ele>269</ele><time>2020-08-11T13:15:49Z</time><name>PT804</name></trkpt>
<trkpt lat="54.664733" lon="-3.177684"><ele>269</ele><time>2020-08-11T13:15:50Z</time><name>PT805</name></trkpt>
<trkpt lat="54.664720" lon="-3.177681"><ele>269</ele><time>2020-08-11T13:15:51Z</time><name>PT806</name></trkpt>
<trkpt lat="54.664699" lon="-3.177667"><ele>269</ele><time>2020-08-11T13:15:53Z</time><name>PT807</name></trkpt>
<trkpt lat="54.664686" lon="-3.177659"><ele>270</ele><time>2020-08-11T13:15:54Z</time><name>PT808</name></trkpt>
<trkpt lat="54.664675" lon="-3.177652"><ele>270</ele><time>2020-08-11T13:15:55Z</time><name>PT809</name></trkpt>
<trkpt lat="54.664667" lon="-3.177657"><ele>269</ele><time>2020-08-11T13:15:56Z</time><name>PT810</name></trkpt>
<trkpt lat="54.664656" lon="-3.177654"><ele>269</ele><time>2020-08-11T13:15:56Z</time><name>PT811</name></trkpt>
<trkpt lat="54.664645" lon="-3.177650"><ele>269</ele><time>2020-08-11T13:15:58Z</time><name>PT812</name></trkpt>
<trkpt lat="54.664635" lon="-3.177635"><ele>270</ele><time>2020-08-11T13:15:59Z</time><name>PT813</name></trkpt>
<trkpt lat="54.664623" lon="-3.177627"><ele>270</ele><time>2020-08-11T13:16:00Z</time><name>PT814</name></trkpt>
<trkpt lat="54.664615" lon="-3.177620"><ele>270</ele><time>2020-08-11T13:16:00Z</time><name>PT815</name></trkpt>
<trkpt lat="54.664603" lon="-3.177616"><ele>270</ele><time>2020-08-11T13:16:02Z</time><name>PT816</name></trkpt>
<trkpt lat="54.664593" lon="-3.177608"><ele>270</ele><time>2020-08-11T13:16:03Z</time><name>PT817</name></trkpt>
<trkpt lat="54.664583" lon="-3.177593"><ele>270</ele><time>2020-08-11T13:16:04Z</time><name>PT818</name></trkpt>
<trkpt lat="54.664571" lon="-3.177577"><ele>270</ele><time>2020-08-11T13:16:05Z</time><name>PT819</name></trkpt>
<trkpt lat="54.664560" lon="-3.177571"><ele>270</ele><time>2020-08-11T13:16:05Z</time><name>PT820</name></trkpt>
<trkpt lat="54.664548" lon="-3.177567"><ele>269</ele><time>2020-08-11T13:16:06Z</time><name>PT821</name></trkpt>
<trkpt lat="54.664537" lon="-3.177559"><ele>270</ele><time>2020-08-11T13:16:08Z</time><name>PT822</name></trkpt>
<trkpt lat="54.664529" lon="-3.177546"><ele>270</ele><time>2020-08-11T13:16:08Z</time><name>PT823</name></trkpt>
<trkpt lat="54.664519" lon="-3.177533"><ele>270</ele><time>2020-08-11T13:16:09Z</time><name>PT824</name></trkpt>
<trkpt lat="54.664508" lon="-3.177520"><ele>270</ele><time>2020-08-11T13:16:11Z</time><name>PT825</name></trkpt>
<trkpt lat="54.664498" lon="-3.177516"><ele>270</ele><time>2020-08-11T13:16:11Z</time><name>PT826</name></trkpt>
<trkpt lat="54.664484" lon="-3.177508"><ele>270</ele><time>2020-08-11T13:16:13Z</time><name>PT827</name></trkpt>
<trkpt lat="54.664471" lon="-3.177495"><ele>270</ele><time>2020-08-11T13:16:14Z</time><name>PT828</name></trkpt>
<trkpt lat="54.664461" lon="-3.177479"><ele>270</ele><time>2020-08-11T13:16:15Z</time><name>PT829</name></trkpt>
<trkpt lat="54.664450" lon="-3.177468"><ele>270</ele><time>2020-08-11T13:16:16Z</time><name>PT830</name></trkpt>
<trkpt lat="54.664438" lon="-3.177466"><ele>269</ele><time>2020-08-11T13:16:17Z</time><name>PT831</name></trkpt>
<trkpt lat="54.664430" lon="-3.177456"><ele>269</ele><time>2020-08-11T13:16:17Z</time><name>PT832</name></trkpt>
<trkpt lat="54.664423" lon="-3.177442"><ele>269</ele><time>2020-08-11T13:16:18Z</time><name>PT833</name></trkpt>
<trkpt lat="54.664414" lon="-3.177430"><ele>270</ele><time>2020-08-11T13:16:20Z</time><name>PT834</name></trkpt>
<trkpt lat="54.664403" lon="-3.177420"><ele>270</ele><time>2020-08-11T13:16:20Z</time><name>PT835</name></trkpt>
<trkpt lat="54.664392" lon="-3.177411"><ele>270</ele><time>2020-08-11T13:16:21Z</time><name>PT836</name></trkpt>
<trkpt lat="54.664383" lon="-3.177399"><ele>270</ele><time>2020-08-11T13:16:23Z</time><name>PT837</name></trkpt>
<trkpt lat="54.664363" lon="-3.177387"><ele>269</ele><time>2020-08-11T13:16:23Z</time><name>PT838</name></trkpt>
<trkpt lat="54.664350" lon="-3.177374"><ele>269</ele><time>2020-08-11T13:16:24Z</time><name>PT839</name></trkpt>
<trkpt lat="54.664341" lon="-3.177364"><ele>270</ele><time>2020-08-11T13:16:26Z</time><name>PT840</name></trkpt>
<trkpt lat="54.664330" lon="-3.177353"><ele>271</ele><time>2020-08-11T13:16:26Z</time><name>PT841</name></trkpt>
<trkpt lat="54.664319" lon="-3.177342"><ele>271</ele><time>2020-08-11T13:16:27Z</time><name>PT842</name></trkpt>
<trkpt lat="54.664309" lon="-3.177329"><ele>271</ele><time>2020-08-11T13:16:29Z</time><name>PT843</name></trkpt>
<trkpt lat="54.664297" lon="-3.177317"><ele>272</ele><time>2020-08-11T13:16:29Z</time><name>PT844</name></trkpt>
<trkpt lat="54.664286" lon="-3.177306"><ele>271</ele><time>2020-08-11T13:16:30Z</time><name>PT845</name></trkpt>
<trkpt lat="54.664276" lon="-3.177295"><ele>272</ele><time>2020-08-11T13:16:32Z</time><name>PT846</name></trkpt>
<trkpt lat="54.664267" lon="-3.177282"><ele>272</ele><time>2020-08-11T13:16:32Z</time><name>PT847</name></trkpt>
<trkpt lat="54.664257" lon="-3.177268"><ele>272</ele><time>2020-08-11T13:16:33Z</time><name>PT848</name></trkpt>
<trkpt lat="54.664248" lon="-3.177254"><ele>272</ele><time>2020-08-11T13:16:35Z</time><name>PT849</name></trkpt>
<trkpt lat="54.664238" lon="-3.177242"><ele>272</ele><time>2020-08-11T13:16:35Z</time><name>PT850</name></trkpt>
<trkpt lat="54.664229" lon="-3.177231"><ele>272</ele><time>2020-08-11T13:16:36Z</time><name>PT851</name></trkpt>
<trkpt lat="54.664221" lon="-3.177220"><ele>273</ele><time>2020-08-11T13:16:38Z</time><name>PT852</name></trkpt>
<trkpt lat="54.664214" lon="-3.177206"><ele>273</ele><time>2020-08-11T13:16:38Z</time><name>PT853</name></trkpt>
<trkpt lat="54.664205" lon="-3.177197"><ele>273</ele><time>2020-08-11T13:16:39Z</time><name>PT854</name></trkpt>
<trkpt lat="54.664195" lon="-3.177191"><ele>273</ele><time>2020-08-11T13:16:41Z</time><name>PT855</name></trkpt>
<trkpt lat="54.664184" lon="-3.177185"><ele>273</ele><time>2020-08-11T13:16:41Z</time><name>PT856</name></trkpt>
<trkpt lat="54.664175" lon="-3.177178"><ele>273</ele><time>2020-08-11T13:16:42Z</time><name>PT857</name></trkpt>
<trkpt lat="54.664167" lon="-3.177167"><ele>273</ele><time>2020-08-11T13:16:44Z</time><name>PT858</name></trkpt>
<trkpt lat="54.664158" lon="-3.177156"><ele>274</ele><time>2020-08-11T13:16:44Z</time><name>PT859</name></trkpt>
<trkpt lat="54.664148" lon="-3.177146"><ele>274</ele><time>2020-08-11T13:16:45Z</time><name>PT860</name></trkpt>
<trkpt lat="54.664140" lon="-3.177139"><ele>274</ele><time>2020-08-11T13:16:47Z</time><name>PT861</name></trkpt>
<trkpt lat="54.664132" lon="-3.177131"><ele>274</ele><time>2020-08-11T13:16:47Z</time><name>PT862</name></trkpt>
<trkpt lat="54.664119" lon="-3.177123"><ele>274</ele><time>2020-08-11T13:16:48Z</time><name>PT863</name></trkpt>
<trkpt lat="54.664109" lon="-3.177110"><ele>274</ele><time>2020-08-11T13:16:50Z</time><name>PT864</name></trkpt>
<trkpt lat="54.664101" lon="-3.177105"><ele>274</ele><time>2020-08-11T13:16:50Z</time><name>PT865</name></trkpt>
<trkpt lat="54.664095" lon="-3.177098"><ele>274</ele><time>2020-08-11T13:16:51Z</time><name>PT866</name></trkpt>
<trkpt lat="54.664089" lon="-3.177089"><ele>274</ele><time>2020-08-11T13:16:53Z</time><name>PT867</name></trkpt>
<trkpt lat="54.664079" lon="-3.177074"><ele>274</ele><time>2020-08-11T13:16:53Z</time><name>PT868</name></trkpt>
<trkpt lat="54.664077" lon="-3.177056"><ele>274</ele><time>2020-08-11T13:16:54Z</time><name>PT869</name></trkpt>
<trkpt lat="54.664072" lon="-3.177044"><ele>274</ele><time>2020-08-11T13:16:56Z</time><name>PT870</name></trkpt>
<trkpt lat="54.664065" lon="-3.177034"><ele>275</ele><time>2020-08-11T13:16:56Z</time><name>PT871</name></trkpt>
<trkpt lat="54.664061" lon="-3.177017"><ele>275</ele><time>2020-08-11T13:16:57Z</time><name>PT872</name></trkpt>
<trkpt lat="54.664053" lon="-3.176998"><ele>275</ele><time>2020-08-11T13:16:59Z</time><name>PT873</name></trkpt>
<trkpt lat="54.664045" lon="-3.176977"><ele>275</ele><time>2020-08-11T13:16:59Z</time><name>PT874</name></trkpt>
<trkpt lat="54.664040" lon="-3.176960"><ele>275</ele><time>2020-08-11T13:17:01Z</time><name>PT875</name></trkpt>
<trkpt lat="54.664034" lon="-3.176946"><ele>275</ele><time>2020-08-11T13:17:02Z</time><name>PT876</name></trkpt>
<trkpt lat="54.664030" lon="-3.176927"><ele>275</ele><time>2020-08-11T13:17:02Z</time><name>PT877</name></trkpt>
<trkpt lat="54.664025" lon="-3.176907"><ele>275</ele><time>2020-08-11T13:17:03Z</time><name>PT878</name></trkpt>
<trkpt lat="54.664020" lon="-3.176882"><ele>275</ele><time>2020-08-11T13:17:05Z</time><name>PT879</name></trkpt>
<trkpt lat="54.664012" lon="-3.176868"><ele>276</ele><time>2020-08-11T13:17:05Z</time><name>PT880</name></trkpt>
<trkpt lat="54.664007" lon="-3.176855"><ele>276</ele><time>2020-08-11T13:17:06Z</time><name>PT881</name></trkpt>
<trkpt lat="54.664002" lon="-3.176840"><ele>276</ele><time>2020-08-11T13:17:08Z</time><name>PT882</name></trkpt>
<trkpt lat="54.663993" lon="-3.176823"><ele>276</ele><time>2020-08-11T13:17:09Z</time><name>PT883</name></trkpt>
<trkpt lat="54.663985" lon="-3.176806"><ele>276</ele><time>2020-08-11T13:17:10Z</time><name>PT884</name></trkpt>
<trkpt lat="54.663979" lon="-3.176787"><ele>276</ele><time>2020-08-11T13:17:11Z</time><name>PT885</name></trkpt>
<trkpt lat="54.663973" lon="-3.176774"><ele>276</ele><time>2020-08-11T13:17:12Z</time><name>PT886</name></trkpt>
<trkpt lat="54.663967" lon="-3.176765"><ele>276</ele><time>2020-08-11T13:17:12Z</time><name>PT887</name></trkpt>
<trkpt lat="54.663961" lon="-3.176750"><ele>276</ele><time>2020-08-11T13:17:14Z</time><name>PT888</name></trkpt>
<trkpt lat="54.663949" lon="-3.176730"><ele>276</ele><time>2020-08-11T13:17:15Z</time><name>PT889</name></trkpt>
<trkpt lat="54.663943" lon="-3.176710"><ele>277</ele><time>2020-08-11T13:17:16Z</time><name>PT890</name></trkpt>
<trkpt lat="54.663937" lon="-3.176699"><ele>277</ele><time>2020-08-11T13:17:17Z</time><name>PT891</name></trkpt>
<trkpt lat="54.663928" lon="-3.176690"><ele>276</ele><time>2020-08-11T13:17:17Z</time><name>PT892</name></trkpt>
<trkpt lat="54.663921" lon="-3.176675"><ele>276</ele><time>2020-08-11T13:17:19Z</time><name>PT893</name></trkpt>
<trkpt lat="54.663915" lon="-3.176656"><ele>277</ele><time>2020-08-11T13:17:20Z</time><name>PT894</name></trkpt>
<trkpt lat="54.663906" lon="-3.176636"><ele>277</ele><time>2020-08-11T13:17:21Z</time><name>PT895</name></trkpt>
<trkpt lat="54.663897" lon="-3.176624"><ele>277</ele><time>2020-08-11T13:17:22Z</time><name>PT896</name></trkpt>
<trkpt lat="54.663891" lon="-3.176620"><ele>277</ele><time>2020-08-11T13:17:23Z</time><name>PT897</name></trkpt>
<trkpt lat="54.663884" lon="-3.176611"><ele>277</ele><time>2020-08-11T13:17:24Z</time><name>PT898</name></trkpt>
<trkpt lat="54.663875" lon="-3.176595"><ele>277</ele><time>2020-08-11T13:17:25Z</time><name>PT899</name></trkpt>
<trkpt lat="54.663865" lon="-3.176580"><ele>277</ele><time>2020-08-11T13:17:26Z</time><name>PT900</name></trkpt>
<trkpt lat="54.663856" lon="-3.176564"><ele>277</ele><time>2020-08-11T13:17:27Z</time><name>PT901</name></trkpt>
<trkpt lat="54.663847" lon="-3.176554"><ele>277</ele><time>2020-08-11T13:17:28Z</time><name>PT902</name></trkpt>
<trkpt lat="54.663842" lon="-3.176551"><ele>278</ele><time>2020-08-11T13:17:29Z</time><name>PT903</name></trkpt>
<trkpt lat="54.663833" lon="-3.176544"><ele>278</ele><time>2020-08-11T13:17:30Z</time><name>PT904</name></trkpt>
<trkpt lat="54.663825" lon="-3.176532"><ele>278</ele><time>2020-08-11T13:17:31Z</time><name>PT905</name></trkpt>
<trkpt lat="54.663815" lon="-3.176519"><ele>278</ele><time>2020-08-11T13:17:32Z</time><name>PT906</name></trkpt>
<trkpt lat="54.663804" lon="-3.176508"><ele>278</ele><time>2020-08-11T13:17:33Z</time><name>PT907</name></trkpt>
<trkpt lat="54.663792" lon="-3.176495"><ele>278</ele><time>2020-08-11T13:17:34Z</time><name>PT908</name></trkpt>
<trkpt lat="54.663781" lon="-3.176487"><ele>279</ele><time>2020-08-11T13:17:35Z</time><name>PT909</name></trkpt>
<trkpt lat="54.663774" lon="-3.176483"><ele>278</ele><time>2020-08-11T13:17:35Z</time><name>PT910</name></trkpt>
<trkpt lat="54.663767" lon="-3.176485"><ele>279</ele><time>2020-08-11T13:17:36Z</time><name>PT911</name></trkpt>
<trkpt lat="54.663760" lon="-3.176480"><ele>279</ele><time>2020-08-11T13:17:38Z</time><name>PT912</name></trkpt>
<trkpt lat="54.663753" lon="-3.176475"><ele>279</ele><time>2020-08-11T13:17:39Z</time><name>PT913</name></trkpt>
<trkpt lat="54.663744" lon="-3.176473"><ele>279</ele><time>2020-08-11T13:17:39Z</time><name>PT914</name></trkpt>
<trkpt lat="54.663737" lon="-3.176470"><ele>280</ele><time>2020-08-11T13:17:41Z</time><name>PT915</name></trkpt>
<trkpt lat="54.663729" lon="-3.176465"><ele>280</ele><time>2020-08-11T13:17:41Z</time><name>PT916</name></trkpt>
<trkpt lat="54.663723" lon="-3.176457"><ele>280</ele><time>2020-08-11T13:17:42Z</time><name>PT917</name></trkpt>
<trkpt lat="54.663715" lon="-3.176450"><ele>280</ele><time>2020-08-11T13:17:44Z</time><name>PT918</name></trkpt>
<trkpt lat="54.663707" lon="-3.176444"><ele>280</ele><time>2020-08-11T13:17:44Z</time><name>PT919</name></trkpt>
<trkpt lat="54.663697" lon="-3.176438"><ele>281</ele><time>2020-08-11T13:17:45Z</time><name>PT920</name></trkpt>
<trkpt lat="54.663689" lon="-3.176431"><ele>280</ele><time>2020-08-11T13:17:47Z</time><name>PT921</name></trkpt>
<trkpt lat="54.663682" lon="-3.176427"><ele>280</ele><time>2020-08-11T13:17:47Z</time><name>PT922</name></trkpt>
<trkpt lat="54.663674" lon="-3.176416"><ele>280</ele><time>2020-08-11T13:17:49Z</time><name>PT923</name></trkpt>
<trkpt lat="54.663665" lon="-3.176408"><ele>281</ele><time>2020-08-11T13:17:50Z</time><name>PT924</name></trkpt>
<trkpt lat="54.663653" lon="-3.176401"><ele>281</ele><time>2020-08-11T13:17:51Z</time><name>PT925</name></trkpt>
<trkpt lat="54.663646" lon="-3.176394"><ele>281</ele><time>2020-08-11T13:17:52Z</time><name>PT926</name></trkpt>
<trkpt lat="54.663640" lon="-3.176392"><ele>281</ele><time>2020-08-11T13:17:53Z</time><name>PT927</name></trkpt>
<trkpt lat="54.663630" lon="-3.176392"><ele>280</ele><time>2020-08-11T13:17:53Z</time><name>PT928</name></trkpt>
<trkpt lat="54.663618" lon="-3.176395"><ele>280</ele><time>2020-08-11T13:17:55Z</time><name>PT929</name></trkpt>
<trkpt lat="54.663609" lon="-3.176398"><ele>281</ele><time>2020-08-11T13:17:56Z</time><name>PT930</name></trkpt>
<trkpt lat="54.663600" lon="-3.176397"><ele>281</ele><time>2020-08-11T13:17:56Z</time><name>PT931</name></trkpt>
<trkpt lat="54.663591" lon="-3.176401"><ele>281</ele><time>2020-08-11T13:17:57Z</time><name>PT932</name></trkpt>
<trkpt lat="54.663581" lon="-3.176404"><ele>281</ele><time>2020-08-11T13:17:59Z</time><name>PT933</name></trkpt>
<trkpt lat="54.663570" lon="-3.176409"><ele>281</ele><time>2020-08-11T13:18:00Z</time><name>PT934</name></trkpt>
<trkpt lat="54.663556" lon="-3.176416"><ele>281</ele><time>2020-08-11T13:18:01Z</time><name>PT935</name></trkpt>
<trkpt lat="54.663545" lon="-3.176418"><ele>281</ele><time>2020-08-11T13:18:02Z</time><name>PT936</name></trkpt>
<trkpt lat="54.663538" lon="-3.176417"><ele>281</ele><time>2020-08-11T13:18:02Z</time><name>PT937</name></trkpt>
<trkpt lat="54.663528" lon="-3.176419"><ele>281</ele><time>2020-08-11T13:18:04Z</time><name>PT938</name></trkpt>
<trkpt lat="54.663520" lon="-3.176414"><ele>282</ele><time>2020-08-11T13:18:05Z</time><name>PT939</name></trkpt>
<trkpt lat="54.663509" lon="-3.176411"><ele>282</ele><time>2020-08-11T13:18:05Z</time><name>PT940</name></trkpt>
<trkpt lat="54.663495" lon="-3.176415"><ele>282</ele><time>2020-08-11T13:18:06Z</time><name>PT941</name></trkpt>
<trkpt lat="54.663487" lon="-3.176413"><ele>282</ele><time>2020-08-11T13:18:08Z</time><name>PT942</name></trkpt>
<trkpt lat="54.663478" lon="-3.176413"><ele>282</ele><time>2020-08-11T13:18:08Z</time><name>PT943</name></trkpt>
<trkpt lat="54.663469" lon="-3.176411"><ele>282</ele><time>2020-08-11T13:18:09Z</time><name>PT944</name></trkpt>
<trkpt lat="54.663456" lon="-3.176412"><ele>282</ele><time>2020-08-11T13:18:11Z</time><name>PT945</name></trkpt>
<trkpt lat="54.663442" lon="-3.176413"><ele>282</ele><time>2020-08-11T13:18:11Z</time><name>PT946</name></trkpt>
<trkpt lat="54.663431" lon="-3.176413"><ele>282</ele><time>2020-08-11T13:18:12Z</time><name>PT947</name></trkpt>
<trkpt lat="54.663424" lon="-3.176420"><ele>282</ele><time>2020-08-11T13:18:14Z</time><name>PT948</name></trkpt>
<trkpt lat="54.663414" lon="-3.176427"><ele>282</ele><time>2020-08-11T13:18:15Z</time><name>PT949</name></trkpt>
<trkpt lat="54.663405" lon="-3.176433"><ele>282</ele><time>2020-08-11T13:18:16Z</time><name>PT950</name></trkpt>
<trkpt lat="54.663397" lon="-3.176439"><ele>282</ele><time>2020-08-11T13:18:17Z</time><name>PT951</name></trkpt>
<trkpt lat="54.663392" lon="-3.176448"><ele>282</ele><time>2020-08-11T13:18:17Z</time><name>PT952</name></trkpt>
<trkpt lat="54.663392" lon="-3.176448"><ele>281</ele><time>2020-08-11T13:18:19Z</time><name>PT953</name></trkpt>
<trkpt lat="54.663387" lon="-3.176451"><ele>281</ele><time>2020-08-11T13:18:20Z</time><name>PT954</name></trkpt>
<trkpt lat="54.663382" lon="-3.176462"><ele>282</ele><time>2020-08-11T13:18:21Z</time><name>PT955</name></trkpt>
<trkpt lat="54.663373" lon="-3.176476"><ele>283</ele><time>2020-08-11T13:18:21Z</time><name>PT956</name></trkpt>
<trkpt lat="54.663371" lon="-3.176477"><ele>283</ele><time>2020-08-11T13:18:23Z</time><name>PT957</name></trkpt>
<trkpt lat="54.663370" lon="-3.176477"><ele>282</ele><time>2020-08-11T13:18:23Z</time><name>PT958</name></trkpt>
<trkpt lat="54.663369" lon="-3.176479"><ele>282</ele><time>2020-08-11T13:18:24Z</time><name>PT959</name></trkpt>
<trkpt lat="54.663369" lon="-3.176478"><ele>282</ele><time>2020-08-11T13:18:26Z</time><name>PT960</name></trkpt>
<trkpt lat="54.663370" lon="-3.176498"><ele>282</ele><time>2020-08-11T13:18:28Z</time><name>PT961</name></trkpt>
<trkpt lat="54.663370" lon="-3.176511"><ele>282</ele><time>2020-08-11T13:18:29Z</time><name>PT962</name></trkpt>
<trkpt lat="54.663367" lon="-3.176528"><ele>282</ele><time>2020-08-11T13:18:30Z</time><name>PT963</name></trkpt>
<trkpt lat="54.663363" lon="-3.176546"><ele>282</ele><time>2020-08-11T13:18:31Z</time><name>PT964</name></trkpt>
<trkpt lat="54.663360" lon="-3.176560"><ele>283</ele><time>2020-08-11T13:18:32Z</time><name>PT965</name></trkpt>
<trkpt lat="54.663358" lon="-3.176574"><ele>282</ele><time>2020-08-11T13:18:32Z</time><name>PT966</name></trkpt>
<trkpt lat="54.663359" lon="-3.176587"><ele>283</ele><time>2020-08-11T13:18:34Z</time><name>PT967</name></trkpt>
<trkpt lat="54.663358" lon="-3.176607"><ele>283</ele><time>2020-08-11T13:18:35Z</time><name>PT968</name></trkpt>
<trkpt lat="54.663354" lon="-3.176624"><ele>283</ele><time>2020-08-11T13:18:36Z</time><name>PT969</name></trkpt>
<trkpt lat="54.663353" lon="-3.176631"><ele>283</ele><time>2020-08-11T13:18:36Z</time><name>PT970</name></trkpt>
<trkpt lat="54.663353" lon="-3.176644"><ele>283</ele><time>2020-08-11T13:18:38Z</time><name>PT971</name></trkpt>
<trkpt lat="54.663352" lon="-3.176657"><ele>284</ele><time>2020-08-11T13:18:38Z</time><name>PT972</name></trkpt>
<trkpt lat="54.663347" lon="-3.176679"><ele>283</ele><time>2020-08-11T13:18:39Z</time><name>PT973</name></trkpt>
<trkpt lat="54.663347" lon="-3.176689"><ele>284</ele><time>2020-08-11T13:18:41Z</time><name>PT974</name></trkpt>
<trkpt lat="54.663343" lon="-3.176702"><ele>284</ele><time>2020-08-11T13:18:41Z</time><name>PT975</name></trkpt>
<trkpt lat="54.663342" lon="-3.176718"><ele>284</ele><time>2020-08-11T13:18:42Z</time><name>PT976</name></trkpt>
<trkpt lat="54.663347" lon="-3.176729"><ele>284</ele><time>2020-08-11T13:18:44Z</time><name>PT977</name></trkpt>
<trkpt lat="54.663355" lon="-3.176735"><ele>285</ele><time>2020-08-11T13:18:45Z</time><name>PT978</name></trkpt>
<trkpt lat="54.663361" lon="-3.176750"><ele>286</ele><time>2020-08-11T13:18:46Z</time><name>PT979</name></trkpt>
<trkpt lat="54.663364" lon="-3.176763"><ele>286</ele><time>2020-08-11T13:18:47Z</time><name>PT980</name></trkpt>
<trkpt lat="54.663367" lon="-3.176775"><ele>287</ele><time>2020-08-11T13:18:48Z</time><name>PT981</name></trkpt>
<trkpt lat="54.663376" lon="-3.176797"><ele>288</ele><time>2020-08-11T13:18:50Z</time><name>PT982</name></trkpt>
<trkpt lat="54.663379" lon="-3.176812"><ele>288</ele><time>2020-08-11T13:18:50Z</time><name>PT983</name></trkpt>
<trkpt lat="54.663380" lon="-3.176821"><ele>289</ele><time>2020-08-11T13:18:51Z</time><name>PT984</name></trkpt>
<trkpt lat="54.663384" lon="-3.176830"><ele>289</ele><time>2020-08-11T13:18:53Z</time><name>PT985</name></trkpt>
<trkpt lat="54.663388" lon="-3.176840"><ele>290</ele><time>2020-08-11T13:18:53Z</time><name>PT986</name></trkpt>
<trkpt lat="54.663389" lon="-3.176846"><ele>290</ele><time>2020-08-11T13:18:54Z</time><name>PT987</name></trkpt>
<trkpt lat="54.663391" lon="-3.176851"><ele>291</ele><time>2020-08-11T13:18:56Z</time><name>PT988</name></trkpt>
<trkpt lat="54.663393" lon="-3.176860"><ele>291</ele><time>2020-08-11T13:18:56Z</time><name>PT989</name></trkpt>
<trkpt lat="54.663391" lon="-3.176867"><ele>290</ele><time>2020-08-11T13:18:57Z</time><name>PT990</name></trkpt>
<trkpt lat="54.663395" lon="-3.176868"><ele>291</ele><time>2020-08-11T13:18:59Z</time><name>PT991</name></trkpt>
<trkpt lat="54.663399" lon="-3.176873"><ele>290</ele><time>2020-08-11T13:18:59Z</time><name>PT992</name></trkpt>
<trkpt lat="54.663406" lon="-3.176878"><ele>290</ele><time>2020-08-11T13:19:00Z</time><name>PT993</name></trkpt>
<trkpt lat="54.663413" lon="-3.176886"><ele>291</ele><time>2020-08-11T13:19:02Z</time><name>PT994</name></trkpt>
<trkpt lat="54.663417" lon="-3.176900"><ele>291</ele><time>2020-08-11T13:19:02Z</time><name>PT995</name></trkpt>
<trkpt lat="54.663421" lon="-3.176909"><ele>291</ele><time>2020-08-11T13:19:04Z</time><name>PT996</name></trkpt>
<trkpt lat="54.663423" lon="-3.176916"><ele>291</ele><time>2020-08-11T13:19:05Z</time><name>PT997</name></trkpt>
<trkpt lat="54.663426" lon="-3.176925"><ele>292</ele><time>2020-08-11T13:19:06Z</time><name>PT998</name></trkpt>
<trkpt lat="54.663432" lon="-3.176929"><ele>293</ele><time>2020-08-11T13:19:06Z</time><name>PT999</name></trkpt>
<trkpt lat="54.663437" lon="-3.176936"><ele>293</ele><time>2020-08-11T13:19:08Z</time><name>PT1000</name></trkpt>
<trkpt lat="54.663443" lon="-3.176943"><ele>292</ele><time>2020-08-11T13:19:08Z</time><name>PT1001</name></trkpt>
<trkpt lat="54.663452" lon="-3.176949"><ele>292</ele><time>2020-08-11T13:19:09Z</time><name>PT1002</name></trkpt>
<trkpt lat="54.663461" lon="-3.176955"><ele>292</ele><time>2020-08-11T13:19:11Z</time><name>PT1003</name></trkpt>
<trkpt lat="54.663470" lon="-3.176954"><ele>293</ele><time>2020-08-11T13:19:11Z</time><name>PT1004</name></trkpt>
<trkpt lat="54.663479" lon="-3.176955"><ele>293</ele><time>2020-08-11T13:19:12Z</time><name>PT1005</name></trkpt>
<trkpt lat="54.663487" lon="-3.176953"><ele>293</ele><time>2020-08-11T13:19:14Z</time><name>PT1006</name></trkpt>
<trkpt lat="54.663497" lon="-3.176950"><ele>293</ele><time>2020-08-11T13:19:14Z</time><name>PT1007</name></trkpt>
<trkpt lat="54.663503" lon="-3.176956"><ele>293</ele><time>2020-08-11T13:19:15Z</time><name>PT1008</name></trkpt>
<trkpt lat="54.663510" lon="-3.176961"><ele>292</ele><time>2020-08-11T13:19:17Z</time><name>PT1009</name></trkpt>
<trkpt lat="54.663518" lon="-3.176967"><ele>293</ele><time>2020-08-11T13:19:17Z</time><name>PT1010</name></trkpt>
<trkpt lat="54.663528" lon="-3.176972"><ele>293</ele><time>2020-08-11T13:19:18Z</time><name>PT1011</name></trkpt>
<trkpt lat="54.663533" lon="-3.176981"><ele>293</ele><time>2020-08-11T13:19:20Z</time><name>PT1012</name></trkpt>
<trkpt lat="54.663539" lon="-3.176986"><ele>294</ele><time>2020-08-11T13:19:20Z</time><name>PT1013</name></trkpt>
<trkpt lat="54.663549" lon="-3.176990"><ele>294</ele><time>2020-08-11T13:19:21Z</time><name>PT1014</name></trkpt>
<trkpt lat="54.663560" lon="-3.176994"><ele>295</ele><time>2020-08-11T13:19:23Z</time><name>PT1015</name></trkpt>
<trkpt lat="54.663567" lon="-3.177002"><ele>295</ele><time>2020-08-11T13:19:23Z</time><name>PT1016</name></trkpt>
<trkpt lat="54.663574" lon="-3.177007"><ele>294</ele><time>2020-08-11T13:19:24Z</time><name>PT1017</name></trkpt>
<trkpt lat="54.663578" lon="-3.177013"><ele>294</ele><time>2020-08-11T13:19:26Z</time><name>PT1018</name></trkpt>
<trkpt lat="54.663586" lon="-3.177021"><ele>294</ele><time>2020-08-11T13:19:26Z</time><name>PT1019</name></trkpt>
<trkpt lat="54.663594" lon="-3.177030"><ele>293</ele><time>2020-08-11T13:19:28Z</time><name>PT1020</name></trkpt>
<trkpt lat="54.663602" lon="-3.177037"><ele>294</ele><time>2020-08-11T13:19:29Z</time><name>PT1021</name></trkpt>
<trkpt lat="54.663612" lon="-3.177052"><ele>295</ele><time>2020-08-11T13:19:29Z</time><name>PT1022</name></trkpt>
<trkpt lat="54.663618" lon="-3.177064"><ele>295</ele><time>2020-08-11T13:19:30Z</time><name>PT1023</name></trkpt>
<trkpt lat="54.663627" lon="-3.177075"><ele>296</ele><time>2020-08-11T13:19:32Z</time><name>PT1024</name></trkpt>
<trkpt lat="54.663635" lon="-3.177083"><ele>296</ele><time>2020-08-11T13:19:33Z</time><name>PT1025</name></trkpt>
<trkpt lat="54.663640" lon="-3.177090"><ele>296</ele><time>2020-08-11T13:19:33Z</time><name>PT1026</name></trkpt>
<trkpt lat="54.663648" lon="-3.177099"><ele>297</ele><time>2020-08-11T13:19:35Z</time><name>PT1027</name></trkpt>
<trkpt lat="54.663655" lon="-3.177109"><ele>297</ele><time>2020-08-11T13:19:35Z</time><name>PT1028</name></trkpt>
<trkpt lat="54.663658" lon="-3.177115"><ele>296</ele><time>2020-08-11T13:19:37Z</time><name>PT1029</name></trkpt>
<trkpt lat="54.663664" lon="-3.177128"><ele>296</ele><time>2020-08-11T13:19:38Z</time><name>PT1030</name></trkpt>
<trkpt lat="54.663668" lon="-3.177139"><ele>296</ele><time>2020-08-11T13:19:38Z</time><name>PT1031</name></trkpt>
<trkpt lat="54.663664" lon="-3.177146"><ele>296</ele><time>2020-08-11T13:19:40Z</time><name>PT1032</name></trkpt>
<trkpt lat="54.663666" lon="-3.177153"><ele>296</ele><time>2020-08-11T13:19:41Z</time><name>PT1033</name></trkpt>
<trkpt lat="54.663671" lon="-3.177167"><ele>296</ele><time>2020-08-11T13:19:42Z</time><name>PT1034</name></trkpt>
<trkpt lat="54.663677" lon="-3.177179"><ele>295</ele><time>2020-08-11T13:19:43Z</time><name>PT1035</name></trkpt>
<trkpt lat="54.663681" lon="-3.177194"><ele>295</ele><time>2020-08-11T13:19:44Z</time><name>PT1036</name></trkpt>
<trkpt lat="54.663686" lon="-3.177209"><ele>296</ele><time>2020-08-11T13:19:44Z</time><name>PT1037</name></trkpt>
<trkpt lat="54.663686" lon="-3.177220"><ele>296</ele><time>2020-08-11T13:19:45Z</time><name>PT1038</name></trkpt>
<trkpt lat="54.663688" lon="-3.177228"><ele>295</ele><time>2020-08-11T13:19:47Z</time><name>PT1039</name></trkpt>
<trkpt lat="54.663687" lon="-3.177241"><ele>295</ele><time>2020-08-11T13:19:47Z</time><name>PT1040</name></trkpt>
<trkpt lat="54.663687" lon="-3.177254"><ele>295</ele><time>2020-08-11T13:19:48Z</time><name>PT1041</name></trkpt>
<trkpt lat="54.663690" lon="-3.177265"><ele>296</ele><time>2020-08-11T13:19:50Z</time><name>PT1042</name></trkpt>
<trkpt lat="54.663689" lon="-3.177276"><ele>296</ele><time>2020-08-11T13:19:51Z</time><name>PT1043</name></trkpt>
<trkpt lat="54.663687" lon="-3.177287"><ele>296</ele><time>2020-08-11T13:19:52Z</time><name>PT1044</name></trkpt>
<trkpt lat="54.663688" lon="-3.177298"><ele>296</ele><time>2020-08-11T13:19:53Z</time><name>PT1045</name></trkpt>
<trkpt lat="54.663691" lon="-3.177307"><ele>297</ele><time>2020-08-11T13:19:54Z</time><name>PT1046</name></trkpt>
<trkpt lat="54.663691" lon="-3.177314"><ele>297</ele><time>2020-08-11T13:19:55Z</time><name>PT1047</name></trkpt>
<trkpt lat="54.663690" lon="-3.177324"><ele>298</ele><time>2020-08-11T13:19:56Z</time><name>PT1048</name></trkpt>
<trkpt lat="54.663689" lon="-3.177337"><ele>298</ele><time>2020-08-11T13:19:57Z</time><name>PT1049</name></trkpt>
<trkpt lat="54.663685" lon="-3.177344"><ele>298</ele><time>2020-08-11T13:19:58Z</time><name>PT1050</name></trkpt>
<trkpt lat="54.663685" lon="-3.177357"><ele>298</ele><time>2020-08-11T13:19:59Z</time><name>PT1051</name></trkpt>
<trkpt lat="54.663686" lon="-3.177361"><ele>298</ele><time>2020-08-11T13:20:00Z</time><name>PT1052</name></trkpt>
<trkpt lat="54.663684" lon="-3.177358"><ele>299</ele><time>2020-08-11T13:20:01Z</time><name>PT1053</name></trkpt>
<trkpt lat="54.663679" lon="-3.177358"><ele>300</ele><time>2020-08-11T13:20:02Z</time><name>PT1054</name></trkpt>
<trkpt lat="54.663675" lon="-3.177362"><ele>300</ele><time>2020-08-11T13:20:03Z</time><name>PT1055</name></trkpt>
<trkpt lat="54.663667" lon="-3.177370"><ele>300</ele><time>2020-08-11T13:20:05Z</time><name>PT1056</name></trkpt>
<trkpt lat="54.663668" lon="-3.177374"><ele>301</ele><time>2020-08-11T13:20:06Z</time><name>PT1057</name></trkpt>
<trkpt lat="54.663664" lon="-3.177379"><ele>301</ele><time>2020-08-11T13:20:07Z</time><name>PT1058</name></trkpt>
<trkpt lat="54.663664" lon="-3.177384"><ele>301</ele><time>2020-08-11T13:20:08Z</time><name>PT1059</name></trkpt>
<trkpt lat="54.663662" lon="-3.177388"><ele>301</ele><time>2020-08-11T13:20:08Z</time><name>PT1060</name></trkpt>
<trkpt lat="54.663660" lon="-3.177389"><ele>301</ele><time>2020-08-11T13:20:09Z</time><name>PT1061</name></trkpt>
<trkpt lat="54.663657" lon="-3.177388"><ele>301</ele><time>2020-08-11T13:20:11Z</time><name>PT1062</name></trkpt>
<trkpt lat="54.663651" lon="-3.177391"><ele>302</ele><time>2020-08-11T13:20:11Z</time><name>PT1063</name></trkpt>
<trkpt lat="54.663649" lon="-3.177393"><ele>302</ele><time>2020-08-11T13:20:12Z</time><name>PT1064</name></trkpt>
<trkpt lat="54.663647" lon="-3.177397"><ele>302</ele><time>2020-08-11T13:20:14Z</time><name>PT1065</name></trkpt>
<trkpt lat="54.663647" lon="-3.177400"><ele>303</ele><time>2020-08-11T13:20:14Z</time><name>PT1066</name></trkpt>
<trkpt lat="54.663645" lon="-3.177400"><ele>303</ele><time>2020-08-11T13:20:15Z</time><name>PT1067</name></trkpt>
<trkpt lat="54.663644" lon="-3.177406"><ele>303</ele><time>2020-08-11T13:20:17Z</time><name>PT1068</name></trkpt>
<trkpt lat="54.663642" lon="-3.177415"><ele>303</ele><time>2020-08-11T13:20:17Z</time><name>PT1069</name></trkpt>
<trkpt lat="54.663640" lon="-3.177421"><ele>304</ele><time>2020-08-11T13:20:18Z</time><name>PT1070</name></trkpt>
<trkpt lat="54.663635" lon="-3.177425"><ele>304</ele><time>2020-08-11T13:20:20Z</time><name>PT1071</name></trkpt>
<trkpt lat="54.663635" lon="-3.177432"><ele>303</ele><time>2020-08-11T13:20:20Z</time><name>PT1072</name></trkpt>
<trkpt lat="54.663631" lon="-3.177440"><ele>303</ele><time>2020-08-11T13:20:21Z</time><name>PT1073</name></trkpt>
<trkpt lat="54.663629" lon="-3.177449"><ele>303</ele><time>2020-08-11T13:20:23Z</time><name>PT1074</name></trkpt>
<trkpt lat="54.663628" lon="-3.177461"><ele>303</ele><time>2020-08-11T13:20:23Z</time><name>PT1075</name></trkpt>
<trkpt lat="54.663627" lon="-3.177467"><ele>304</ele><time>2020-08-11T13:20:25Z</time><name>PT1076</name></trkpt>
<trkpt lat="54.663628" lon="-3.177472"><ele>304</ele><time>2020-08-11T13:20:26Z</time><name>PT1077</name></trkpt>
<trkpt lat="54.663626" lon="-3.177477"><ele>303</ele><time>2020-08-11T13:20:26Z</time><name>PT1078</name></trkpt>
<trkpt lat="54.663622" lon="-3.177485"><ele>303</ele><time>2020-08-11T13:20:28Z</time><name>PT1079</name></trkpt>
<trkpt lat="54.663620" lon="-3.177492"><ele>304</ele><time>2020-08-11T13:20:29Z</time><name>PT1080</name></trkpt>
<trkpt lat="54.663619" lon="-3.177502"><ele>303</ele><time>2020-08-11T13:20:30Z</time><name>PT1081</name></trkpt>
<trkpt lat="54.663623" lon="-3.177512"><ele>303</ele><time>2020-08-11T13:20:31Z</time><name>PT1082</name></trkpt>
<trkpt lat="54.663623" lon="-3.177520"><ele>303</ele><time>2020-08-11T13:20:32Z</time><name>PT1083</name></trkpt>
<trkpt lat="54.663626" lon="-3.177528"><ele>303</ele><time>2020-08-11T13:20:32Z</time><name>PT1084</name></trkpt>
<trkpt lat="54.663623" lon="-3.177539"><ele>304</ele><time>2020-08-11T13:20:33Z</time><name>PT1085</name></trkpt>
<trkpt lat="54.663621" lon="-3.177544"><ele>304</ele><time>2020-08-11T13:20:35Z</time><name>PT1086</name></trkpt>
<trkpt lat="54.663617" lon="-3.177548"><ele>304</ele><time>2020-08-11T13:20:36Z</time><name>PT1087</name></trkpt>
<trkpt lat="54.663616" lon="-3.177558"><ele>305</ele><time>2020-08-11T13:20:37Z</time><name>PT1088</name></trkpt>
<trkpt lat="54.663614" lon="-3.177567"><ele>305</ele><time>2020-08-11T13:20:38Z</time><name>PT1089</name></trkpt>
<trkpt lat="54.663608" lon="-3.177565"><ele>305</ele><time>2020-08-11T13:20:38Z</time><name>PT1090</name></trkpt>
<trkpt lat="54.663606" lon="-3.177567"><ele>304</ele><time>2020-08-11T13:20:40Z</time><name>PT1091</name></trkpt>
<trkpt lat="54.663602" lon="-3.177568"><ele>304</ele><time>2020-08-11T13:20:41Z</time><name>PT1092</name></trkpt>
<trkpt lat="54.663602" lon="-3.177575"><ele>305</ele><time>2020-08-11T13:20:42Z</time><name>PT1093</name></trkpt>
<trkpt lat="54.663599" lon="-3.177585"><ele>305</ele><time>2020-08-11T13:20:43Z</time><name>PT1094</name></trkpt>
<trkpt lat="54.663595" lon="-3.177590"><ele>304</ele><time>2020-08-11T13:20:44Z</time><name>PT1095</name></trkpt>
<trkpt lat="54.663597" lon="-3.177594"><ele>305</ele><time>2020-08-11T13:20:45Z</time><name>PT1096</name></trkpt>
<trkpt lat="54.663596" lon="-3.177601"><ele>305</ele><time>2020-08-11T13:20:46Z</time><name>PT1097</name></trkpt>
<trkpt lat="54.663594" lon="-3.177609"><ele>306</ele><time>2020-08-11T13:20:47Z</time><name>PT1098</name></trkpt>
<trkpt lat="54.663595" lon="-3.177613"><ele>306</ele><time>2020-08-11T13:20:47Z</time><name>PT1099</name></trkpt>
<trkpt lat="54.663593" lon="-3.177618"><ele>307</ele><time>2020-08-11T13:20:48Z</time><name>PT1100</name></trkpt>
<trkpt lat="54.663592" lon="-3.177622"><ele>307</ele><time>2020-08-11T13:20:50Z</time><name>PT1101</name></trkpt>
<trkpt lat="54.663596" lon="-3.177627"><ele>308</ele><time>2020-08-11T13:20:50Z</time><name>PT1102</name></trkpt>
<trkpt lat="54.663597" lon="-3.177636"><ele>309</ele><time>2020-08-11T13:20:51Z</time><name>PT1103</name></trkpt>
<trkpt lat="54.663599" lon="-3.177640"><ele>309</ele><time>2020-08-11T13:20:53Z</time><name>PT1104</name></trkpt>
<trkpt lat="54.663601" lon="-3.177646"><ele>310</ele><time>2020-08-11T13:20:53Z</time><name>PT1105</name></trkpt>
<trkpt lat="54.663607" lon="-3.177656"><ele>311</ele><time>2020-08-11T13:20:54Z</time><name>PT1106</name></trkpt>
<trkpt lat="54.663605" lon="-3.177660"><ele>311</ele><time>2020-08-11T13:20:56Z</time><name>PT1107</name></trkpt>
<trkpt lat="54.663601" lon="-3.177663"><ele>311</ele><time>2020-08-11T13:20:56Z</time><name>PT1108</name></trkpt>
<trkpt lat="54.663601" lon="-3.177665"><ele>312</ele><time>2020-08-11T13:20:58Z</time><name>PT1109</name></trkpt>
<trkpt lat="54.663600" lon="-3.177672"><ele>312</ele><time>2020-08-11T13:20:59Z</time><name>PT1110</name></trkpt>
<trkpt lat="54.663600" lon="-3.177680"><ele>312</ele><time>2020-08-11T13:20:59Z</time><name>PT1111</name></trkpt>
<trkpt lat="54.663596" lon="-3.177682"><ele>311</ele><time>2020-08-11T13:21:00Z</time><name>PT1112</name></trkpt>
<trkpt lat="54.663593" lon="-3.177677"><ele>311</ele><time>2020-08-11T13:21:02Z</time><name>PT1113</name></trkpt>
<trkpt lat="54.663591" lon="-3.177685"><ele>311</ele><time>2020-08-11T13:21:02Z</time><name>PT1114</name></trkpt>
<trkpt lat="54.663590" lon="-3.177689"><ele>312</ele><time>2020-08-11T13:21:03Z</time><name>PT1115</name></trkpt>
<trkpt lat="54.663588" lon="-3.177687"><ele>312</ele><time>2020-08-11T13:21:05Z</time><name>PT1116</name></trkpt>
<trkpt lat="54.663583" lon="-3.177694"><ele>312</ele><time>2020-08-11T13:21:05Z</time><name>PT1117</name></trkpt>
<trkpt lat="54.663576" lon="-3.177699"><ele>312</ele><time>2020-08-11T13:21:06Z</time><name>PT1118</name></trkpt>
<trkpt lat="54.663570" lon="-3.177704"><ele>312</ele><time>2020-08-11T13:21:08Z</time><name>PT1119</name></trkpt>
<trkpt lat="54.663569" lon="-3.177711"><ele>312</ele><time>2020-08-11T13:21:08Z</time><name>PT1120</name></trkpt>
<trkpt lat="54.663568" lon="-3.177721"><ele>312</ele><time>2020-08-11T13:21:09Z</time><name>PT1121</name></trkpt>
<trkpt lat="54.663567" lon="-3.177730"><ele>312</ele><time>2020-08-11T13:21:11Z</time><name>PT1122</name></trkpt>
<trkpt lat="54.663565" lon="-3.177737"><ele>312</ele><time>2020-08-11T13:21:11Z</time><name>PT1123</name></trkpt>
<trkpt lat="54.663560" lon="-3.177739"><ele>312</ele><time>2020-08-11T13:21:13Z</time><name>PT1124</name></trkpt>
<trkpt lat="54.663554" lon="-3.177742"><ele>312</ele><time>2020-08-11T13:21:14Z</time><name>PT1125</name></trkpt>
<trkpt lat="54.663548" lon="-3.177744"><ele>311</ele><time>2020-08-11T13:21:14Z</time><name>PT1126</name></trkpt>
<trkpt lat="54.663545" lon="-3.177746"><ele>312</ele><time>2020-08-11T13:21:15Z</time><name>PT1127</name></trkpt>
<trkpt lat="54.663544" lon="-3.177745"><ele>311</ele><time>2020-08-11T13:21:17Z</time><name>PT1128</name></trkpt>
<trkpt lat="54.663543" lon="-3.177746"><ele>311</ele><time>2020-08-11T13:21:17Z</time><name>PT1129</name></trkpt>
<trkpt lat="54.663543" lon="-3.177749"><ele>311</ele><time>2020-08-11T13:21:18Z</time><name>PT1130</name></trkpt>
<trkpt lat="54.663542" lon="-3.177758"><ele>312</ele><time>2020-08-11T13:21:20Z</time><name>PT1131</name></trkpt>
<trkpt lat="54.663541" lon="-3.177761"><ele>312</ele><time>2020-08-11T13:21:20Z</time><name>PT1132</name></trkpt>
<trkpt lat="54.663537" lon="-3.177766"><ele>312</ele><time>2020-08-11T13:21:21Z</time><name>PT1133</name></trkpt>
<trkpt lat="54.663535" lon="-3.177765"><ele>313</ele><time>2020-08-11T13:21:23Z</time><name>PT1134</name></trkpt>
<trkpt lat="54.663532" lon="-3.177765"><ele>313</ele><time>2020-08-11T13:21:23Z</time><name>PT1135</name></trkpt>
<trkpt lat="54.663530" lon="-3.177762"><ele>313</ele><time>2020-08-11T13:21:24Z</time><name>PT1136</name></trkpt>
<trkpt lat="54.663525" lon="-3.177758"><ele>313</ele><time>2020-08-11T13:21:26Z</time><name>PT1137</name></trkpt>
<trkpt lat="54.663517" lon="-3.177756"><ele>313</ele><time>2020-08-11T13:21:26Z</time><name>PT1138</name></trkpt>
<trkpt lat="54.663513" lon="-3.177758"><ele>314</ele><time>2020-08-11T13:21:28Z</time><name>PT1139</name></trkpt>
<trkpt lat="54.663513" lon="-3.177760"><ele>314</ele><time>2020-08-11T13:21:29Z</time><name>PT1140</name></trkpt>
<trkpt lat="54.663509" lon="-3.177772"><ele>314</ele><time>2020-08-11T13:21:29Z</time><name>PT1141</name></trkpt>
<trkpt lat="54.663532" lon="-3.177764"><ele>314</ele><time>2020-08-11T13:21:32Z</time><name>PT1142</name></trkpt>
<trkpt lat="54.663532" lon="-3.177767"><ele>315</ele><time>2020-08-11T13:21:32Z</time><name>PT1143</name></trkpt>
<trkpt lat="54.663525" lon="-3.177788"><ele>315</ele><time>2020-08-11T13:21:34Z</time><name>PT1144</name></trkpt>
<trkpt lat="54.663523" lon="-3.177802"><ele>315</ele><time>2020-08-11T13:21:35Z</time><name>PT1145</name></trkpt>
<trkpt lat="54.663526" lon="-3.177820"><ele>314</ele><time>2020-08-11T13:21:35Z</time><name>PT1146</name></trkpt>
<trkpt lat="54.663522" lon="-3.177826"><ele>314</ele><time>2020-08-11T13:21:36Z</time><name>PT1147</name></trkpt>
<trkpt lat="54.663520" lon="-3.177836"><ele>315</ele><time>2020-08-11T13:21:38Z</time><name>PT1148</name></trkpt>
<trkpt lat="54.663516" lon="-3.177844"><ele>315</ele><time>2020-08-11T13:21:39Z</time><name>PT1149</name></trkpt>
<trkpt lat="54.663511" lon="-3.177848"><ele>314</ele><time>2020-08-11T13:21:39Z</time><name>PT1150</name></trkpt>
<trkpt lat="54.663500" lon="-3.177841"><ele>314</ele><time>2020-08-11T13:21:41Z</time><name>PT1151</name></trkpt>
<trkpt lat="54.663496" lon="-3.177837"><ele>314</ele><time>2020-08-11T13:21:42Z</time><name>PT1152</name></trkpt>
<trkpt lat="54.663493" lon="-3.177835"><ele>313</ele><time>2020-08-11T13:21:42Z</time><name>PT1153</name></trkpt>
<trkpt lat="54.663492" lon="-3.177835"><ele>314</ele><time>2020-08-11T13:21:44Z</time><name>PT1154</name></trkpt>
<trkpt lat="54.663497" lon="-3.177834"><ele>313</ele><time>2020-08-11T13:21:47Z</time><name>PT1155</name></trkpt>
<trkpt lat="54.663493" lon="-3.177848"><ele>315</ele><time>2020-08-11T13:21:48Z</time><name>PT1156</name></trkpt>
<trkpt lat="54.663485" lon="-3.177847"><ele>315</ele><time>2020-08-11T13:21:49Z</time><name>PT1157</name></trkpt>
<trkpt lat="54.663480" lon="-3.177853"><ele>316</ele><time>2020-08-11T13:21:50Z</time><name>PT1158</name></trkpt>
<trkpt lat="54.663475" lon="-3.177845"><ele>315</ele><time>2020-08-11T13:21:51Z</time><name>PT1159</name></trkpt>
<trkpt lat="54.663471" lon="-3.177847"><ele>315</ele><time>2020-08-11T13:21:52Z</time><name>PT1160</name></trkpt>
<trkpt lat="54.663450" lon="-3.177840"><ele>317</ele><time>2020-08-11T13:21:56Z</time><name>PT1161</name></trkpt>
<trkpt lat="54.663438" lon="-3.177857"><ele>319</ele><time>2020-08-11T13:21:59Z</time><name>PT1162</name></trkpt>
<trkpt lat="54.663432" lon="-3.177883"><ele>320</ele><time>2020-08-11T13:22:03Z</time><name>PT1163</name></trkpt>
<trkpt lat="54.663418" lon="-3.177893"><ele>321</ele><time>2020-08-11T13:22:06Z</time><name>PT1164</name></trkpt>
<trkpt lat="54.663407" lon="-3.177897"><ele>321</ele><time>2020-08-11T13:22:09Z</time><name>PT1165</name></trkpt>
<trkpt lat="54.663407" lon="-3.177891"><ele>321</ele><time>2020-08-11T13:22:13Z</time><name>PT1166</name></trkpt>
<trkpt lat="54.663403" lon="-3.177909"><ele>322</ele><time>2020-08-11T13:22:17Z</time><name>PT1167</name></trkpt>
<trkpt lat="54.663394" lon="-3.177931"><ele>323</ele><time>2020-08-11T13:22:20Z</time><name>PT1168</name></trkpt>
<trkpt lat="54.663387" lon="-3.177958"><ele>323</ele><time>2020-08-11T13:22:23Z</time><name>PT1169</name></trkpt>
<trkpt lat="54.663388" lon="-3.177968"><ele>324</ele><time>2020-08-11T13:22:26Z</time><name>PT1170</name></trkpt>
<trkpt lat="54.663396" lon="-3.178004"><ele>324</ele><time>2020-08-11T13:22:30Z</time><name>PT1171</name></trkpt>
<trkpt lat="54.663384" lon="-3.178012"><ele>324</ele><time>2020-08-11T13:22:35Z</time><name>PT1172</name></trkpt>
<trkpt lat="54.663376" lon="-3.178018"><ele>325</ele><time>2020-08-11T13:22:38Z</time><name>PT1173</name></trkpt>
<trkpt lat="54.663383" lon="-3.178044"><ele>325</ele><time>2020-08-11T13:22:41Z</time><name>PT1174</name></trkpt>
<trkpt lat="54.663368" lon="-3.178063"><ele>327</ele><time>2020-08-11T13:22:45Z</time><name>PT1175</name></trkpt>
<trkpt lat="54.663368" lon="-3.178091"><ele>328</ele><time>2020-08-11T13:22:50Z</time><name>PT1176</name></trkpt>
<trkpt lat="54.663362" lon="-3.178114"><ele>329</ele><time>2020-08-11T13:22:53Z</time><name>PT1177</name></trkpt>
<trkpt lat="54.663352" lon="-3.178137"><ele>329</ele><time>2020-08-11T13:22:56Z</time><name>PT1178</name></trkpt>
<trkpt lat="54.663347" lon="-3.178157"><ele>330</ele><time>2020-08-11T13:23:00Z</time><name>PT1179</name></trkpt>
<trkpt lat="54.663332" lon="-3.178166"><ele>330</ele><time>2020-08-11T13:23:05Z</time><name>PT1180</name></trkpt>
<trkpt lat="54.663310" lon="-3.178198"><ele>331</ele><time>2020-08-11T13:23:08Z</time><name>PT1181</name></trkpt>
<trkpt lat="54.663305" lon="-3.178221"><ele>332</ele><time>2020-08-11T13:23:12Z</time><name>PT1182</name></trkpt>
<trkpt lat="54.663305" lon="-3.178230"><ele>334</ele><time>2020-08-11T13:23:15Z</time><name>PT1183</name></trkpt>
<trkpt lat="54.663300" lon="-3.178249"><ele>334</ele><time>2020-08-11T13:23:18Z</time><name>PT1184</name></trkpt>
<trkpt lat="54.663290" lon="-3.178259"><ele>334</ele><time>2020-08-11T13:23:23Z</time><name>PT1185</name></trkpt>
<trkpt lat="54.663292" lon="-3.178298"><ele>334</ele><time>2020-08-11T13:23:26Z</time><name>PT1186</name></trkpt>
<trkpt lat="54.663285" lon="-3.178306"><ele>333</ele><time>2020-08-11T13:23:29Z</time><name>PT1187</name></trkpt>
<trkpt lat="54.663266" lon="-3.178314"><ele>334</ele><time>2020-08-11T13:23:33Z</time><name>PT1188</name></trkpt>
<trkpt lat="54.663256" lon="-3.178308"><ele>334</ele><time>2020-08-11T13:23:36Z</time><name>PT1189</name></trkpt>
<trkpt lat="54.663247" lon="-3.178327"><ele>335</ele><time>2020-08-11T13:23:41Z</time><name>PT1190</name></trkpt>
<trkpt lat="54.663248" lon="-3.178366"><ele>335</ele><time>2020-08-11T13:23:44Z</time><name>PT1191</name></trkpt>
<trkpt lat="54.663239" lon="-3.178389"><ele>336</ele><time>2020-08-11T13:23:47Z</time><name>PT1192</name></trkpt>
<trkpt lat="54.663227" lon="-3.178394"><ele>337</ele><time>2020-08-11T13:23:51Z</time><name>PT1193</name></trkpt>
<trkpt lat="54.663219" lon="-3.178375"><ele>337</ele><time>2020-08-11T13:23:54Z</time><name>PT1194</name></trkpt>
<trkpt lat="54.663216" lon="-3.178370"><ele>337</ele><time>2020-08-11T13:23:54Z</time><name>PT1195</name></trkpt>
<trkpt lat="54.663211" lon="-3.178373"><ele>338</ele><time>2020-08-11T13:24:05Z</time><name>PT1196</name></trkpt>
<trkpt lat="54.663206" lon="-3.178378"><ele>337</ele><time>2020-08-11T13:24:05Z</time><name>PT1197</name></trkpt>
<trkpt lat="54.663201" lon="-3.178386"><ele>337</ele><time>2020-08-11T13:24:06Z</time><name>PT1198</name></trkpt>
<trkpt lat="54.663197" lon="-3.178402"><ele>337</ele><time>2020-08-11T13:24:08Z</time><name>PT1199</name></trkpt>
<trkpt lat="54.663196" lon="-3.178416"><ele>337</ele><time>2020-08-11T13:24:09Z</time><name>PT1200</name></trkpt>
<trkpt lat="54.663194" lon="-3.178430"><ele>337</ele><time>2020-08-11T13:24:09Z</time><name>PT1201</name></trkpt>
<trkpt lat="54.663189" lon="-3.178447"><ele>337</ele><time>2020-08-11T13:24:11Z</time><name>PT1202</name></trkpt>
<trkpt lat="54.663185" lon="-3.178462"><ele>337</ele><time>2020-08-11T13:24:11Z</time><name>PT1203</name></trkpt>
<trkpt lat="54.663176" lon="-3.178478"><ele>336</ele><time>2020-08-11T13:24:12Z</time><name>PT1204</name></trkpt>
<trkpt lat="54.663170" lon="-3.178489"><ele>337</ele><time>2020-08-11T13:24:14Z</time><name>PT1205</name></trkpt>
<trkpt lat="54.663166" lon="-3.178501"><ele>336</ele><time>2020-08-11T13:24:14Z</time><name>PT1206</name></trkpt>
<trkpt lat="54.663165" lon="-3.178516"><ele>336</ele><time>2020-08-11T13:24:16Z</time><name>PT1207</name></trkpt>
<trkpt lat="54.663158" lon="-3.178532"><ele>337</ele><time>2020-08-11T13:24:17Z</time><name>PT1208</name></trkpt>
<trkpt lat="54.663149" lon="-3.178544"><ele>337</ele><time>2020-08-11T13:24:17Z</time><name>PT1209</name></trkpt>
<trkpt lat="54.663145" lon="-3.178553"><ele>336</ele><time>2020-08-11T13:24:18Z</time><name>PT1210</name></trkpt>
<trkpt lat="54.663139" lon="-3.178567"><ele>336</ele><time>2020-08-11T13:24:20Z</time><name>PT1211</name></trkpt>
<trkpt lat="54.663131" lon="-3.178578"><ele>336</ele><time>2020-08-11T13:24:20Z</time><name>PT1212</name></trkpt>
<trkpt lat="54.663126" lon="-3.178587"><ele>335</ele><time>2020-08-11T13:24:21Z</time><name>PT1213</name></trkpt>
<trkpt lat="54.663124" lon="-3.178599"><ele>335</ele><time>2020-08-11T13:24:23Z</time><name>PT1214</name></trkpt>
<trkpt lat="54.663120" lon="-3.178606"><ele>335</ele><time>2020-08-11T13:24:23Z</time><name>PT1215</name></trkpt>
<trkpt lat="54.663115" lon="-3.178619"><ele>335</ele><time>2020-08-11T13:24:24Z</time><name>PT1216</name></trkpt>
<trkpt lat="54.663106" lon="-3.178635"><ele>335</ele><time>2020-08-11T13:24:26Z</time><name>PT1217</name></trkpt>
<trkpt lat="54.663099" lon="-3.178646"><ele>335</ele><time>2020-08-11T13:24:26Z</time><name>PT1218</name></trkpt>
<trkpt lat="54.663095" lon="-3.178660"><ele>334</ele><time>2020-08-11T13:24:28Z</time><name>PT1219</name></trkpt>
<trkpt lat="54.663090" lon="-3.178671"><ele>334</ele><time>2020-08-11T13:24:29Z</time><name>PT1220</name></trkpt>
<trkpt lat="54.663081" lon="-3.178686"><ele>334</ele><time>2020-08-11T13:24:29Z</time><name>PT1221</name></trkpt>
<trkpt lat="54.663076" lon="-3.178695"><ele>334</ele><time>2020-08-11T13:24:31Z</time><name>PT1222</name></trkpt>
<trkpt lat="54.663069" lon="-3.178704"><ele>334</ele><time>2020-08-11T13:24:32Z</time><name>PT1223</name></trkpt>
<trkpt lat="54.663062" lon="-3.178712"><ele>335</ele><time>2020-08-11T13:24:33Z</time><name>PT1224</name></trkpt>
<trkpt lat="54.663057" lon="-3.178720"><ele>335</ele><time>2020-08-11T13:24:34Z</time><name>PT1225</name></trkpt>
<trkpt lat="54.663049" lon="-3.178732"><ele>336</ele><time>2020-08-11T13:24:35Z</time><name>PT1226</name></trkpt>
<trkpt lat="54.663041" lon="-3.178737"><ele>336</ele><time>2020-08-11T13:24:35Z</time><name>PT1227</name></trkpt>
<trkpt lat="54.663033" lon="-3.178743"><ele>336</ele><time>2020-08-11T13:24:37Z</time><name>PT1228</name></trkpt>
<trkpt lat="54.663024" lon="-3.178745"><ele>336</ele><time>2020-08-11T13:24:38Z</time><name>PT1229</name></trkpt>
<trkpt lat="54.663014" lon="-3.178750"><ele>336</ele><time>2020-08-11T13:24:38Z</time><name>PT1230</name></trkpt>
<trkpt lat="54.663005" lon="-3.178754"><ele>336</ele><time>2020-08-11T13:24:40Z</time><name>PT1231</name></trkpt>
<trkpt lat="54.662996" lon="-3.178754"><ele>336</ele><time>2020-08-11T13:24:41Z</time><name>PT1232</name></trkpt>
<trkpt lat="54.662992" lon="-3.178753"><ele>337</ele><time>2020-08-11T13:24:42Z</time><name>PT1233</name></trkpt>
<trkpt lat="54.662988" lon="-3.178755"><ele>337</ele><time>2020-08-11T13:24:43Z</time><name>PT1234</name></trkpt>
<trkpt lat="54.662981" lon="-3.178762"><ele>337</ele><time>2020-08-11T13:24:44Z</time><name>PT1235</name></trkpt>
<trkpt lat="54.662974" lon="-3.178771"><ele>337</ele><time>2020-08-11T13:24:44Z</time><name>PT1236</name></trkpt>
<trkpt lat="54.662967" lon="-3.178779"><ele>337</ele><time>2020-08-11T13:24:45Z</time><name>PT1237</name></trkpt>
<trkpt lat="54.662958" lon="-3.178789"><ele>338</ele><time>2020-08-11T13:24:47Z</time><name>PT1238</name></trkpt>
<trkpt lat="54.662957" lon="-3.178801"><ele>338</ele><time>2020-08-11T13:24:47Z</time><name>PT1239</name></trkpt>
<trkpt lat="54.662956" lon="-3.178804"><ele>338</ele><time>2020-08-11T13:24:48Z</time><name>PT1240</name></trkpt>
<trkpt lat="54.662954" lon="-3.178810"><ele>338</ele><time>2020-08-11T13:24:50Z</time><name>PT1241</name></trkpt>
<trkpt lat="54.662953" lon="-3.178823"><ele>338</ele><time>2020-08-11T13:24:50Z</time><name>PT1242</name></trkpt>
<trkpt lat="54.662955" lon="-3.178830"><ele>338</ele><time>2020-08-11T13:24:51Z</time><name>PT1243</name></trkpt>
<trkpt lat="54.662953" lon="-3.178840"><ele>338</ele><time>2020-08-11T13:24:53Z</time><name>PT1244</name></trkpt>
<trkpt lat="54.662952" lon="-3.178855"><ele>338</ele><time>2020-08-11T13:24:53Z</time><name>PT1245</name></trkpt>
<trkpt lat="54.662950" lon="-3.178868"><ele>338</ele><time>2020-08-11T13:24:54Z</time><name>PT1246</name></trkpt>
<trkpt lat="54.662951" lon="-3.178876"><ele>338</ele><time>2020-08-11T13:24:56Z</time><name>PT1247</name></trkpt>
<trkpt lat="54.662949" lon="-3.178885"><ele>338</ele><time>2020-08-11T13:24:56Z</time><name>PT1248</name></trkpt>
<trkpt lat="54.662944" lon="-3.178894"><ele>337</ele><time>2020-08-11T13:24:57Z</time><name>PT1249</name></trkpt>
<trkpt lat="54.662937" lon="-3.178900"><ele>338</ele><time>2020-08-11T13:24:59Z</time><name>PT1250</name></trkpt>
<trkpt lat="54.662933" lon="-3.178905"><ele>337</ele><time>2020-08-11T13:24:59Z</time><name>PT1251</name></trkpt>
<trkpt lat="54.662927" lon="-3.178906"><ele>338</ele><time>2020-08-11T13:25:00Z</time><name>PT1252</name></trkpt>
<trkpt lat="54.662924" lon="-3.178907"><ele>338</ele><time>2020-08-11T13:25:02Z</time><name>PT1253</name></trkpt>
<trkpt lat="54.662923" lon="-3.178909"><ele>338</ele><time>2020-08-11T13:25:02Z</time><name>PT1254</name></trkpt>
<trkpt lat="54.662922" lon="-3.178911"><ele>338</ele><time>2020-08-11T13:25:03Z</time><name>PT1255</name></trkpt>
<trkpt lat="54.662918" lon="-3.178917"><ele>338</ele><time>2020-08-11T13:25:05Z</time><name>PT1256</name></trkpt>
<trkpt lat="54.662916" lon="-3.178928"><ele>338</ele><time>2020-08-11T13:25:05Z</time><name>PT1257</name></trkpt>
<trkpt lat="54.662915" lon="-3.178940"><ele>337</ele><time>2020-08-11T13:25:06Z</time><name>PT1258</name></trkpt>
<trkpt lat="54.662914" lon="-3.178954"><ele>338</ele><time>2020-08-11T13:25:08Z</time><name>PT1259</name></trkpt>
<trkpt lat="54.662913" lon="-3.178958"><ele>338</ele><time>2020-08-11T13:25:08Z</time><name>PT1260</name></trkpt>
<trkpt lat="54.662909" lon="-3.178954"><ele>338</ele><time>2020-08-11T13:25:09Z</time><name>PT1261</name></trkpt>
<trkpt lat="54.662906" lon="-3.178950"><ele>337</ele><time>2020-08-11T13:25:11Z</time><name>PT1262</name></trkpt>
<trkpt lat="54.662906" lon="-3.178949"><ele>337</ele><time>2020-08-11T13:25:11Z</time><name>PT1263</name></trkpt>
<trkpt lat="54.662902" lon="-3.178952"><ele>338</ele><time>2020-08-11T13:25:19Z</time><name>PT1264</name></trkpt>
<trkpt lat="54.662898" lon="-3.178962"><ele>337</ele><time>2020-08-11T13:25:20Z</time><name>PT1265</name></trkpt>
<trkpt lat="54.662883" lon="-3.178981"><ele>337</ele><time>2020-08-11T13:25:21Z</time><name>PT1266</name></trkpt>
<trkpt lat="54.662876" lon="-3.178992"><ele>337</ele><time>2020-08-11T13:25:23Z</time><name>PT1267</name></trkpt>
<trkpt lat="54.662862" lon="-3.179002"><ele>336</ele><time>2020-08-11T13:25:24Z</time><name>PT1268</name></trkpt>
<trkpt lat="54.662850" lon="-3.179008"><ele>336</ele><time>2020-08-11T13:25:25Z</time><name>PT1269</name></trkpt>
<trkpt lat="54.662837" lon="-3.179007"><ele>336</ele><time>2020-08-11T13:25:26Z</time><name>PT1270</name></trkpt>
<trkpt lat="54.662829" lon="-3.179006"><ele>336</ele><time>2020-08-11T13:25:27Z</time><name>PT1271</name></trkpt>
<trkpt lat="54.662824" lon="-3.179003"><ele>336</ele><time>2020-08-11T13:25:28Z</time><name>PT1272</name></trkpt>
<trkpt lat="54.662818" lon="-3.179002"><ele>336</ele><time>2020-08-11T13:25:29Z</time><name>PT1273</name></trkpt>
<trkpt lat="54.662810" lon="-3.178997"><ele>335</ele><time>2020-08-11T13:25:29Z</time><name>PT1274</name></trkpt>
<trkpt lat="54.662802" lon="-3.178994"><ele>335</ele><time>2020-08-11T13:25:31Z</time><name>PT1275</name></trkpt>
<trkpt lat="54.662792" lon="-3.178993"><ele>335</ele><time>2020-08-11T13:25:32Z</time><name>PT1276</name></trkpt>
<trkpt lat="54.662787" lon="-3.178994"><ele>335</ele><time>2020-08-11T13:25:33Z</time><name>PT1277</name></trkpt>
<trkpt lat="54.662769" lon="-3.178999"><ele>335</ele><time>2020-08-11T13:25:35Z</time><name>PT1278</name></trkpt>
<trkpt lat="54.662760" lon="-3.178995"><ele>335</ele><time>2020-08-11T13:25:35Z</time><name>PT1279</name></trkpt>
<trkpt lat="54.662754" lon="-3.178992"><ele>335</ele><time>2020-08-11T13:25:37Z</time><name>PT1280</name></trkpt>
<trkpt lat="54.662748" lon="-3.178988"><ele>336</ele><time>2020-08-11T13:25:38Z</time><name>PT1281</name></trkpt>
<trkpt lat="54.662738" lon="-3.178988"><ele>336</ele><time>2020-08-11T13:25:38Z</time><name>PT1282</name></trkpt>
<trkpt lat="54.662731" lon="-3.178991"><ele>336</ele><time>2020-08-11T13:25:39Z</time><name>PT1283</name></trkpt>
<trkpt lat="54.662723" lon="-3.178985"><ele>335</ele><time>2020-08-11T13:25:41Z</time><name>PT1284</name></trkpt>
<trkpt lat="54.662713" lon="-3.178977"><ele>335</ele><time>2020-08-11T13:25:41Z</time><name>PT1285</name></trkpt>
<trkpt lat="54.662704" lon="-3.178973"><ele>335</ele><time>2020-08-11T13:25:42Z</time><name>PT1286</name></trkpt>
<trkpt lat="54.662696" lon="-3.178966"><ele>335</ele><time>2020-08-11T13:25:44Z</time><name>PT1287</name></trkpt>
<trkpt lat="54.662687" lon="-3.178952"><ele>336</ele><time>2020-08-11T13:25:44Z</time><name>PT1288</name></trkpt>
<trkpt lat="54.662681" lon="-3.178946"><ele>336</ele><time>2020-08-11T13:25:46Z</time><name>PT1289</name></trkpt>
<trkpt lat="54.662680" lon="-3.178934"><ele>336</ele><time>2020-08-11T13:25:47Z</time><name>PT1290</name></trkpt>
<trkpt lat="54.662680" lon="-3.178923"><ele>336</ele><time>2020-08-11T13:25:47Z</time><name>PT1291</name></trkpt>
<trkpt lat="54.662675" lon="-3.178913"><ele>336</ele><time>2020-08-11T13:25:49Z</time><name>PT1292</name></trkpt>
<trkpt lat="54.662668" lon="-3.178904"><ele>337</ele><time>2020-08-11T13:25:50Z</time><name>PT1293</name></trkpt>
<trkpt lat="54.662665" lon="-3.178897"><ele>337</ele><time>2020-08-11T13:25:50Z</time><name>PT1294</name></trkpt>
<trkpt lat="54.662665" lon="-3.178894"><ele>337</ele><time>2020-08-11T13:25:52Z</time><name>PT1295</name></trkpt>
<trkpt lat="54.662665" lon="-3.178891"><ele>337</ele><time>2020-08-11T13:25:53Z</time><name>PT1296</name></trkpt>
<trkpt lat="54.662665" lon="-3.178890"><ele>336</ele><time>2020-08-11T13:25:54Z</time><name>PT1297</name></trkpt>
<trkpt lat="54.662665" lon="-3.178890"><ele>336</ele><time>2020-08-11T13:25:54Z</time><name>PT1298</name></trkpt>
<trkpt lat="54.662666" lon="-3.178890"><ele>337</ele><time>2020-08-11T13:25:56Z</time><name>PT1299</name></trkpt>
<trkpt lat="54.662668" lon="-3.178894"><ele>337</ele><time>2020-08-11T13:26:33Z</time><name>PT1300</name></trkpt>
<trkpt lat="54.662670" lon="-3.178888"><ele>337</ele><time>2020-08-11T13:26:35Z</time><name>PT1301</name></trkpt>
<trkpt lat="54.662671" lon="-3.178886"><ele>336</ele><time>2020-08-11T13:26:35Z</time><name>PT1302</name></trkpt>
<trkpt lat="54.662671" lon="-3.178883"><ele>337</ele><time>2020-08-11T13:26:36Z</time><name>PT1303</name></trkpt>
<trkpt lat="54.662670" lon="-3.178882"><ele>337</ele><time>2020-08-11T13:26:38Z</time><name>PT1304</name></trkpt>
<trkpt lat="54.662671" lon="-3.178879"><ele>337</ele><time>2020-08-11T13:26:38Z</time><name>PT1305</name></trkpt>
<trkpt lat="54.662676" lon="-3.178877"><ele>337</ele><time>2020-08-11T13:26:39Z</time><name>PT1306</name></trkpt>
<trkpt lat="54.662676" lon="-3.178877"><ele>337</ele><time>2020-08-11T13:26:41Z</time><name>PT1307</name></trkpt>
<trkpt lat="54.662670" lon="-3.178861"><ele>337</ele><time>2020-08-11T13:28:23Z</time><name>PT1308</name></trkpt>
<trkpt lat="54.662673" lon="-3.178859"><ele>337</ele><time>2020-08-11T13:31:20Z</time><name>PT1309</name></trkpt>
<trkpt lat="54.662649" lon="-3.178856"><ele>337</ele><time>2020-08-11T13:33:03Z</time><name>PT1310</name></trkpt>
<trkpt lat="54.662653" lon="-3.178828"><ele>337</ele><time>2020-08-11T13:33:06Z</time><name>PT1311</name></trkpt>
<trkpt lat="54.662646" lon="-3.178818"><ele>336</ele><time>2020-08-11T13:33:09Z</time><name>PT1312</name></trkpt>
<trkpt lat="54.662640" lon="-3.178811"><ele>336</ele><time>2020-08-11T13:33:14Z</time><name>PT1313</name></trkpt>
<trkpt lat="54.662642" lon="-3.178836"><ele>336</ele><time>2020-08-11T13:33:44Z</time><name>PT1314</name></trkpt>
<trkpt lat="54.662651" lon="-3.178864"><ele>337</ele><time>2020-08-11T13:33:47Z</time><name>PT1315</name></trkpt>
<trkpt lat="54.662665" lon="-3.178876"><ele>336</ele><time>2020-08-11T13:33:51Z</time><name>PT1316</name></trkpt>
<trkpt lat="54.662665" lon="-3.178877"><ele>337</ele><time>2020-08-11T13:33:56Z</time><name>PT1317</name></trkpt>
<trkpt lat="54.662666" lon="-3.178846"><ele>335</ele><time>2020-08-11T13:34:20Z</time><name>PT1318</name></trkpt>
<trkpt lat="54.662670" lon="-3.178848"><ele>336</ele><time>2020-08-11T13:34:23Z</time><name>PT1319</name></trkpt>
<trkpt lat="54.662670" lon="-3.178854"><ele>336</ele><time>2020-08-11T13:41:00Z</time><name>PT1320</name></trkpt>
<trkpt lat="54.662671" lon="-3.178853"><ele>336</ele><time>2020-08-11T13:41:02Z</time><name>PT1321</name></trkpt>
<trkpt lat="54.662671" lon="-3.178851"><ele>336</ele><time>2020-08-11T13:41:02Z</time><name>PT1322</name></trkpt>
<trkpt lat="54.662670" lon="-3.178850"><ele>337</ele><time>2020-08-11T13:41:03Z</time><name>PT1323</name></trkpt>
<trkpt lat="54.662670" lon="-3.178850"><ele>337</ele><time>2020-08-11T13:41:05Z</time><name>PT1324</name></trkpt>
<trkpt lat="54.662669" lon="-3.178839"><ele>336</ele><time>2020-08-11T13:42:33Z</time><name>PT1325</name></trkpt>
<trkpt lat="54.662669" lon="-3.178837"><ele>336</ele><time>2020-08-11T13:42:35Z</time><name>PT1326</name></trkpt>
<trkpt lat="54.662668" lon="-3.178839"><ele>336</ele><time>2020-08-11T13:47:53Z</time><name>PT1327</name></trkpt>
<trkpt lat="54.662668" lon="-3.178843"><ele>336</ele><time>2020-08-11T13:47:56Z</time><name>PT1328</name></trkpt>
<trkpt lat="54.662671" lon="-3.178834"><ele>335</ele><time>2020-08-11T13:55:53Z</time><name>PT1329</name></trkpt>
<trkpt lat="54.662670" lon="-3.178826"><ele>335</ele><time>2020-08-11T13:56:34Z</time><name>PT1330</name></trkpt>
<trkpt lat="54.662670" lon="-3.178826"><ele>335</ele><time>2020-08-11T13:57:32Z</time><name>PT1331</name></trkpt>
<trkpt lat="54.662668" lon="-3.178841"><ele>334</ele><time>2020-08-11T14:04:47Z</time><name>PT1332</name></trkpt>
<trkpt lat="54.662666" lon="-3.178851"><ele>334</ele><time>2020-08-11T14:04:51Z</time><name>PT1333</name></trkpt>
<trkpt lat="54.662669" lon="-3.178854"><ele>334</ele><time>2020-08-11T14:05:18Z</time><name>PT1334</name></trkpt>
<trkpt lat="54.662665" lon="-3.178856"><ele>334</ele><time>2020-08-11T14:05:23Z</time><name>PT1335</name></trkpt>
<trkpt lat="54.662666" lon="-3.178849"><ele>334</ele><time>2020-08-11T14:05:51Z</time><name>PT1336</name></trkpt>
<trkpt lat="54.662667" lon="-3.178832"><ele>333</ele><time>2020-08-11T14:07:53Z</time><name>PT1337</name></trkpt>
<trkpt lat="54.662669" lon="-3.178827"><ele>333</ele><time>2020-08-11T14:08:21Z</time><name>PT1338</name></trkpt>
<trkpt lat="54.662665" lon="-3.178836"><ele>333</ele><time>2020-08-11T14:11:56Z</time><name>PT1339</name></trkpt>
<trkpt lat="54.662665" lon="-3.178836"><ele>333</ele><time>2020-08-11T14:11:59Z</time><name>PT1340</name></trkpt>
<trkpt lat="54.662667" lon="-3.178868"><ele>332</ele><time>2020-08-11T14:12:35Z</time><name>PT1341</name></trkpt>
<trkpt lat="54.662679" lon="-3.178913"><ele>333</ele><time>2020-08-11T14:12:39Z</time><name>PT1342</name></trkpt>
<trkpt lat="54.662701" lon="-3.178932"><ele>333</ele><time>2020-08-11T14:12:42Z</time><name>PT1343</name></trkpt>
<trkpt lat="54.662734" lon="-3.178952"><ele>332</ele><time>2020-08-11T14:12:47Z</time><name>PT1344</name></trkpt>
<trkpt lat="54.662765" lon="-3.178974"><ele>333</ele><time>2020-08-11T14:12:50Z</time><name>PT1345</name></trkpt>
<trkpt lat="54.662793" lon="-3.178981"><ele>333</ele><time>2020-08-11T14:12:53Z</time><name>PT1346</name></trkpt>
<trkpt lat="54.662830" lon="-3.178999"><ele>332</ele><time>2020-08-11T14:12:57Z</time><name>PT1347</name></trkpt>
<trkpt lat="54.662855" lon="-3.179013"><ele>332</ele><time>2020-08-11T14:13:01Z</time><name>PT1348</name></trkpt>
<trkpt lat="54.662892" lon="-3.179028"><ele>333</ele><time>2020-08-11T14:13:05Z</time><name>PT1349</name></trkpt>
<trkpt lat="54.662924" lon="-3.179013"><ele>333</ele><time>2020-08-11T14:13:08Z</time><name>PT1350</name></trkpt>
<trkpt lat="54.662942" lon="-3.178996"><ele>333</ele><time>2020-08-11T14:13:11Z</time><name>PT1351</name></trkpt>
<trkpt lat="54.662960" lon="-3.178973"><ele>333</ele><time>2020-08-11T14:13:15Z</time><name>PT1352</name></trkpt>
<trkpt lat="54.662988" lon="-3.178945"><ele>332</ele><time>2020-08-11T14:13:20Z</time><name>PT1353</name></trkpt>
<trkpt lat="54.663004" lon="-3.178942"><ele>333</ele><time>2020-08-11T14:13:23Z</time><name>PT1354</name></trkpt>
<trkpt lat="54.663030" lon="-3.178937"><ele>332</ele><time>2020-08-11T14:13:26Z</time><name>PT1355</name></trkpt>
<trkpt lat="54.663058" lon="-3.178932"><ele>331</ele><time>2020-08-11T14:13:30Z</time><name>PT1356</name></trkpt>
<trkpt lat="54.663082" lon="-3.178925"><ele>329</ele><time>2020-08-11T14:13:35Z</time><name>PT1357</name></trkpt>
<trkpt lat="54.663117" lon="-3.178896"><ele>329</ele><time>2020-08-11T14:13:38Z</time><name>PT1358</name></trkpt>
<trkpt lat="54.663143" lon="-3.178890"><ele>329</ele><time>2020-08-11T14:13:41Z</time><name>PT1359</name></trkpt>
<trkpt lat="54.663181" lon="-3.178875"><ele>327</ele><time>2020-08-11T14:13:45Z</time><name>PT1360</name></trkpt>
<trkpt lat="54.663203" lon="-3.178863"><ele>327</ele><time>2020-08-11T14:13:48Z</time><name>PT1361</name></trkpt>
<trkpt lat="54.663226" lon="-3.178858"><ele>327</ele><time>2020-08-11T14:13:51Z</time><name>PT1362</name></trkpt>
<trkpt lat="54.663246" lon="-3.178849"><ele>326</ele><time>2020-08-11T14:13:54Z</time><name>PT1363</name></trkpt>
<trkpt lat="54.663266" lon="-3.178845"><ele>325</ele><time>2020-08-11T14:13:58Z</time><name>PT1364</name></trkpt>
<trkpt lat="54.663295" lon="-3.178847"><ele>324</ele><time>2020-08-11T14:14:02Z</time><name>PT1365</name></trkpt>
<trkpt lat="54.663309" lon="-3.178839"><ele>325</ele><time>2020-08-11T14:14:05Z</time><name>PT1366</name></trkpt>
<trkpt lat="54.663330" lon="-3.178829"><ele>322</ele><time>2020-08-11T14:14:08Z</time><name>PT1367</name></trkpt>
<trkpt lat="54.663351" lon="-3.178838"><ele>323</ele><time>2020-08-11T14:14:11Z</time><name>PT1368</name></trkpt>
<trkpt lat="54.663373" lon="-3.178843"><ele>321</ele><time>2020-08-11T14:14:15Z</time><name>PT1369</name></trkpt>
<trkpt lat="54.663390" lon="-3.178855"><ele>320</ele><time>2020-08-11T14:14:18Z</time><name>PT1370</name></trkpt>
<trkpt lat="54.663414" lon="-3.178852"><ele>318</ele><time>2020-08-11T14:14:23Z</time><name>PT1371</name></trkpt>
<trkpt lat="54.663436" lon="-3.178850"><ele>318</ele><time>2020-08-11T14:14:26Z</time><name>PT1372</name></trkpt>
<trkpt lat="54.663465" lon="-3.178846"><ele>317</ele><time>2020-08-11T14:14:29Z</time><name>PT1373</name></trkpt>
<trkpt lat="54.663495" lon="-3.178850"><ele>316</ele><time>2020-08-11T14:14:33Z</time><name>PT1374</name></trkpt>
<trkpt lat="54.663514" lon="-3.178847"><ele>317</ele><time>2020-08-11T14:14:36Z</time><name>PT1375</name></trkpt>
<trkpt lat="54.663549" lon="-3.178850"><ele>315</ele><time>2020-08-11T14:14:41Z</time><name>PT1376</name></trkpt>
<trkpt lat="54.663572" lon="-3.178867"><ele>314</ele><time>2020-08-11T14:14:44Z</time><name>PT1377</name></trkpt>
<trkpt lat="54.663602" lon="-3.178848"><ele>313</ele><time>2020-08-11T14:14:47Z</time><name>PT1378</name></trkpt>
<trkpt lat="54.663628" lon="-3.178849"><ele>311</ele><time>2020-08-11T14:14:51Z</time><name>PT1379</name></trkpt>
<trkpt lat="54.663658" lon="-3.178878"><ele>310</ele><time>2020-08-11T14:14:56Z</time><name>PT1380</name></trkpt>
<trkpt lat="54.663685" lon="-3.178896"><ele>310</ele><time>2020-08-11T14:14:59Z</time><name>PT1381</name></trkpt>
<trkpt lat="54.663715" lon="-3.178921"><ele>310</ele><time>2020-08-11T14:15:02Z</time><name>PT1382</name></trkpt>
<trkpt lat="54.663744" lon="-3.178940"><ele>309</ele><time>2020-08-11T14:15:05Z</time><name>PT1383</name></trkpt>
<trkpt lat="54.663771" lon="-3.178955"><ele>309</ele><time>2020-08-11T14:15:08Z</time><name>PT1384</name></trkpt>
<trkpt lat="54.663804" lon="-3.178975"><ele>309</ele><time>2020-08-11T14:15:11Z</time><name>PT1385</name></trkpt>
<trkpt lat="54.663831" lon="-3.178989"><ele>308</ele><time>2020-08-11T14:15:14Z</time><name>PT1386</name></trkpt>
<trkpt lat="54.663866" lon="-3.179019"><ele>307</ele><time>2020-08-11T14:15:18Z</time><name>PT1387</name></trkpt>
<trkpt lat="54.663894" lon="-3.179029"><ele>307</ele><time>2020-08-11T14:15:21Z</time><name>PT1388</name></trkpt>
<trkpt lat="54.663922" lon="-3.179057"><ele>306</ele><time>2020-08-11T14:15:24Z</time><name>PT1389</name></trkpt>
<trkpt lat="54.663953" lon="-3.179070"><ele>306</ele><time>2020-08-11T14:15:27Z</time><name>PT1390</name></trkpt>
<trkpt lat="54.663986" lon="-3.179095"><ele>306</ele><time>2020-08-11T14:15:30Z</time><name>PT1391</name></trkpt>
<trkpt lat="54.664026" lon="-3.179111"><ele>306</ele><time>2020-08-11T14:15:33Z</time><name>PT1392</name></trkpt>
<trkpt lat="54.664059" lon="-3.179121"><ele>307</ele><time>2020-08-11T14:15:37Z</time><name>PT1393</name></trkpt>
<trkpt lat="54.664089" lon="-3.179126"><ele>307</ele><time>2020-08-11T14:15:40Z</time><name>PT1394</name></trkpt>
<trkpt lat="54.664124" lon="-3.179139"><ele>307</ele><time>2020-08-11T14:15:43Z</time><name>PT1395</name></trkpt>
<trkpt lat="54.664155" lon="-3.179148"><ele>306</ele><time>2020-08-11T14:15:46Z</time><name>PT1396</name></trkpt>
<trkpt lat="54.664167" lon="-3.179176"><ele>304</ele><time>2020-08-11T14:15:50Z</time><name>PT1397</name></trkpt>
<trkpt lat="54.664206" lon="-3.179202"><ele>304</ele><time>2020-08-11T14:15:53Z</time><name>PT1398</name></trkpt>
<trkpt lat="54.664237" lon="-3.179203"><ele>304</ele><time>2020-08-11T14:15:56Z</time><name>PT1399</name></trkpt>
<trkpt lat="54.664265" lon="-3.179210"><ele>305</ele><time>2020-08-11T14:15:59Z</time><name>PT1400</name></trkpt>
<trkpt lat="54.664295" lon="-3.179209"><ele>307</ele><time>2020-08-11T14:16:03Z</time><name>PT1401</name></trkpt>
<trkpt lat="54.664319" lon="-3.179193"><ele>308</ele><time>2020-08-11T14:16:06Z</time><name>PT1402</name></trkpt>
<trkpt lat="54.664345" lon="-3.179183"><ele>309</ele><time>2020-08-11T14:16:09Z</time><name>PT1403</name></trkpt>
<trkpt lat="54.664375" lon="-3.179173"><ele>310</ele><time>2020-08-11T14:16:12Z</time><name>PT1404</name></trkpt>
<trkpt lat="54.664415" lon="-3.179173"><ele>311</ele><time>2020-08-11T14:16:17Z</time><name>PT1405</name></trkpt>
<trkpt lat="54.664445" lon="-3.179179"><ele>310</ele><time>2020-08-11T14:16:20Z</time><name>PT1406</name></trkpt>
<trkpt lat="54.664476" lon="-3.179180"><ele>310</ele><time>2020-08-11T14:16:23Z</time><name>PT1407</name></trkpt>
<trkpt lat="54.664517" lon="-3.179196"><ele>309</ele><time>2020-08-11T14:16:26Z</time><name>PT1408</name></trkpt>
<trkpt lat="54.664546" lon="-3.179218"><ele>310</ele><time>2020-08-11T14:16:29Z</time><name>PT1409</name></trkpt>
<trkpt lat="54.664583" lon="-3.179238"><ele>309</ele><time>2020-08-11T14:16:33Z</time><name>PT1410</name></trkpt>
<trkpt lat="54.664609" lon="-3.179256"><ele>309</ele><time>2020-08-11T14:16:36Z</time><name>PT1411</name></trkpt>
<trkpt lat="54.664650" lon="-3.179261"><ele>310</ele><time>2020-08-11T14:16:41Z</time><name>PT1412</name></trkpt>
<trkpt lat="54.664679" lon="-3.179251"><ele>310</ele><time>2020-08-11T14:16:44Z</time><name>PT1413</name></trkpt>
<trkpt lat="54.664701" lon="-3.179243"><ele>310</ele><time>2020-08-11T14:16:47Z</time><name>PT1414</name></trkpt>
<trkpt lat="54.664732" lon="-3.179235"><ele>309</ele><time>2020-08-11T14:16:50Z</time><name>PT1415</name></trkpt>
<trkpt lat="54.664764" lon="-3.179232"><ele>308</ele><time>2020-08-11T14:16:53Z</time><name>PT1416</name></trkpt>
<trkpt lat="54.664801" lon="-3.179210"><ele>308</ele><time>2020-08-11T14:16:57Z</time><name>PT1417</name></trkpt>
<trkpt lat="54.664819" lon="-3.179195"><ele>307</ele><time>2020-08-11T14:17:00Z</time><name>PT1418</name></trkpt>
<trkpt lat="54.664846" lon="-3.179185"><ele>306</ele><time>2020-08-11T14:17:03Z</time><name>PT1419</name></trkpt>
<trkpt lat="54.664883" lon="-3.179159"><ele>307</ele><time>2020-08-11T14:17:08Z</time><name>PT1420</name></trkpt>
<trkpt lat="54.664929" lon="-3.179134"><ele>306</ele><time>2020-08-11T14:17:11Z</time><name>PT1421</name></trkpt>
<trkpt lat="54.664955" lon="-3.179122"><ele>306</ele><time>2020-08-11T14:17:14Z</time><name>PT1422</name></trkpt>
<trkpt lat="54.664995" lon="-3.179102"><ele>306</ele><time>2020-08-11T14:17:18Z</time><name>PT1423</name></trkpt>
<trkpt lat="54.665030" lon="-3.179081"><ele>306</ele><time>2020-08-11T14:17:21Z</time><name>PT1424</name></trkpt>
<trkpt lat="54.665052" lon="-3.179059"><ele>306</ele><time>2020-08-11T14:17:24Z</time><name>PT1425</name></trkpt>
<trkpt lat="54.665082" lon="-3.179037"><ele>306</ele><time>2020-08-11T14:17:29Z</time><name>PT1426</name></trkpt>
<trkpt lat="54.665104" lon="-3.178990"><ele>307</ele><time>2020-08-11T14:17:32Z</time><name>PT1427</name></trkpt>
<trkpt lat="54.665108" lon="-3.178978"><ele>307</ele><time>2020-08-11T14:17:36Z</time><name>PT1428</name></trkpt>
<trkpt lat="54.665140" lon="-3.178965"><ele>306</ele><time>2020-08-11T14:17:44Z</time><name>PT1429</name></trkpt>
<trkpt lat="54.665156" lon="-3.178921"><ele>305</ele><time>2020-08-11T14:17:47Z</time><name>PT1430</name></trkpt>
<trkpt lat="54.665159" lon="-3.178886"><ele>303</ele><time>2020-08-11T14:17:50Z</time><name>PT1431</name></trkpt>
<trkpt lat="54.665177" lon="-3.178846"><ele>303</ele><time>2020-08-11T14:17:54Z</time><name>PT1432</name></trkpt>
<trkpt lat="54.665187" lon="-3.178821"><ele>302</ele><time>2020-08-11T14:17:59Z</time><name>PT1433</name></trkpt>
<trkpt lat="54.665198" lon="-3.178803"><ele>302</ele><time>2020-08-11T14:18:02Z</time><name>PT1434</name></trkpt>
<trkpt lat="54.665207" lon="-3.178805"><ele>301</ele><time>2020-08-11T14:18:05Z</time><name>PT1435</name></trkpt>
<trkpt lat="54.665230" lon="-3.178820"><ele>300</ele><time>2020-08-11T14:18:08Z</time><name>PT1436</name></trkpt>
<trkpt lat="54.665251" lon="-3.178836"><ele>298</ele><time>2020-08-11T14:18:11Z</time><name>PT1437</name></trkpt>
<trkpt lat="54.665254" lon="-3.178836"><ele>298</ele><time>2020-08-11T14:18:14Z</time><name>PT1438</name></trkpt>
<trkpt lat="54.665262" lon="-3.178850"><ele>298</ele><time>2020-08-11T14:18:29Z</time><name>PT1439</name></trkpt>
<trkpt lat="54.665279" lon="-3.178872"><ele>297</ele><time>2020-08-11T14:18:32Z</time><name>PT1440</name></trkpt>
<trkpt lat="54.665306" lon="-3.178845"><ele>296</ele><time>2020-08-11T14:18:35Z</time><name>PT1441</name></trkpt>
<trkpt lat="54.665332" lon="-3.178825"><ele>296</ele><time>2020-08-11T14:18:39Z</time><name>PT1442</name></trkpt>
<trkpt lat="54.665358" lon="-3.178813"><ele>295</ele><time>2020-08-11T14:18:42Z</time><name>PT1443</name></trkpt>
<trkpt lat="54.665382" lon="-3.178813"><ele>294</ele><time>2020-08-11T14:18:45Z</time><name>PT1444</name></trkpt>
<trkpt lat="54.665408" lon="-3.178788"><ele>294</ele><time>2020-08-11T14:18:50Z</time><name>PT1445</name></trkpt>
<trkpt lat="54.665422" lon="-3.178770"><ele>294</ele><time>2020-08-11T14:18:53Z</time><name>PT1446</name></trkpt>
<trkpt lat="54.665443" lon="-3.178746"><ele>293</ele><time>2020-08-11T14:18:56Z</time><name>PT1447</name></trkpt>
<trkpt lat="54.665463" lon="-3.178724"><ele>292</ele><time>2020-08-11T14:19:00Z</time><name>PT1448</name></trkpt>
<trkpt lat="54.665483" lon="-3.178706"><ele>292</ele><time>2020-08-11T14:19:03Z</time><name>PT1449</name></trkpt>
<trkpt lat="54.665501" lon="-3.178711"><ele>291</ele><time>2020-08-11T14:19:08Z</time><name>PT1450</name></trkpt>
<trkpt lat="54.665527" lon="-3.178714"><ele>289</ele><time>2020-08-11T14:19:11Z</time><name>PT1451</name></trkpt>
<trkpt lat="54.665554" lon="-3.178701"><ele>289</ele><time>2020-08-11T14:19:14Z</time><name>PT1452</name></trkpt>
<trkpt lat="54.665585" lon="-3.178694"><ele>288</ele><time>2020-08-11T14:19:18Z</time><name>PT1453</name></trkpt>
<trkpt lat="54.665613" lon="-3.178693"><ele>287</ele><time>2020-08-11T14:19:21Z</time><name>PT1454</name></trkpt>
<trkpt lat="54.665645" lon="-3.178704"><ele>287</ele><time>2020-08-11T14:19:25Z</time><name>PT1455</name></trkpt>
<trkpt lat="54.665663" lon="-3.178724"><ele>285</ele><time>2020-08-11T14:19:29Z</time><name>PT1456</name></trkpt>
<trkpt lat="54.665679" lon="-3.178740"><ele>285</ele><time>2020-08-11T14:19:33Z</time><name>PT1457</name></trkpt>
<trkpt lat="54.665691" lon="-3.178720"><ele>285</ele><time>2020-08-11T14:19:36Z</time><name>PT1458</name></trkpt>
<trkpt lat="54.665708" lon="-3.178706"><ele>285</ele><time>2020-08-11T14:19:39Z</time><name>PT1459</name></trkpt>
<trkpt lat="54.665715" lon="-3.178689"><ele>284</ele><time>2020-08-11T14:19:42Z</time><name>PT1460</name></trkpt>
<trkpt lat="54.665727" lon="-3.178695"><ele>284</ele><time>2020-08-11T14:19:47Z</time><name>PT1461</name></trkpt>
<trkpt lat="54.665729" lon="-3.178693"><ele>284</ele><time>2020-08-11T14:19:47Z</time><name>PT1462</name></trkpt>
<trkpt lat="54.665731" lon="-3.178692"><ele>284</ele><time>2020-08-11T14:19:56Z</time><name>PT1463</name></trkpt>
<trkpt lat="54.665736" lon="-3.178688"><ele>284</ele><time>2020-08-11T14:19:56Z</time><name>PT1464</name></trkpt>
<trkpt lat="54.665740" lon="-3.178688"><ele>284</ele><time>2020-08-11T14:19:57Z</time><name>PT1465</name></trkpt>
<trkpt lat="54.665743" lon="-3.178690"><ele>284</ele><time>2020-08-11T14:19:59Z</time><name>PT1466</name></trkpt>
<trkpt lat="54.665749" lon="-3.178691"><ele>283</ele><time>2020-08-11T14:19:59Z</time><name>PT1467</name></trkpt>
<trkpt lat="54.665754" lon="-3.178695"><ele>283</ele><time>2020-08-11T14:20:00Z</time><name>PT1468</name></trkpt>
<trkpt lat="54.665758" lon="-3.178700"><ele>283</ele><time>2020-08-11T14:20:02Z</time><name>PT1469</name></trkpt>
<trkpt lat="54.665763" lon="-3.178705"><ele>283</ele><time>2020-08-11T14:20:02Z</time><name>PT1470</name></trkpt>
<trkpt lat="54.665769" lon="-3.178706"><ele>283</ele><time>2020-08-11T14:20:03Z</time><name>PT1471</name></trkpt>
<trkpt lat="54.665772" lon="-3.178701"><ele>282</ele><time>2020-08-11T14:20:05Z</time><name>PT1472</name></trkpt>
<trkpt lat="54.665772" lon="-3.178690"><ele>282</ele><time>2020-08-11T14:20:05Z</time><name>PT1473</name></trkpt>
<trkpt lat="54.665770" lon="-3.178676"><ele>282</ele><time>2020-08-11T14:20:06Z</time><name>PT1474</name></trkpt>
<trkpt lat="54.665771" lon="-3.178667"><ele>282</ele><time>2020-08-11T14:20:08Z</time><name>PT1475</name></trkpt>
<trkpt lat="54.665771" lon="-3.178663"><ele>282</ele><time>2020-08-11T14:20:08Z</time><name>PT1476</name></trkpt>
<trkpt lat="54.665775" lon="-3.178658"><ele>281</ele><time>2020-08-11T14:20:09Z</time><name>PT1477</name></trkpt>
<trkpt lat="54.665779" lon="-3.178648"><ele>282</ele><time>2020-08-11T14:20:10Z</time><name>PT1478</name></trkpt>
<trkpt lat="54.665782" lon="-3.178640"><ele>281</ele><time>2020-08-11T14:20:11Z</time><name>PT1479</name></trkpt>
<trkpt lat="54.665782" lon="-3.178630"><ele>281</ele><time>2020-08-11T14:20:12Z</time><name>PT1480</name></trkpt>
<trkpt lat="54.665783" lon="-3.178613"><ele>281</ele><time>2020-08-11T14:20:14Z</time><name>PT1481</name></trkpt>
<trkpt lat="54.665787" lon="-3.178590"><ele>281</ele><time>2020-08-11T14:20:14Z</time><name>PT1482</name></trkpt>
<trkpt lat="54.665787" lon="-3.178575"><ele>280</ele><time>2020-08-11T14:20:15Z</time><name>PT1483</name></trkpt>
<trkpt lat="54.665788" lon="-3.178567"><ele>280</ele><time>2020-08-11T14:20:16Z</time><name>PT1484</name></trkpt>
<trkpt lat="54.665790" lon="-3.178552"><ele>280</ele><time>2020-08-11T14:20:17Z</time><name>PT1485</name></trkpt>
<trkpt lat="54.665791" lon="-3.178535"><ele>280</ele><time>2020-08-11T14:20:18Z</time><name>PT1486</name></trkpt>
<trkpt lat="54.665791" lon="-3.178519"><ele>280</ele><time>2020-08-11T14:20:19Z</time><name>PT1487</name></trkpt>
<trkpt lat="54.665790" lon="-3.178506"><ele>279</ele><time>2020-08-11T14:20:20Z</time><name>PT1488</name></trkpt>
<trkpt lat="54.665790" lon="-3.178491"><ele>279</ele><time>2020-08-11T14:20:21Z</time><name>PT1489</name></trkpt>
<trkpt lat="54.665791" lon="-3.178474"><ele>279</ele><time>2020-08-11T14:20:22Z</time><name>PT1490</name></trkpt>
<trkpt lat="54.665790" lon="-3.178455"><ele>279</ele><time>2020-08-11T14:20:23Z</time><name>PT1491</name></trkpt>
<trkpt lat="54.665790" lon="-3.178435"><ele>278</ele><time>2020-08-11T14:20:25Z</time><name>PT1492</name></trkpt>
<trkpt lat="54.665787" lon="-3.178419"><ele>278</ele><time>2020-08-11T14:20:26Z</time><name>PT1493</name></trkpt>
<trkpt lat="54.665785" lon="-3.178407"><ele>278</ele><time>2020-08-11T14:20:27Z</time><name>PT1494</name></trkpt>
<trkpt lat="54.665781" lon="-3.178395"><ele>278</ele><time>2020-08-11T14:20:28Z</time><name>PT1495</name></trkpt>
<trkpt lat="54.665780" lon="-3.178380"><ele>278</ele><time>2020-08-11T14:20:28Z</time><name>PT1496</name></trkpt>
<trkpt lat="54.665776" lon="-3.178364"><ele>277</ele><time>2020-08-11T14:20:30Z</time><name>PT1497</name></trkpt>
<trkpt lat="54.665774" lon="-3.178349"><ele>277</ele><time>2020-08-11T14:20:30Z</time><name>PT1498</name></trkpt>
<trkpt lat="54.665775" lon="-3.178334"><ele>276</ele><time>2020-08-11T14:20:32Z</time><name>PT1499</name></trkpt>
<trkpt lat="54.665773" lon="-3.178316"><ele>276</ele><time>2020-08-11T14:20:32Z</time><name>PT1500</name></trkpt>
<trkpt lat="54.665772" lon="-3.178294"><ele>276</ele><time>2020-08-11T14:20:34Z</time><name>PT1501</name></trkpt>
<trkpt lat="54.665769" lon="-3.178279"><ele>275</ele><time>2020-08-11T14:20:34Z</time><name>PT1502</name></trkpt>
<trkpt lat="54.665767" lon="-3.178268"><ele>275</ele><time>2020-08-11T14:20:35Z</time><name>PT1503</name></trkpt>
<trkpt lat="54.665765" lon="-3.178256"><ele>275</ele><time>2020-08-11T14:20:36Z</time><name>PT1504</name></trkpt>
<trkpt lat="54.665760" lon="-3.178242"><ele>275</ele><time>2020-08-11T14:20:38Z</time><name>PT1505</name></trkpt>
<trkpt lat="54.665757" lon="-3.178228"><ele>274</ele><time>2020-08-11T14:20:38Z</time><name>PT1506</name></trkpt>
<trkpt lat="54.665752" lon="-3.178214"><ele>274</ele><time>2020-08-11T14:20:39Z</time><name>PT1507</name></trkpt>
<trkpt lat="54.665746" lon="-3.178189"><ele>273</ele><time>2020-08-11T14:20:40Z</time><name>PT1508</name></trkpt>
<trkpt lat="54.665740" lon="-3.178172"><ele>273</ele><time>2020-08-11T14:20:41Z</time><name>PT1509</name></trkpt>
<trkpt lat="54.665734" lon="-3.178162"><ele>273</ele><time>2020-08-11T14:20:42Z</time><name>PT1510</name></trkpt>
<trkpt lat="54.665730" lon="-3.178154"><ele>273</ele><time>2020-08-11T14:20:44Z</time><name>PT1511</name></trkpt>
<trkpt lat="54.665727" lon="-3.178145"><ele>273</ele><time>2020-08-11T14:20:44Z</time><name>PT1512</name></trkpt>
<trkpt lat="54.665721" lon="-3.178133"><ele>272</ele><time>2020-08-11T14:20:45Z</time><name>PT1513</name></trkpt>
<trkpt lat="54.665716" lon="-3.178122"><ele>272</ele><time>2020-08-11T14:20:46Z</time><name>PT1514</name></trkpt>
<trkpt lat="54.665714" lon="-3.178113"><ele>272</ele><time>2020-08-11T14:20:47Z</time><name>PT1515</name></trkpt>
<trkpt lat="54.665710" lon="-3.178100"><ele>272</ele><time>2020-08-11T14:20:48Z</time><name>PT1516</name></trkpt>
<trkpt lat="54.665709" lon="-3.178086"><ele>271</ele><time>2020-08-11T14:20:49Z</time><name>PT1517</name></trkpt>
<trkpt lat="54.665708" lon="-3.178076"><ele>271</ele><time>2020-08-11T14:20:50Z</time><name>PT1518</name></trkpt>
<trkpt lat="54.665707" lon="-3.178070"><ele>271</ele><time>2020-08-11T14:20:51Z</time><name>PT1519</name></trkpt>
<trkpt lat="54.665708" lon="-3.178062"><ele>270</ele><time>2020-08-11T14:20:53Z</time><name>PT1520</name></trkpt>
<trkpt lat="54.665708" lon="-3.178056"><ele>271</ele><time>2020-08-11T14:20:53Z</time><name>PT1521</name></trkpt>
<trkpt lat="54.665705" lon="-3.178047"><ele>270</ele><time>2020-08-11T14:20:54Z</time><name>PT1522</name></trkpt>
<trkpt lat="54.665702" lon="-3.178035"><ele>269</ele><time>2020-08-11T14:20:55Z</time><name>PT1523</name></trkpt>
<trkpt lat="54.665698" lon="-3.178029"><ele>269</ele><time>2020-08-11T14:20:56Z</time><name>PT1524</name></trkpt>
<trkpt lat="54.665695" lon="-3.178027"><ele>270</ele><time>2020-08-11T14:20:57Z</time><name>PT1525</name></trkpt>
<trkpt lat="54.665692" lon="-3.178023"><ele>269</ele><time>2020-08-11T14:20:59Z</time><name>PT1526</name></trkpt>
<trkpt lat="54.665688" lon="-3.178023"><ele>269</ele><time>2020-08-11T14:20:59Z</time><name>PT1527</name></trkpt>
<trkpt lat="54.665686" lon="-3.178020"><ele>269</ele><time>2020-08-11T14:21:01Z</time><name>PT1528</name></trkpt>
<trkpt lat="54.665681" lon="-3.178018"><ele>269</ele><time>2020-08-11T14:21:01Z</time><name>PT1529</name></trkpt>
<trkpt lat="54.665678" lon="-3.178013"><ele>269</ele><time>2020-08-11T14:21:03Z</time><name>PT1530</name></trkpt>
<trkpt lat="54.665672" lon="-3.178004"><ele>269</ele><time>2020-08-11T14:21:03Z</time><name>PT1531</name></trkpt>
<trkpt lat="54.665669" lon="-3.177995"><ele>268</ele><time>2020-08-11T14:21:04Z</time><name>PT1532</name></trkpt>
<trkpt lat="54.665667" lon="-3.177988"><ele>268</ele><time>2020-08-11T14:21:05Z</time><name>PT1533</name></trkpt>
<trkpt lat="54.665665" lon="-3.177980"><ele>268</ele><time>2020-08-11T14:21:06Z</time><name>PT1534</name></trkpt>
<trkpt lat="54.665663" lon="-3.177969"><ele>267</ele><time>2020-08-11T14:21:08Z</time><name>PT1535</name></trkpt>
<trkpt lat="54.665661" lon="-3.177964"><ele>267</ele><time>2020-08-11T14:21:08Z</time><name>PT1536</name></trkpt>
<trkpt lat="54.665658" lon="-3.177961"><ele>267</ele><time>2020-08-11T14:21:09Z</time><name>PT1537</name></trkpt>
<trkpt lat="54.665655" lon="-3.177958"><ele>266</ele><time>2020-08-11T14:21:11Z</time><name>PT1538</name></trkpt>
<trkpt lat="54.665651" lon="-3.177941"><ele>266</ele><time>2020-08-11T14:21:11Z</time><name>PT1539</name></trkpt>
<trkpt lat="54.665644" lon="-3.177932"><ele>266</ele><time>2020-08-11T14:21:12Z</time><name>PT1540</name></trkpt>
<trkpt lat="54.665639" lon="-3.177924"><ele>265</ele><time>2020-08-11T14:21:13Z</time><name>PT1541</name></trkpt>
<trkpt lat="54.665636" lon="-3.177917"><ele>266</ele><time>2020-08-11T14:21:14Z</time><name>PT1542</name></trkpt>
<trkpt lat="54.665635" lon="-3.177912"><ele>265</ele><time>2020-08-11T14:21:15Z</time><name>PT1543</name></trkpt>
<trkpt lat="54.665630" lon="-3.177914"><ele>265</ele><time>2020-08-11T14:21:17Z</time><name>PT1544</name></trkpt>
<trkpt lat="54.665626" lon="-3.177906"><ele>265</ele><time>2020-08-11T14:21:17Z</time><name>PT1545</name></trkpt>
<trkpt lat="54.665625" lon="-3.177895"><ele>265</ele><time>2020-08-11T14:21:18Z</time><name>PT1546</name></trkpt>
<trkpt lat="54.665622" lon="-3.177877"><ele>264</ele><time>2020-08-11T14:21:19Z</time><name>PT1547</name></trkpt>
<trkpt lat="54.665623" lon="-3.177863"><ele>264</ele><time>2020-08-11T14:21:20Z</time><name>PT1548</name></trkpt>
<trkpt lat="54.665626" lon="-3.177845"><ele>265</ele><time>2020-08-11T14:21:21Z</time><name>PT1549</name></trkpt>
<trkpt lat="54.665627" lon="-3.177828"><ele>264</ele><time>2020-08-11T14:21:22Z</time><name>PT1550</name></trkpt>
<trkpt lat="54.665628" lon="-3.177819"><ele>264</ele><time>2020-08-11T14:21:23Z</time><name>PT1551</name></trkpt>
<trkpt lat="54.665625" lon="-3.177820"><ele>264</ele><time>2020-08-11T14:21:24Z</time><name>PT1552</name></trkpt>
<trkpt lat="54.665626" lon="-3.177823"><ele>263</ele><time>2020-08-11T14:21:25Z</time><name>PT1553</name></trkpt>
<trkpt lat="54.665633" lon="-3.177830"><ele>262</ele><time>2020-08-11T14:21:26Z</time><name>PT1554</name></trkpt>
<trkpt lat="54.665636" lon="-3.177834"><ele>262</ele><time>2020-08-11T14:21:27Z</time><name>PT1555</name></trkpt>
<trkpt lat="54.665637" lon="-3.177833"><ele>262</ele><time>2020-08-11T14:21:29Z</time><name>PT1556</name></trkpt>
<trkpt lat="54.665640" lon="-3.177831"><ele>262</ele><time>2020-08-11T14:21:29Z</time><name>PT1557</name></trkpt>
<trkpt lat="54.665638" lon="-3.177838"><ele>262</ele><time>2020-08-11T14:21:32Z</time><name>PT1558</name></trkpt>
<trkpt lat="54.665645" lon="-3.177836"><ele>262</ele><time>2020-08-11T14:21:32Z</time><name>PT1559</name></trkpt>
<trkpt lat="54.665662" lon="-3.177838"><ele>263</ele><time>2020-08-11T14:21:34Z</time><name>PT1560</name></trkpt>
<trkpt lat="54.665677" lon="-3.177833"><ele>263</ele><time>2020-08-11T14:21:34Z</time><name>PT1561</name></trkpt>
<trkpt lat="54.665686" lon="-3.177836"><ele>263</ele><time>2020-08-11T14:21:35Z</time><name>PT1562</name></trkpt>
<trkpt lat="54.665690" lon="-3.177838"><ele>263</ele><time>2020-08-11T14:21:36Z</time><name>PT1563</name></trkpt>
<trkpt lat="54.665704" lon="-3.177834"><ele>263</ele><time>2020-08-11T14:21:37Z</time><name>PT1564</name></trkpt>
<trkpt lat="54.665718" lon="-3.177832"><ele>263</ele><time>2020-08-11T14:21:38Z</time><name>PT1565</name></trkpt>
<trkpt lat="54.665736" lon="-3.177830"><ele>263</ele><time>2020-08-11T14:21:39Z</time><name>PT1566</name></trkpt>
<trkpt lat="54.665746" lon="-3.177828"><ele>263</ele><time>2020-08-11T14:21:41Z</time><name>PT1567</name></trkpt>
<trkpt lat="54.665757" lon="-3.177825"><ele>263</ele><time>2020-08-11T14:21:41Z</time><name>PT1568</name></trkpt>
<trkpt lat="54.665768" lon="-3.177820"><ele>263</ele><time>2020-08-11T14:21:42Z</time><name>PT1569</name></trkpt>
<trkpt lat="54.665779" lon="-3.177816"><ele>263</ele><time>2020-08-11T14:21:44Z</time><name>PT1570</name></trkpt>
<trkpt lat="54.665795" lon="-3.177805"><ele>263</ele><time>2020-08-11T14:21:44Z</time><name>PT1571</name></trkpt>
<trkpt lat="54.665806" lon="-3.177803"><ele>263</ele><time>2020-08-11T14:21:45Z</time><name>PT1572</name></trkpt>
<trkpt lat="54.665813" lon="-3.177800"><ele>263</ele><time>2020-08-11T14:21:46Z</time><name>PT1573</name></trkpt>
<trkpt lat="54.665824" lon="-3.177793"><ele>262</ele><time>2020-08-11T14:21:47Z</time><name>PT1574</name></trkpt>
<trkpt lat="54.665836" lon="-3.177791"><ele>262</ele><time>2020-08-11T14:21:49Z</time><name>PT1575</name></trkpt>
<trkpt lat="54.665847" lon="-3.177786"><ele>263</ele><time>2020-08-11T14:21:49Z</time><name>PT1576</name></trkpt>
<trkpt lat="54.665863" lon="-3.177779"><ele>263</ele><time>2020-08-11T14:21:50Z</time><name>PT1577</name></trkpt>
<trkpt lat="54.665873" lon="-3.177772"><ele>263</ele><time>2020-08-11T14:21:51Z</time><name>PT1578</name></trkpt>
<trkpt lat="54.665880" lon="-3.177766"><ele>263</ele><time>2020-08-11T14:21:52Z</time><name>PT1579</name></trkpt>
<trkpt lat="54.665890" lon="-3.177761"><ele>263</ele><time>2020-08-11T14:21:54Z</time><name>PT1580</name></trkpt>
<trkpt lat="54.665903" lon="-3.177757"><ele>263</ele><time>2020-08-11T14:21:54Z</time><name>PT1581</name></trkpt>
<trkpt lat="54.665918" lon="-3.177754"><ele>263</ele><time>2020-08-11T14:21:55Z</time><name>PT1582</name></trkpt>
<trkpt lat="54.665931" lon="-3.177749"><ele>263</ele><time>2020-08-11T14:21:56Z</time><name>PT1583</name></trkpt>
<trkpt lat="54.665938" lon="-3.177743"><ele>263</ele><time>2020-08-11T14:21:58Z</time><name>PT1584</name></trkpt>
<trkpt lat="54.665947" lon="-3.177734"><ele>263</ele><time>2020-08-11T14:21:59Z</time><name>PT1585</name></trkpt>
<trkpt lat="54.665958" lon="-3.177728"><ele>263</ele><time>2020-08-11T14:22:00Z</time><name>PT1586</name></trkpt>
<trkpt lat="54.665972" lon="-3.177729"><ele>263</ele><time>2020-08-11T14:22:01Z</time><name>PT1587</name></trkpt>
<trkpt lat="54.665986" lon="-3.177731"><ele>263</ele><time>2020-08-11T14:22:02Z</time><name>PT1588</name></trkpt>
<trkpt lat="54.665996" lon="-3.177729"><ele>263</ele><time>2020-08-11T14:22:02Z</time><name>PT1589</name></trkpt>
<trkpt lat="54.666003" lon="-3.177724"><ele>263</ele><time>2020-08-11T14:22:03Z</time><name>PT1590</name></trkpt>
<trkpt lat="54.666013" lon="-3.177722"><ele>263</ele><time>2020-08-11T14:22:05Z</time><name>PT1591</name></trkpt>
<trkpt lat="54.666024" lon="-3.177722"><ele>263</ele><time>2020-08-11T14:22:05Z</time><name>PT1592</name></trkpt>
<trkpt lat="54.666039" lon="-3.177719"><ele>263</ele><time>2020-08-11T14:22:06Z</time><name>PT1593</name></trkpt>
<trkpt lat="54.666048" lon="-3.177714"><ele>263</ele><time>2020-08-11T14:22:07Z</time><name>PT1594</name></trkpt>
<trkpt lat="54.666057" lon="-3.177714"><ele>263</ele><time>2020-08-11T14:22:08Z</time><name>PT1595</name></trkpt>
<trkpt lat="54.666070" lon="-3.177717"><ele>262</ele><time>2020-08-11T14:22:09Z</time><name>PT1596</name></trkpt>
<trkpt lat="54.666081" lon="-3.177717"><ele>262</ele><time>2020-08-11T14:22:11Z</time><name>PT1597</name></trkpt>
<trkpt lat="54.666096" lon="-3.177719"><ele>263</ele><time>2020-08-11T14:22:11Z</time><name>PT1598</name></trkpt>
<trkpt lat="54.666108" lon="-3.177723"><ele>262</ele><time>2020-08-11T14:22:12Z</time><name>PT1599</name></trkpt>
<trkpt lat="54.666116" lon="-3.177724"><ele>262</ele><time>2020-08-11T14:22:14Z</time><name>PT1600</name></trkpt>
<trkpt lat="54.666127" lon="-3.177723"><ele>262</ele><time>2020-08-11T14:22:14Z</time><name>PT1601</name></trkpt>
<trkpt lat="54.666137" lon="-3.177724"><ele>262</ele><time>2020-08-11T14:22:15Z</time><name>PT1602</name></trkpt>
<trkpt lat="54.666151" lon="-3.177724"><ele>262</ele><time>2020-08-11T14:22:16Z</time><name>PT1603</name></trkpt>
<trkpt lat="54.666162" lon="-3.177728"><ele>263</ele><time>2020-08-11T14:22:17Z</time><name>PT1604</name></trkpt>
<trkpt lat="54.666172" lon="-3.177731"><ele>263</ele><time>2020-08-11T14:22:18Z</time><name>PT1605</name></trkpt>
<trkpt lat="54.666179" lon="-3.177738"><ele>263</ele><time>2020-08-11T14:22:20Z</time><name>PT1606</name></trkpt>
<trkpt lat="54.666189" lon="-3.177743"><ele>263</ele><time>2020-08-11T14:22:20Z</time><name>PT1607</name></trkpt>
<trkpt lat="54.666199" lon="-3.177749"><ele>263</ele><time>2020-08-11T14:22:21Z</time><name>PT1608</name></trkpt>
<trkpt lat="54.666210" lon="-3.177754"><ele>263</ele><time>2020-08-11T14:22:23Z</time><name>PT1609</name></trkpt>
<trkpt lat="54.666220" lon="-3.177759"><ele>263</ele><time>2020-08-11T14:22:23Z</time><name>PT1610</name></trkpt>
<trkpt lat="54.666229" lon="-3.177765"><ele>263</ele><time>2020-08-11T14:22:24Z</time><name>PT1611</name></trkpt>
<trkpt lat="54.666238" lon="-3.177774"><ele>263</ele><time>2020-08-11T14:22:26Z</time><name>PT1612</name></trkpt>
<trkpt lat="54.666246" lon="-3.177783"><ele>263</ele><time>2020-08-11T14:22:26Z</time><name>PT1613</name></trkpt>
<trkpt lat="54.666255" lon="-3.177789"><ele>263</ele><time>2020-08-11T14:22:27Z</time><name>PT1614</name></trkpt>
<trkpt lat="54.666265" lon="-3.177796"><ele>263</ele><time>2020-08-11T14:22:29Z</time><name>PT1615</name></trkpt>
<trkpt lat="54.666274" lon="-3.177802"><ele>263</ele><time>2020-08-11T14:22:29Z</time><name>PT1616</name></trkpt>
<trkpt lat="54.666284" lon="-3.177808"><ele>263</ele><time>2020-08-11T14:22:30Z</time><name>PT1617</name></trkpt>
<trkpt lat="54.666289" lon="-3.177804"><ele>263</ele><time>2020-08-11T14:22:32Z</time><name>PT1618</name></trkpt>
<trkpt lat="54.666301" lon="-3.177813"><ele>262</ele><time>2020-08-11T14:22:32Z</time><name>PT1619</name></trkpt>
<trkpt lat="54.666312" lon="-3.177831"><ele>263</ele><time>2020-08-11T14:22:33Z</time><name>PT1620</name></trkpt>
<trkpt lat="54.666321" lon="-3.177840"><ele>262</ele><time>2020-08-11T14:22:35Z</time><name>PT1621</name></trkpt>
<trkpt lat="54.666330" lon="-3.177853"><ele>262</ele><time>2020-08-11T14:22:35Z</time><name>PT1622</name></trkpt>
<trkpt lat="54.666341" lon="-3.177865"><ele>262</ele><time>2020-08-11T14:22:36Z</time><name>PT1623</name></trkpt>
<trkpt lat="54.666353" lon="-3.177876"><ele>262</ele><time>2020-08-11T14:22:37Z</time><name>PT1624</name></trkpt>
<trkpt lat="54.666364" lon="-3.177891"><ele>262</ele><time>2020-08-11T14:22:38Z</time><name>PT1625</name></trkpt>
<trkpt lat="54.666374" lon="-3.177902"><ele>262</ele><time>2020-08-11T14:22:39Z</time><name>PT1626</name></trkpt>
<trkpt lat="54.666382" lon="-3.177912"><ele>261</ele><time>2020-08-11T14:22:40Z</time><name>PT1627</name></trkpt>
<trkpt lat="54.666390" lon="-3.177918"><ele>261</ele><time>2020-08-11T14:22:41Z</time><name>PT1628</name></trkpt>
<trkpt lat="54.666402" lon="-3.177927"><ele>261</ele><time>2020-08-11T14:22:42Z</time><name>PT1629</name></trkpt>
<trkpt lat="54.666411" lon="-3.177935"><ele>261</ele><time>2020-08-11T14:22:44Z</time><name>PT1630</name></trkpt>
<trkpt lat="54.666423" lon="-3.177945"><ele>261</ele><time>2020-08-11T14:22:44Z</time><name>PT1631</name></trkpt>
<trkpt lat="54.666433" lon="-3.177958"><ele>261</ele><time>2020-08-11T14:22:45Z</time><name>PT1632</name></trkpt>
<trkpt lat="54.666441" lon="-3.177966"><ele>261</ele><time>2020-08-11T14:22:46Z</time><name>PT1633</name></trkpt>
<trkpt lat="54.666445" lon="-3.177975"><ele>260</ele><time>2020-08-11T14:22:47Z</time><name>PT1634</name></trkpt>
<trkpt lat="54.666454" lon="-3.177983"><ele>260</ele><time>2020-08-11T14:22:48Z</time><name>PT1635</name></trkpt>
<trkpt lat="54.666464" lon="-3.177993"><ele>260</ele><time>2020-08-11T14:22:49Z</time><name>PT1636</name></trkpt>
<trkpt lat="54.666477" lon="-3.178004"><ele>260</ele><time>2020-08-11T14:22:50Z</time><name>PT1637</name></trkpt>
<trkpt lat="54.666490" lon="-3.178020"><ele>260</ele><time>2020-08-11T14:22:51Z</time><name>PT1638</name></trkpt>
<trkpt lat="54.666499" lon="-3.178028"><ele>260</ele><time>2020-08-11T14:22:52Z</time><name>PT1639</name></trkpt>
<trkpt lat="54.666507" lon="-3.178032"><ele>259</ele><time>2020-08-11T14:22:53Z</time><name>PT1640</name></trkpt>
<trkpt lat="54.666514" lon="-3.178036"><ele>258</ele><time>2020-08-11T14:22:54Z</time><name>PT1641</name></trkpt>
<trkpt lat="54.666524" lon="-3.178042"><ele>258</ele><time>2020-08-11T14:22:56Z</time><name>PT1642</name></trkpt>
<trkpt lat="54.666535" lon="-3.178051"><ele>259</ele><time>2020-08-11T14:22:56Z</time><name>PT1643</name></trkpt>
<trkpt lat="54.666548" lon="-3.178062"><ele>259</ele><time>2020-08-11T14:22:57Z</time><name>PT1644</name></trkpt>
<trkpt lat="54.666559" lon="-3.178064"><ele>258</ele><time>2020-08-11T14:22:58Z</time><name>PT1645</name></trkpt>
<trkpt lat="54.666565" lon="-3.178066"><ele>258</ele><time>2020-08-11T14:22:59Z</time><name>PT1646</name></trkpt>
<trkpt lat="54.666575" lon="-3.178070"><ele>258</ele><time>2020-08-11T14:23:00Z</time><name>PT1647</name></trkpt>
<trkpt lat="54.666584" lon="-3.178076"><ele>258</ele><time>2020-08-11T14:23:01Z</time><name>PT1648</name></trkpt>
<trkpt lat="54.666595" lon="-3.178083"><ele>258</ele><time>2020-08-11T14:23:02Z</time><name>PT1649</name></trkpt>
<trkpt lat="54.666611" lon="-3.178088"><ele>258</ele><time>2020-08-11T14:23:03Z</time><name>PT1650</name></trkpt>
<trkpt lat="54.666619" lon="-3.178088"><ele>257</ele><time>2020-08-11T14:23:04Z</time><name>PT1651</name></trkpt>
<trkpt lat="54.666627" lon="-3.178086"><ele>257</ele><time>2020-08-11T14:23:05Z</time><name>PT1652</name></trkpt>
<trkpt lat="54.666637" lon="-3.178087"><ele>257</ele><time>2020-08-11T14:23:06Z</time><name>PT1653</name></trkpt>
<trkpt lat="54.666647" lon="-3.178089"><ele>257</ele><time>2020-08-11T14:23:07Z</time><name>PT1654</name></trkpt>
<trkpt lat="54.666661" lon="-3.178090"><ele>257</ele><time>2020-08-11T14:23:08Z</time><name>PT1655</name></trkpt>
<trkpt lat="54.666703" lon="-3.178085"><ele>256</ele><time>2020-08-11T14:23:12Z</time><name>PT1656</name></trkpt>
<trkpt lat="54.666744" lon="-3.178089"><ele>256</ele><time>2020-08-11T14:23:16Z</time><name>PT1657</name></trkpt>
<trkpt lat="54.666784" lon="-3.178081"><ele>255</ele><time>2020-08-11T14:23:20Z</time><name>PT1658</name></trkpt>
<trkpt lat="54.666813" lon="-3.178076"><ele>255</ele><time>2020-08-11T14:23:23Z</time><name>PT1659</name></trkpt>
<trkpt lat="54.666857" lon="-3.178074"><ele>255</ele><time>2020-08-11T14:23:26Z</time><name>PT1660</name></trkpt>
<trkpt lat="54.666880" lon="-3.178059"><ele>253</ele><time>2020-08-11T14:23:29Z</time><name>PT1661</name></trkpt>
<trkpt lat="54.666913" lon="-3.178056"><ele>253</ele><time>2020-08-11T14:23:32Z</time><name>PT1662</name></trkpt>
<trkpt lat="54.666962" lon="-3.178062"><ele>253</ele><time>2020-08-11T14:23:36Z</time><name>PT1663</name></trkpt>
<trkpt lat="54.666993" lon="-3.178069"><ele>253</ele><time>2020-08-11T14:23:39Z</time><name>PT1664</name></trkpt>
<trkpt lat="54.667029" lon="-3.178078"><ele>253</ele><time>2020-08-11T14:23:42Z</time><name>PT1665</name></trkpt>
<trkpt lat="54.667055" lon="-3.178088"><ele>252</ele><time>2020-08-11T14:23:45Z</time><name>PT1666</name></trkpt>
<trkpt lat="54.667098" lon="-3.178096"><ele>252</ele><time>2020-08-11T14:23:50Z</time><name>PT1667</name></trkpt>
<trkpt lat="54.667143" lon="-3.178111"><ele>252</ele><time>2020-08-11T14:23:53Z</time><name>PT1668</name></trkpt>
<trkpt lat="54.667181" lon="-3.178107"><ele>251</ele><time>2020-08-11T14:23:57Z</time><name>PT1669</name></trkpt>
<trkpt lat="54.667222" lon="-3.178117"><ele>251</ele><time>2020-08-11T14:24:01Z</time><name>PT1670</name></trkpt>
<trkpt lat="54.667254" lon="-3.178125"><ele>251</ele><time>2020-08-11T14:24:05Z</time><name>PT1671</name></trkpt>
<trkpt lat="54.667291" lon="-3.178143"><ele>250</ele><time>2020-08-11T14:24:08Z</time><name>PT1672</name></trkpt>
<trkpt lat="54.667323" lon="-3.178151"><ele>249</ele><time>2020-08-11T14:24:13Z</time><name>PT1673</name></trkpt>
<trkpt lat="54.667359" lon="-3.178176"><ele>249</ele><time>2020-08-11T14:24:17Z</time><name>PT1674</name></trkpt>
<trkpt lat="54.667386" lon="-3.178209"><ele>248</ele><time>2020-08-11T14:24:20Z</time><name>PT1675</name></trkpt>
<trkpt lat="54.667408" lon="-3.178228"><ele>248</ele><time>2020-08-11T14:24:23Z</time><name>PT1676</name></trkpt>
<trkpt lat="54.667429" lon="-3.178258"><ele>248</ele><time>2020-08-11T14:24:26Z</time><name>PT1677</name></trkpt>
<trkpt lat="54.667457" lon="-3.178295"><ele>248</ele><time>2020-08-11T14:24:29Z</time><name>PT1678</name></trkpt>
<trkpt lat="54.667479" lon="-3.178321"><ele>247</ele><time>2020-08-11T14:24:32Z</time><name>PT1679</name></trkpt>
<trkpt lat="54.667500" lon="-3.178362"><ele>247</ele><time>2020-08-11T14:24:35Z</time><name>PT1680</name></trkpt>
<trkpt lat="54.667522" lon="-3.178417"><ele>246</ele><time>2020-08-11T14:24:39Z</time><name>PT1681</name></trkpt>
<trkpt lat="54.667541" lon="-3.178484"><ele>245</ele><time>2020-08-11T14:24:44Z</time><name>PT1682</name></trkpt>
<trkpt lat="54.667559" lon="-3.178553"><ele>244</ele><time>2020-08-11T14:24:47Z</time><name>PT1683</name></trkpt>
<trkpt lat="54.667569" lon="-3.178611"><ele>243</ele><time>2020-08-11T14:24:51Z</time><name>PT1684</name></trkpt>
<trkpt lat="54.667584" lon="-3.178657"><ele>243</ele><time>2020-08-11T14:24:54Z</time><name>PT1685</name></trkpt>
<trkpt lat="54.667593" lon="-3.178700"><ele>242</ele><time>2020-08-11T14:24:57Z</time><name>PT1686</name></trkpt>
<trkpt lat="54.667604" lon="-3.178746"><ele>242</ele><time>2020-08-11T14:25:00Z</time><name>PT1687</name></trkpt>
<trkpt lat="54.667617" lon="-3.178814"><ele>241</ele><time>2020-08-11T14:25:04Z</time><name>PT1688</name></trkpt>
<trkpt lat="54.667626" lon="-3.178859"><ele>240</ele><time>2020-08-11T14:25:07Z</time><name>PT1689</name></trkpt>
<trkpt lat="54.667626" lon="-3.178925"><ele>239</ele><time>2020-08-11T14:25:11Z</time><name>PT1690</name></trkpt>
<trkpt lat="54.667638" lon="-3.178987"><ele>238</ele><time>2020-08-11T14:25:15Z</time><name>PT1691</name></trkpt>
<trkpt lat="54.667643" lon="-3.179057"><ele>238</ele><time>2020-08-11T14:25:20Z</time><name>PT1692</name></trkpt>
<trkpt lat="54.667647" lon="-3.179123"><ele>238</ele><time>2020-08-11T14:25:23Z</time><name>PT1693</name></trkpt>
<trkpt lat="54.667644" lon="-3.179140"><ele>237</ele><time>2020-08-11T14:25:26Z</time><name>PT1694</name></trkpt>
<trkpt lat="54.667644" lon="-3.179139"><ele>238</ele><time>2020-08-11T14:25:27Z</time><name>PT1695</name></trkpt>
<trkpt lat="54.667644" lon="-3.179138"><ele>238</ele><time>2020-08-11T14:25:29Z</time><name>PT1696</name></trkpt>
<trkpt lat="54.667647" lon="-3.179142"><ele>238</ele><time>2020-08-11T14:25:35Z</time><name>PT1697</name></trkpt>
<trkpt lat="54.667648" lon="-3.179157"><ele>238</ele><time>2020-08-11T14:25:35Z</time><name>PT1698</name></trkpt>
<trkpt lat="54.667650" lon="-3.179170"><ele>237</ele><time>2020-08-11T14:25:36Z</time><name>PT1699</name></trkpt>
<trkpt lat="54.667655" lon="-3.179188"><ele>238</ele><time>2020-08-11T14:25:37Z</time><name>PT1700</name></trkpt>
<trkpt lat="54.667660" lon="-3.179209"><ele>238</ele><time>2020-08-11T14:25:38Z</time><name>PT1701</name></trkpt>
<trkpt lat="54.667661" lon="-3.179215"><ele>238</ele><time>2020-08-11T14:25:39Z</time><name>PT1702</name></trkpt>
<trkpt lat="54.667661" lon="-3.179212"><ele>238</ele><time>2020-08-11T14:25:41Z</time><name>PT1703</name></trkpt>
<trkpt lat="54.667664" lon="-3.179197"><ele>237</ele><time>2020-08-11T14:25:41Z</time><name>PT1704</name></trkpt>
<trkpt lat="54.667665" lon="-3.179191"><ele>238</ele><time>2020-08-11T14:25:42Z</time><name>PT1705</name></trkpt>
<trkpt lat="54.667663" lon="-3.179198"><ele>238</ele><time>2020-08-11T14:25:43Z</time><name>PT1706</name></trkpt>
<trkpt lat="54.667662" lon="-3.179204"><ele>239</ele><time>2020-08-11T14:25:44Z</time><name>PT1707</name></trkpt>
<trkpt lat="54.667661" lon="-3.179216"><ele>239</ele><time>2020-08-11T14:25:45Z</time><name>PT1708</name></trkpt>
<trkpt lat="54.667656" lon="-3.179226"><ele>239</ele><time>2020-08-11T14:25:46Z</time><name>PT1709</name></trkpt>
<trkpt lat="54.667654" lon="-3.179239"><ele>238</ele><time>2020-08-11T14:25:47Z</time><name>PT1710</name></trkpt>
<trkpt lat="54.667650" lon="-3.179253"><ele>239</ele><time>2020-08-11T14:25:48Z</time><name>PT1711</name></trkpt>
<trkpt lat="54.667648" lon="-3.179268"><ele>239</ele><time>2020-08-11T14:25:50Z</time><name>PT1712</name></trkpt>
<trkpt lat="54.667644" lon="-3.179284"><ele>239</ele><time>2020-08-11T14:25:50Z</time><name>PT1713</name></trkpt>
<trkpt lat="54.667642" lon="-3.179305"><ele>238</ele><time>2020-08-11T14:25:51Z</time><name>PT1714</name></trkpt>
<trkpt lat="54.667641" lon="-3.179322"><ele>238</ele><time>2020-08-11T14:25:53Z</time><name>PT1715</name></trkpt>
<trkpt lat="54.667638" lon="-3.179341"><ele>238</ele><time>2020-08-11T14:25:53Z</time><name>PT1716</name></trkpt>
<trkpt lat="54.667635" lon="-3.179359"><ele>238</ele><time>2020-08-11T14:25:54Z</time><name>PT1717</name></trkpt>
<trkpt lat="54.667635" lon="-3.179379"><ele>238</ele><time>2020-08-11T14:25:56Z</time><name>PT1718</name></trkpt>
<trkpt lat="54.667633" lon="-3.179400"><ele>237</ele><time>2020-08-11T14:25:56Z</time><name>PT1719</name></trkpt>
<trkpt lat="54.667630" lon="-3.179418"><ele>237</ele><time>2020-08-11T14:25:57Z</time><name>PT1720</name></trkpt>
<trkpt lat="54.667627" lon="-3.179435"><ele>237</ele><time>2020-08-11T14:25:58Z</time><name>PT1721</name></trkpt>
<trkpt lat="54.667622" lon="-3.179453"><ele>237</ele><time>2020-08-11T14:25:59Z</time><name>PT1722</name></trkpt>
<trkpt lat="54.667616" lon="-3.179470"><ele>236</ele><time>2020-08-11T14:26:00Z</time><name>PT1723</name></trkpt>
<trkpt lat="54.667610" lon="-3.179487"><ele>236</ele><time>2020-08-11T14:26:01Z</time><name>PT1724</name></trkpt>
<trkpt lat="54.667602" lon="-3.179505"><ele>236</ele><time>2020-08-11T14:26:02Z</time><name>PT1725</name></trkpt>
<trkpt lat="54.667595" lon="-3.179524"><ele>236</ele><time>2020-08-11T14:26:03Z</time><name>PT1726</name></trkpt>
<trkpt lat="54.667586" lon="-3.179538"><ele>236</ele><time>2020-08-11T14:26:04Z</time><name>PT1727</name></trkpt>
<trkpt lat="54.667579" lon="-3.179552"><ele>236</ele><time>2020-08-11T14:26:05Z</time><name>PT1728</name></trkpt>
<trkpt lat="54.667574" lon="-3.179561"><ele>236</ele><time>2020-08-11T14:26:06Z</time><name>PT1729</name></trkpt>
<trkpt lat="54.667569" lon="-3.179572"><ele>235</ele><time>2020-08-11T14:26:07Z</time><name>PT1730</name></trkpt>
<trkpt lat="54.667565" lon="-3.179589"><ele>235</ele><time>2020-08-11T14:26:08Z</time><name>PT1731</name></trkpt>
<trkpt lat="54.667563" lon="-3.179602"><ele>235</ele><time>2020-08-11T14:26:09Z</time><name>PT1732</name></trkpt>
<trkpt lat="54.667560" lon="-3.179624"><ele>235</ele><time>2020-08-11T14:26:10Z</time><name>PT1733</name></trkpt>
<trkpt lat="54.667556" lon="-3.179643"><ele>235</ele><time>2020-08-11T14:26:11Z</time><name>PT1734</name></trkpt>
<trkpt lat="54.667554" lon="-3.179666"><ele>235</ele><time>2020-08-11T14:26:12Z</time><name>PT1735</name></trkpt>
<trkpt lat="54.667548" lon="-3.179692"><ele>235</ele><time>2020-08-11T14:26:14Z</time><name>PT1736</name></trkpt>
<trkpt lat="54.667549" lon="-3.179714"><ele>236</ele><time>2020-08-11T14:26:14Z</time><name>PT1737</name></trkpt>
<trkpt lat="54.667547" lon="-3.179730"><ele>236</ele><time>2020-08-11T14:26:15Z</time><name>PT1738</name></trkpt>
<trkpt lat="54.667545" lon="-3.179749"><ele>235</ele><time>2020-08-11T14:26:16Z</time><name>PT1739</name></trkpt>
<trkpt lat="54.667537" lon="-3.179762"><ele>234</ele><time>2020-08-11T14:26:17Z</time><name>PT1740</name></trkpt>
<trkpt lat="54.667533" lon="-3.179780"><ele>234</ele><time>2020-08-11T14:26:18Z</time><name>PT1741</name></trkpt>
<trkpt lat="54.667531" lon="-3.179798"><ele>234</ele><time>2020-08-11T14:26:20Z</time><name>PT1742</name></trkpt>
<trkpt lat="54.667532" lon="-3.179812"><ele>234</ele><time>2020-08-11T14:26:20Z</time><name>PT1743</name></trkpt>
<trkpt lat="54.667534" lon="-3.179826"><ele>233</ele><time>2020-08-11T14:26:21Z</time><name>PT1744</name></trkpt>
<trkpt lat="54.667531" lon="-3.179842"><ele>233</ele><time>2020-08-11T14:26:22Z</time><name>PT1745</name></trkpt>
<trkpt lat="54.667528" lon="-3.179861"><ele>233</ele><time>2020-08-11T14:26:23Z</time><name>PT1746</name></trkpt>
<trkpt lat="54.667522" lon="-3.179882"><ele>234</ele><time>2020-08-11T14:26:24Z</time><name>PT1747</name></trkpt>
<trkpt lat="54.667521" lon="-3.179900"><ele>234</ele><time>2020-08-11T14:26:25Z</time><name>PT1748</name></trkpt>
<trkpt lat="54.667519" lon="-3.179915"><ele>233</ele><time>2020-08-11T14:26:26Z</time><name>PT1749</name></trkpt>
<trkpt lat="54.667516" lon="-3.179935"><ele>233</ele><time>2020-08-11T14:26:27Z</time><name>PT1750</name></trkpt>
<trkpt lat="54.667511" lon="-3.179953"><ele>233</ele><time>2020-08-11T14:26:28Z</time><name>PT1751</name></trkpt>
<trkpt lat="54.667506" lon="-3.179972"><ele>233</ele><time>2020-08-11T14:26:29Z</time><name>PT1752</name></trkpt>
<trkpt lat="54.667503" lon="-3.179991"><ele>233</ele><time>2020-08-11T14:26:30Z</time><name>PT1753</name></trkpt>
<trkpt lat="54.667500" lon="-3.180006"><ele>233</ele><time>2020-08-11T14:26:32Z</time><name>PT1754</name></trkpt>
<trkpt lat="54.667496" lon="-3.180022"><ele>233</ele><time>2020-08-11T14:26:32Z</time><name>PT1755</name></trkpt>
<trkpt lat="54.667492" lon="-3.180039"><ele>233</ele><time>2020-08-11T14:26:33Z</time><name>PT1756</name></trkpt>
<trkpt lat="54.667490" lon="-3.180061"><ele>233</ele><time>2020-08-11T14:26:34Z</time><name>PT1757</name></trkpt>
<trkpt lat="54.667488" lon="-3.180086"><ele>233</ele><time>2020-08-11T14:26:35Z</time><name>PT1758</name></trkpt>
<trkpt lat="54.667490" lon="-3.180105"><ele>234</ele><time>2020-08-11T14:26:36Z</time><name>PT1759</name></trkpt>
<trkpt lat="54.667487" lon="-3.180122"><ele>234</ele><time>2020-08-11T14:26:37Z</time><name>PT1760</name></trkpt>
<trkpt lat="54.667481" lon="-3.180138"><ele>232</ele><time>2020-08-11T14:26:38Z</time><name>PT1761</name></trkpt>
<trkpt lat="54.667476" lon="-3.180153"><ele>232</ele><time>2020-08-11T14:26:39Z</time><name>PT1762</name></trkpt>
<trkpt lat="54.667468" lon="-3.180170"><ele>231</ele><time>2020-08-11T14:26:40Z</time><name>PT1763</name></trkpt>
<trkpt lat="54.667463" lon="-3.180188"><ele>230</ele><time>2020-08-11T14:26:41Z</time><name>PT1764</name></trkpt>
<trkpt lat="54.667462" lon="-3.180204"><ele>230</ele><time>2020-08-11T14:26:42Z</time><name>PT1765</name></trkpt>
<trkpt lat="54.667459" lon="-3.180221"><ele>229</ele><time>2020-08-11T14:26:44Z</time><name>PT1766</name></trkpt>
<trkpt lat="54.667455" lon="-3.180240"><ele>229</ele><time>2020-08-11T14:26:44Z</time><name>PT1767</name></trkpt>
<trkpt lat="54.667453" lon="-3.180257"><ele>228</ele><time>2020-08-11T14:26:45Z</time><name>PT1768</name></trkpt>
<trkpt lat="54.667448" lon="-3.180279"><ele>228</ele><time>2020-08-11T14:26:46Z</time><name>PT1769</name></trkpt>
<trkpt lat="54.667445" lon="-3.180301"><ele>228</ele><time>2020-08-11T14:26:47Z</time><name>PT1770</name></trkpt>
<trkpt lat="54.667446" lon="-3.180314"><ele>228</ele><time>2020-08-11T14:26:48Z</time><name>PT1771</name></trkpt>
<trkpt lat="54.667446" lon="-3.180333"><ele>228</ele><time>2020-08-11T14:26:50Z</time><name>PT1772</name></trkpt>
<trkpt lat="54.667441" lon="-3.180352"><ele>228</ele><time>2020-08-11T14:26:50Z</time><name>PT1773</name></trkpt>
<trkpt lat="54.667437" lon="-3.180370"><ele>228</ele><time>2020-08-11T14:26:51Z</time><name>PT1774</name></trkpt>
<trkpt lat="54.667430" lon="-3.180392"><ele>228</ele><time>2020-08-11T14:26:52Z</time><name>PT1775</name></trkpt>
<trkpt lat="54.667426" lon="-3.180409"><ele>227</ele><time>2020-08-11T14:26:53Z</time><name>PT1776</name></trkpt>
<trkpt lat="54.667424" lon="-3.180420"><ele>227</ele><time>2020-08-11T14:26:55Z</time><name>PT1777</name></trkpt>
<trkpt lat="54.667422" lon="-3.180436"><ele>227</ele><time>2020-08-11T14:26:56Z</time><name>PT1778</name></trkpt>
<trkpt lat="54.667419" lon="-3.180454"><ele>227</ele><time>2020-08-11T14:26:56Z</time><name>PT1779</name></trkpt>
<trkpt lat="54.667413" lon="-3.180472"><ele>227</ele><time>2020-08-11T14:26:57Z</time><name>PT1780</name></trkpt>
<trkpt lat="54.667404" lon="-3.180492"><ele>227</ele><time>2020-08-11T14:26:58Z</time><name>PT1781</name></trkpt>
<trkpt lat="54.667399" lon="-3.180511"><ele>228</ele><time>2020-08-11T14:26:59Z</time><name>PT1782</name></trkpt>
<trkpt lat="54.667397" lon="-3.180524"><ele>227</ele><time>2020-08-11T14:27:00Z</time><name>PT1783</name></trkpt>
<trkpt lat="54.667396" lon="-3.180542"><ele>227</ele><time>2020-08-11T14:27:01Z</time><name>PT1784</name></trkpt>
<trkpt lat="54.667394" lon="-3.180562"><ele>227</ele><time>2020-08-11T14:27:02Z</time><name>PT1785</name></trkpt>
<trkpt lat="54.667385" lon="-3.180583"><ele>227</ele><time>2020-08-11T14:27:03Z</time><name>PT1786</name></trkpt>
<trkpt lat="54.667378" lon="-3.180604"><ele>227</ele><time>2020-08-11T14:27:05Z</time><name>PT1787</name></trkpt>
<trkpt lat="54.667375" lon="-3.180618"><ele>228</ele><time>2020-08-11T14:27:05Z</time><name>PT1788</name></trkpt>
<trkpt lat="54.667371" lon="-3.180630"><ele>228</ele><time>2020-08-11T14:27:06Z</time><name>PT1789</name></trkpt>
<trkpt lat="54.667364" lon="-3.180645"><ele>227</ele><time>2020-08-11T14:27:07Z</time><name>PT1790</name></trkpt>
<trkpt lat="54.667358" lon="-3.180657"><ele>227</ele><time>2020-08-11T14:27:08Z</time><name>PT1791</name></trkpt>
<trkpt lat="54.667348" lon="-3.180674"><ele>227</ele><time>2020-08-11T14:27:09Z</time><name>PT1792</name></trkpt>
<trkpt lat="54.667341" lon="-3.180693"><ele>228</ele><time>2020-08-11T14:27:10Z</time><name>PT1793</name></trkpt>
<trkpt lat="54.667339" lon="-3.180705"><ele>228</ele><time>2020-08-11T14:27:11Z</time><name>PT1794</name></trkpt>
<trkpt lat="54.667335" lon="-3.180717"><ele>228</ele><time>2020-08-11T14:27:12Z</time><name>PT1795</name></trkpt>
<trkpt lat="54.667329" lon="-3.180731"><ele>227</ele><time>2020-08-11T14:27:13Z</time><name>PT1796</name></trkpt>
<trkpt lat="54.667321" lon="-3.180746"><ele>227</ele><time>2020-08-11T14:27:14Z</time><name>PT1797</name></trkpt>
<trkpt lat="54.667312" lon="-3.180765"><ele>228</ele><time>2020-08-11T14:27:15Z</time><name>PT1798</name></trkpt>
<trkpt lat="54.667308" lon="-3.180785"><ele>228</ele><time>2020-08-11T14:27:16Z</time><name>PT1799</name></trkpt>
<trkpt lat="54.667306" lon="-3.180800"><ele>228</ele><time>2020-08-11T14:27:17Z</time><name>PT1800</name></trkpt>
<trkpt lat="54.667299" lon="-3.180810"><ele>226</ele><time>2020-08-11T14:27:18Z</time><name>PT1801</name></trkpt>
<trkpt lat="54.667294" lon="-3.180821"><ele>226</ele><time>2020-08-11T14:27:20Z</time><name>PT1802</name></trkpt>
<trkpt lat="54.667284" lon="-3.180834"><ele>226</ele><time>2020-08-11T14:27:20Z</time><name>PT1803</name></trkpt>
<trkpt lat="54.667275" lon="-3.180840"><ele>226</ele><time>2020-08-11T14:27:21Z</time><name>PT1804</name></trkpt>
<trkpt lat="54.667271" lon="-3.180845"><ele>224</ele><time>2020-08-11T14:27:22Z</time><name>PT1805</name></trkpt>
<trkpt lat="54.667266" lon="-3.180852"><ele>224</ele><time>2020-08-11T14:27:23Z</time><name>PT1806</name></trkpt>
<trkpt lat="54.667260" lon="-3.180853"><ele>224</ele><time>2020-08-11T14:27:24Z</time><name>PT1807</name></trkpt>
<trkpt lat="54.667253" lon="-3.180860"><ele>224</ele><time>2020-08-11T14:27:25Z</time><name>PT1808</name></trkpt>
<trkpt lat="54.667246" lon="-3.180863"><ele>223</ele><time>2020-08-11T14:27:26Z</time><name>PT1809</name></trkpt>
<trkpt lat="54.667243" lon="-3.180862"><ele>223</ele><time>2020-08-11T14:27:27Z</time><name>PT1810</name></trkpt>
<trkpt lat="54.667240" lon="-3.180870"><ele>223</ele><time>2020-08-11T14:27:28Z</time><name>PT1811</name></trkpt>
<trkpt lat="54.667239" lon="-3.180872"><ele>223</ele><time>2020-08-11T14:27:29Z</time><name>PT1812</name></trkpt>
<trkpt lat="54.667238" lon="-3.180872"><ele>223</ele><time>2020-08-11T14:27:30Z</time><name>PT1813</name></trkpt>
<trkpt lat="54.667238" lon="-3.180875"><ele>223</ele><time>2020-08-11T14:27:31Z</time><name>PT1814</name></trkpt>
<trkpt lat="54.667237" lon="-3.180874"><ele>223</ele><time>2020-08-11T14:27:32Z</time><name>PT1815</name></trkpt>
<trkpt lat="54.667237" lon="-3.180882"><ele>223</ele><time>2020-08-11T14:27:33Z</time><name>PT1816</name></trkpt>
<trkpt lat="54.667234" lon="-3.180892"><ele>223</ele><time>2020-08-11T14:27:35Z</time><name>PT1817</name></trkpt>
<trkpt lat="54.667235" lon="-3.180904"><ele>223</ele><time>2020-08-11T14:27:35Z</time><name>PT1818</name></trkpt>
<trkpt lat="54.667233" lon="-3.180915"><ele>223</ele><time>2020-08-11T14:27:36Z</time><name>PT1819</name></trkpt>
<trkpt lat="54.667230" lon="-3.180929"><ele>223</ele><time>2020-08-11T14:27:37Z</time><name>PT1820</name></trkpt>
<trkpt lat="54.667225" lon="-3.180948"><ele>223</ele><time>2020-08-11T14:27:38Z</time><name>PT1821</name></trkpt>
<trkpt lat="54.667222" lon="-3.180967"><ele>223</ele><time>2020-08-11T14:27:39Z</time><name>PT1822</name></trkpt>
<trkpt lat="54.667213" lon="-3.180986"><ele>223</ele><time>2020-08-11T14:27:40Z</time><name>PT1823</name></trkpt>
<trkpt lat="54.667206" lon="-3.180999"><ele>222</ele><time>2020-08-11T14:27:41Z</time><name>PT1824</name></trkpt>
<trkpt lat="54.667202" lon="-3.181009"><ele>222</ele><time>2020-08-11T14:27:42Z</time><name>PT1825</name></trkpt>
<trkpt lat="54.667193" lon="-3.181026"><ele>222</ele><time>2020-08-11T14:27:43Z</time><name>PT1826</name></trkpt>
<trkpt lat="54.667187" lon="-3.181039"><ele>222</ele><time>2020-08-11T14:27:44Z</time><name>PT1827</name></trkpt>
<trkpt lat="54.667178" lon="-3.181059"><ele>222</ele><time>2020-08-11T14:27:45Z</time><name>PT1828</name></trkpt>
<trkpt lat="54.667169" lon="-3.181074"><ele>222</ele><time>2020-08-11T14:27:46Z</time><name>PT1829</name></trkpt>
<trkpt lat="54.667162" lon="-3.181088"><ele>222</ele><time>2020-08-11T14:27:47Z</time><name>PT1830</name></trkpt>
<trkpt lat="54.667156" lon="-3.181098"><ele>222</ele><time>2020-08-11T14:27:48Z</time><name>PT1831</name></trkpt>
<trkpt lat="54.667152" lon="-3.181113"><ele>222</ele><time>2020-08-11T14:27:49Z</time><name>PT1832</name></trkpt>
<trkpt lat="54.667146" lon="-3.181126"><ele>222</ele><time>2020-08-11T14:27:50Z</time><name>PT1833</name></trkpt>
<trkpt lat="54.667139" lon="-3.181139"><ele>221</ele><time>2020-08-11T14:27:51Z</time><name>PT1834</name></trkpt>
<trkpt lat="54.667132" lon="-3.181156"><ele>221</ele><time>2020-08-11T14:27:52Z</time><name>PT1835</name></trkpt>
<trkpt lat="54.667124" lon="-3.181170"><ele>221</ele><time>2020-08-11T14:27:53Z</time><name>PT1836</name></trkpt>
<trkpt lat="54.667119" lon="-3.181181"><ele>220</ele><time>2020-08-11T14:27:54Z</time><name>PT1837</name></trkpt>
<trkpt lat="54.667113" lon="-3.181197"><ele>220</ele><time>2020-08-11T14:27:55Z</time><name>PT1838</name></trkpt>
<trkpt lat="54.667108" lon="-3.181211"><ele>220</ele><time>2020-08-11T14:27:56Z</time><name>PT1839</name></trkpt>
<trkpt lat="54.667103" lon="-3.181225"><ele>220</ele><time>2020-08-11T14:27:57Z</time><name>PT1840</name></trkpt>
<trkpt lat="54.667096" lon="-3.181242"><ele>219</ele><time>2020-08-11T14:27:59Z</time><name>PT1841</name></trkpt>
<trkpt lat="54.667090" lon="-3.181256"><ele>219</ele><time>2020-08-11T14:27:59Z</time><name>PT1842</name></trkpt>
<trkpt lat="54.667085" lon="-3.181270"><ele>219</ele><time>2020-08-11T14:28:00Z</time><name>PT1843</name></trkpt>
<trkpt lat="54.667079" lon="-3.181284"><ele>219</ele><time>2020-08-11T14:28:02Z</time><name>PT1844</name></trkpt>
<trkpt lat="54.667073" lon="-3.181299"><ele>219</ele><time>2020-08-11T14:28:02Z</time><name>PT1845</name></trkpt>
<trkpt lat="54.667066" lon="-3.181313"><ele>218</ele><time>2020-08-11T14:28:03Z</time><name>PT1846</name></trkpt>
<trkpt lat="54.667059" lon="-3.181328"><ele>218</ele><time>2020-08-11T14:28:04Z</time><name>PT1847</name></trkpt>
<trkpt lat="54.667054" lon="-3.181342"><ele>218</ele><time>2020-08-11T14:28:05Z</time><name>PT1848</name></trkpt>
<trkpt lat="54.667050" lon="-3.181356"><ele>218</ele><time>2020-08-11T14:28:06Z</time><name>PT1849</name></trkpt>
<trkpt lat="54.667044" lon="-3.181371"><ele>218</ele><time>2020-08-11T14:28:07Z</time><name>PT1850</name></trkpt>
<trkpt lat="54.667039" lon="-3.181386"><ele>218</ele><time>2020-08-11T14:28:08Z</time><name>PT1851</name></trkpt>
<trkpt lat="54.667037" lon="-3.181406"><ele>218</ele><time>2020-08-11T14:28:09Z</time><name>PT1852</name></trkpt>
<trkpt lat="54.667037" lon="-3.181418"><ele>217</ele><time>2020-08-11T14:28:10Z</time><name>PT1853</name></trkpt>
<trkpt lat="54.667033" lon="-3.181445"><ele>217</ele><time>2020-08-11T14:28:11Z</time><name>PT1854</name></trkpt>
<trkpt lat="54.667023" lon="-3.181484"><ele>217</ele><time>2020-08-11T14:28:12Z</time><name>PT1855</name></trkpt>
<trkpt lat="54.667013" lon="-3.181509"><ele>217</ele><time>2020-08-11T14:28:13Z</time><name>PT1856</name></trkpt>
<trkpt lat="54.667009" lon="-3.181513"><ele>217</ele><time>2020-08-11T14:28:14Z</time><name>PT1857</name></trkpt>
<trkpt lat="54.667007" lon="-3.181510"><ele>217</ele><time>2020-08-11T14:28:15Z</time><name>PT1858</name></trkpt>
<trkpt lat="54.667000" lon="-3.181516"><ele>217</ele><time>2020-08-11T14:28:17Z</time><name>PT1859</name></trkpt>
<trkpt lat="54.666986" lon="-3.181536"><ele>217</ele><time>2020-08-11T14:28:17Z</time><name>PT1860</name></trkpt>
<trkpt lat="54.666974" lon="-3.181566"><ele>217</ele><time>2020-08-11T14:28:18Z</time><name>PT1861</name></trkpt>
<trkpt lat="54.666966" lon="-3.181591"><ele>217</ele><time>2020-08-11T14:28:19Z</time><name>PT1862</name></trkpt>
<trkpt lat="54.666962" lon="-3.181600"><ele>217</ele><time>2020-08-11T14:28:20Z</time><name>PT1863</name></trkpt>
<trkpt lat="54.666961" lon="-3.181594"><ele>217</ele><time>2020-08-11T14:28:22Z</time><name>PT1864</name></trkpt>
<trkpt lat="54.666956" lon="-3.181609"><ele>218</ele><time>2020-08-11T14:28:23Z</time><name>PT1865</name></trkpt>
<trkpt lat="54.666944" lon="-3.181641"><ele>217</ele><time>2020-08-11T14:28:23Z</time><name>PT1866</name></trkpt>
<trkpt lat="54.666933" lon="-3.181672"><ele>217</ele><time>2020-08-11T14:28:24Z</time><name>PT1867</name></trkpt>
<trkpt lat="54.666927" lon="-3.181685"><ele>217</ele><time>2020-08-11T14:28:25Z</time><name>PT1868</name></trkpt>
<trkpt lat="54.666928" lon="-3.181680"><ele>216</ele><time>2020-08-11T14:28:26Z</time><name>PT1869</name></trkpt>
<trkpt lat="54.666907" lon="-3.181767"><ele>216</ele><time>2020-08-11T14:28:30Z</time><name>PT1870</name></trkpt>
<trkpt lat="54.666900" lon="-3.181794"><ele>215</ele><time>2020-08-11T14:28:33Z</time><name>PT1871</name></trkpt>
<trkpt lat="54.666894" lon="-3.181861"><ele>215</ele><time>2020-08-11T14:28:36Z</time><name>PT1872</name></trkpt>
<trkpt lat="54.666902" lon="-3.181903"><ele>213</ele><time>2020-08-11T14:28:40Z</time><name>PT1873</name></trkpt>
<trkpt lat="54.666931" lon="-3.181972"><ele>212</ele><time>2020-08-11T14:28:44Z</time><name>PT1874</name></trkpt>
<trkpt lat="54.666955" lon="-3.181993"><ele>211</ele><time>2020-08-11T14:28:47Z</time><name>PT1875</name></trkpt>
<trkpt lat="54.666962" lon="-3.182000"><ele>211</ele><time>2020-08-11T14:28:48Z</time><name>PT1876</name></trkpt>
<trkpt lat="54.666971" lon="-3.182007"><ele>211</ele><time>2020-08-11T14:28:49Z</time><name>PT1877</name></trkpt>
<trkpt lat="54.666979" lon="-3.182015"><ele>211</ele><time>2020-08-11T14:28:50Z</time><name>PT1878</name></trkpt>
<trkpt lat="54.666987" lon="-3.182023"><ele>211</ele><time>2020-08-11T14:28:51Z</time><name>PT1879</name></trkpt>
<trkpt lat="54.666997" lon="-3.182029"><ele>210</ele><time>2020-08-11T14:28:52Z</time><name>PT1880</name></trkpt>
<trkpt lat="54.667008" lon="-3.182032"><ele>210</ele><time>2020-08-11T14:28:53Z</time><name>PT1881</name></trkpt>
<trkpt lat="54.667019" lon="-3.182036"><ele>210</ele><time>2020-08-11T14:28:54Z</time><name>PT1882</name></trkpt>
<trkpt lat="54.667029" lon="-3.182042"><ele>210</ele><time>2020-08-11T14:28:55Z</time><name>PT1883</name></trkpt>
<trkpt lat="54.667039" lon="-3.182049"><ele>210</ele><time>2020-08-11T14:28:56Z</time><name>PT1884</name></trkpt>
<trkpt lat="54.667049" lon="-3.182058"><ele>210</ele><time>2020-08-11T14:28:57Z</time><name>PT1885</name></trkpt>
<trkpt lat="54.667059" lon="-3.182067"><ele>210</ele><time>2020-08-11T14:28:58Z</time><name>PT1886</name></trkpt>
<trkpt lat="54.667069" lon="-3.182075"><ele>209</ele><time>2020-08-11T14:28:59Z</time><name>PT1887</name></trkpt>
<trkpt lat="54.667079" lon="-3.182081"><ele>209</ele><time>2020-08-11T14:29:00Z</time><name>PT1888</name></trkpt>
<trkpt lat="54.667091" lon="-3.182087"><ele>210</ele><time>2020-08-11T14:29:01Z</time><name>PT1889</name></trkpt>
<trkpt lat="54.667102" lon="-3.182093"><ele>209</ele><time>2020-08-11T14:29:02Z</time><name>PT1890</name></trkpt>
<trkpt lat="54.667112" lon="-3.182099"><ele>209</ele><time>2020-08-11T14:29:03Z</time><name>PT1891</name></trkpt>
<trkpt lat="54.667123" lon="-3.182104"><ele>209</ele><time>2020-08-11T14:29:04Z</time><name>PT1892</name></trkpt>
<trkpt lat="54.667135" lon="-3.182107"><ele>209</ele><time>2020-08-11T14:29:05Z</time><name>PT1893</name></trkpt>
<trkpt lat="54.667145" lon="-3.182112"><ele>209</ele><time>2020-08-11T14:29:06Z</time><name>PT1894</name></trkpt>
<trkpt lat="54.667156" lon="-3.182118"><ele>209</ele><time>2020-08-11T14:29:07Z</time><name>PT1895</name></trkpt>
<trkpt lat="54.667166" lon="-3.182124"><ele>209</ele><time>2020-08-11T14:29:08Z</time><name>PT1896</name></trkpt>
<trkpt lat="54.667176" lon="-3.182129"><ele>209</ele><time>2020-08-11T14:29:09Z</time><name>PT1897</name></trkpt>
<trkpt lat="54.667188" lon="-3.182132"><ele>208</ele><time>2020-08-11T14:29:10Z</time><name>PT1898</name></trkpt>
<trkpt lat="54.667199" lon="-3.182136"><ele>208</ele><time>2020-08-11T14:29:11Z</time><name>PT1899</name></trkpt>
<trkpt lat="54.667209" lon="-3.182141"><ele>208</ele><time>2020-08-11T14:29:12Z</time><name>PT1900</name></trkpt>
<trkpt lat="54.667219" lon="-3.182146"><ele>207</ele><time>2020-08-11T14:29:14Z</time><name>PT1901</name></trkpt>
<trkpt lat="54.667230" lon="-3.182147"><ele>207</ele><time>2020-08-11T14:29:14Z</time><name>PT1902</name></trkpt>
<trkpt lat="54.667241" lon="-3.182149"><ele>207</ele><time>2020-08-11T14:29:15Z</time><name>PT1903</name></trkpt>
<trkpt lat="54.667253" lon="-3.182153"><ele>207</ele><time>2020-08-11T14:29:16Z</time><name>PT1904</name></trkpt>
<trkpt lat="54.667264" lon="-3.182160"><ele>207</ele><time>2020-08-11T14:29:17Z</time><name>PT1905</name></trkpt>
<trkpt lat="54.667272" lon="-3.182169"><ele>206</ele><time>2020-08-11T14:29:18Z</time><name>PT1906</name></trkpt>
<trkpt lat="54.667282" lon="-3.182175"><ele>206</ele><time>2020-08-11T14:29:19Z</time><name>PT1907</name></trkpt>
<trkpt lat="54.667292" lon="-3.182182"><ele>206</ele><time>2020-08-11T14:29:20Z</time><name>PT1908</name></trkpt>
<trkpt lat="54.667302" lon="-3.182189"><ele>206</ele><time>2020-08-11T14:29:21Z</time><name>PT1909</name></trkpt>
<trkpt lat="54.667313" lon="-3.182194"><ele>205</ele><time>2020-08-11T14:29:22Z</time><name>PT1910</name></trkpt>
<trkpt lat="54.667321" lon="-3.182199"><ele>205</ele><time>2020-08-11T14:29:23Z</time><name>PT1911</name></trkpt>
<trkpt lat="54.667329" lon="-3.182204"><ele>205</ele><time>2020-08-11T14:29:24Z</time><name>PT1912</name></trkpt>
<trkpt lat="54.667341" lon="-3.182210"><ele>205</ele><time>2020-08-11T14:29:25Z</time><name>PT1913</name></trkpt>
<trkpt lat="54.667352" lon="-3.182216"><ele>204</ele><time>2020-08-11T14:29:26Z</time><name>PT1914</name></trkpt>
<trkpt lat="54.667363" lon="-3.182223"><ele>204</ele><time>2020-08-11T14:29:27Z</time><name>PT1915</name></trkpt>
<trkpt lat="54.667375" lon="-3.182230"><ele>204</ele><time>2020-08-11T14:29:28Z</time><name>PT1916</name></trkpt>
<trkpt lat="54.667386" lon="-3.182235"><ele>204</ele><time>2020-08-11T14:29:29Z</time><name>PT1917</name></trkpt>
<trkpt lat="54.667396" lon="-3.182242"><ele>204</ele><time>2020-08-11T14:29:30Z</time><name>PT1918</name></trkpt>
<trkpt lat="54.667408" lon="-3.182250"><ele>204</ele><time>2020-08-11T14:29:31Z</time><name>PT1919</name></trkpt>
<trkpt lat="54.667419" lon="-3.182256"><ele>203</ele><time>2020-08-11T14:29:32Z</time><name>PT1920</name></trkpt>
<trkpt lat="54.667431" lon="-3.182263"><ele>203</ele><time>2020-08-11T14:29:33Z</time><name>PT1921</name></trkpt>
<trkpt lat="54.667442" lon="-3.182271"><ele>203</ele><time>2020-08-11T14:29:34Z</time><name>PT1922</name></trkpt>
<trkpt lat="54.667453" lon="-3.182278"><ele>203</ele><time>2020-08-11T14:29:35Z</time><name>PT1923</name></trkpt>
<trkpt lat="54.667456" lon="-3.182287"><ele>202</ele><time>2020-08-11T14:29:36Z</time><name>PT1924</name></trkpt>
<trkpt lat="54.667465" lon="-3.182294"><ele>202</ele><time>2020-08-11T14:29:37Z</time><name>PT1925</name></trkpt>
<trkpt lat="54.667481" lon="-3.182301"><ele>202</ele><time>2020-08-11T14:29:38Z</time><name>PT1926</name></trkpt>
<trkpt lat="54.667498" lon="-3.182315"><ele>202</ele><time>2020-08-11T14:29:39Z</time><name>PT1927</name></trkpt>
<trkpt lat="54.667509" lon="-3.182322"><ele>202</ele><time>2020-08-11T14:29:40Z</time><name>PT1928</name></trkpt>
<trkpt lat="54.667513" lon="-3.182322"><ele>202</ele><time>2020-08-11T14:29:41Z</time><name>PT1929</name></trkpt>
<trkpt lat="54.667519" lon="-3.182322"><ele>201</ele><time>2020-08-11T14:29:42Z</time><name>PT1930</name></trkpt>
<trkpt lat="54.667532" lon="-3.182328"><ele>202</ele><time>2020-08-11T14:29:43Z</time><name>PT1931</name></trkpt>
<trkpt lat="54.667546" lon="-3.182343"><ele>202</ele><time>2020-08-11T14:29:44Z</time><name>PT1932</name></trkpt>
<trkpt lat="54.667554" lon="-3.182350"><ele>201</ele><time>2020-08-11T14:29:45Z</time><name>PT1933</name></trkpt>
<trkpt lat="54.667559" lon="-3.182351"><ele>201</ele><time>2020-08-11T14:29:46Z</time><name>PT1934</name></trkpt>
<trkpt lat="54.667563" lon="-3.182351"><ele>201</ele><time>2020-08-11T14:29:47Z</time><name>PT1935</name></trkpt>
<trkpt lat="54.667578" lon="-3.182358"><ele>201</ele><time>2020-08-11T14:29:48Z</time><name>PT1936</name></trkpt>
<trkpt lat="54.667598" lon="-3.182369"><ele>201</ele><time>2020-08-11T14:29:49Z</time><name>PT1937</name></trkpt>
<trkpt lat="54.667614" lon="-3.182378"><ele>200</ele><time>2020-08-11T14:29:50Z</time><name>PT1938</name></trkpt>
<trkpt lat="54.667624" lon="-3.182381"><ele>200</ele><time>2020-08-11T14:29:51Z</time><name>PT1939</name></trkpt>
<trkpt lat="54.667627" lon="-3.182381"><ele>200</ele><time>2020-08-11T14:29:52Z</time><name>PT1940</name></trkpt>
<trkpt lat="54.667636" lon="-3.182384"><ele>200</ele><time>2020-08-11T14:29:53Z</time><name>PT1941</name></trkpt>
<trkpt lat="54.667653" lon="-3.182391"><ele>200</ele><time>2020-08-11T14:29:54Z</time><name>PT1942</name></trkpt>
<trkpt lat="54.667671" lon="-3.182398"><ele>200</ele><time>2020-08-11T14:29:55Z</time><name>PT1943</name></trkpt>
<trkpt lat="54.667683" lon="-3.182407"><ele>200</ele><time>2020-08-11T14:29:56Z</time><name>PT1944</name></trkpt>
<trkpt lat="54.667688" lon="-3.182408"><ele>200</ele><time>2020-08-11T14:29:57Z</time><name>PT1945</name></trkpt>
<trkpt lat="54.667696" lon="-3.182415"><ele>200</ele><time>2020-08-11T14:29:58Z</time><name>PT1946</name></trkpt>
<trkpt lat="54.667704" lon="-3.182426"><ele>200</ele><time>2020-08-11T14:29:59Z</time><name>PT1947</name></trkpt>
<trkpt lat="54.667721" lon="-3.182449"><ele>201</ele><time>2020-08-11T14:30:00Z</time><name>PT1948</name></trkpt>
<trkpt lat="54.667733" lon="-3.182472"><ele>201</ele><time>2020-08-11T14:30:01Z</time><name>PT1949</name></trkpt>
<trkpt lat="54.667740" lon="-3.182488"><ele>201</ele><time>2020-08-11T14:30:02Z</time><name>PT1950</name></trkpt>
<trkpt lat="54.667740" lon="-3.182491"><ele>200</ele><time>2020-08-11T14:30:03Z</time><name>PT1951</name></trkpt>
<trkpt lat="54.667741" lon="-3.182498"><ele>200</ele><time>2020-08-11T14:30:04Z</time><name>PT1952</name></trkpt>
<trkpt lat="54.667753" lon="-3.182512"><ele>200</ele><time>2020-08-11T14:30:05Z</time><name>PT1953</name></trkpt>
<trkpt lat="54.667768" lon="-3.182530"><ele>200</ele><time>2020-08-11T14:30:06Z</time><name>PT1954</name></trkpt>
<trkpt lat="54.667781" lon="-3.182550"><ele>200</ele><time>2020-08-11T14:30:07Z</time><name>PT1955</name></trkpt>
<trkpt lat="54.667793" lon="-3.182562"><ele>199</ele><time>2020-08-11T14:30:08Z</time><name>PT1956</name></trkpt>
<trkpt lat="54.667800" lon="-3.182567"><ele>199</ele><time>2020-08-11T14:30:09Z</time><name>PT1957</name></trkpt>
<trkpt lat="54.667806" lon="-3.182575"><ele>199</ele><time>2020-08-11T14:30:10Z</time><name>PT1958</name></trkpt>
<trkpt lat="54.667819" lon="-3.182585"><ele>200</ele><time>2020-08-11T14:30:11Z</time><name>PT1959</name></trkpt>
<trkpt lat="54.667834" lon="-3.182603"><ele>200</ele><time>2020-08-11T14:30:12Z</time><name>PT1960</name></trkpt>
<trkpt lat="54.667845" lon="-3.182618"><ele>199</ele><time>2020-08-11T14:30:13Z</time><name>PT1961</name></trkpt>
<trkpt lat="54.667851" lon="-3.182622"><ele>199</ele><time>2020-08-11T14:30:14Z</time><name>PT1962</name></trkpt>
<trkpt lat="54.667855" lon="-3.182621"><ele>198</ele><time>2020-08-11T14:30:15Z</time><name>PT1963</name></trkpt>
<trkpt lat="54.667861" lon="-3.182625"><ele>198</ele><time>2020-08-11T14:30:17Z</time><name>PT1964</name></trkpt>
<trkpt lat="54.667875" lon="-3.182630"><ele>198</ele><time>2020-08-11T14:30:17Z</time><name>PT1965</name></trkpt>
<trkpt lat="54.667892" lon="-3.182647"><ele>198</ele><time>2020-08-11T14:30:18Z</time><name>PT1966</name></trkpt>
<trkpt lat="54.667904" lon="-3.182661"><ele>198</ele><time>2020-08-11T14:30:19Z</time><name>PT1967</name></trkpt>
<trkpt lat="54.667907" lon="-3.182666"><ele>198</ele><time>2020-08-11T14:30:20Z</time><name>PT1968</name></trkpt>
<trkpt lat="54.667909" lon="-3.182669"><ele>198</ele><time>2020-08-11T14:30:21Z</time><name>PT1969</name></trkpt>
<trkpt lat="54.667920" lon="-3.182682"><ele>198</ele><time>2020-08-11T14:30:22Z</time><name>PT1970</name></trkpt>
<trkpt lat="54.667937" lon="-3.182695"><ele>198</ele><time>2020-08-11T14:30:23Z</time><name>PT1971</name></trkpt>
<trkpt lat="54.667952" lon="-3.182708"><ele>198</ele><time>2020-08-11T14:30:24Z</time><name>PT1972</name></trkpt>
<trkpt lat="54.667964" lon="-3.182716"><ele>198</ele><time>2020-08-11T14:30:25Z</time><name>PT1973</name></trkpt>
<trkpt lat="54.667969" lon="-3.182718"><ele>198</ele><time>2020-08-11T14:30:26Z</time><name>PT1974</name></trkpt>
<trkpt lat="54.667974" lon="-3.182720"><ele>197</ele><time>2020-08-11T14:30:27Z</time><name>PT1975</name></trkpt>
<trkpt lat="54.667987" lon="-3.182724"><ele>198</ele><time>2020-08-11T14:30:28Z</time><name>PT1976</name></trkpt>
<trkpt lat="54.668004" lon="-3.182732"><ele>198</ele><time>2020-08-11T14:30:29Z</time><name>PT1977</name></trkpt>
<trkpt lat="54.668019" lon="-3.182741"><ele>198</ele><time>2020-08-11T14:30:30Z</time><name>PT1978</name></trkpt>
<trkpt lat="54.668025" lon="-3.182746"><ele>198</ele><time>2020-08-11T14:30:31Z</time><name>PT1979</name></trkpt>
<trkpt lat="54.668030" lon="-3.182747"><ele>198</ele><time>2020-08-11T14:30:32Z</time><name>PT1980</name></trkpt>
<trkpt lat="54.668040" lon="-3.182749"><ele>197</ele><time>2020-08-11T14:30:33Z</time><name>PT1981</name></trkpt>
<trkpt lat="54.668053" lon="-3.182763"><ele>197</ele><time>2020-08-11T14:30:34Z</time><name>PT1982</name></trkpt>
<trkpt lat="54.668068" lon="-3.182779"><ele>197</ele><time>2020-08-11T14:30:35Z</time><name>PT1983</name></trkpt>
<trkpt lat="54.668077" lon="-3.182789"><ele>197</ele><time>2020-08-11T14:30:36Z</time><name>PT1984</name></trkpt>
<trkpt lat="54.668079" lon="-3.182789"><ele>196</ele><time>2020-08-11T14:30:37Z</time><name>PT1985</name></trkpt>
<trkpt lat="54.668084" lon="-3.182791"><ele>196</ele><time>2020-08-11T14:30:38Z</time><name>PT1986</name></trkpt>
<trkpt lat="54.668095" lon="-3.182795"><ele>196</ele><time>2020-08-11T14:30:39Z</time><name>PT1987</name></trkpt>
<trkpt lat="54.668109" lon="-3.182806"><ele>196</ele><time>2020-08-11T14:30:40Z</time><name>PT1988</name></trkpt>
<trkpt lat="54.668121" lon="-3.182813"><ele>196</ele><time>2020-08-11T14:30:41Z</time><name>PT1989</name></trkpt>
<trkpt lat="54.668126" lon="-3.182817"><ele>196</ele><time>2020-08-11T14:30:42Z</time><name>PT1990</name></trkpt>
<trkpt lat="54.668134" lon="-3.182826"><ele>196</ele><time>2020-08-11T14:30:43Z</time><name>PT1991</name></trkpt>
<trkpt lat="54.668148" lon="-3.182838"><ele>196</ele><time>2020-08-11T14:30:44Z</time><name>PT1992</name></trkpt>
<trkpt lat="54.668160" lon="-3.182846"><ele>196</ele><time>2020-08-11T14:30:45Z</time><name>PT1993</name></trkpt>
<trkpt lat="54.668167" lon="-3.182849"><ele>196</ele><time>2020-08-11T14:30:46Z</time><name>PT1994</name></trkpt>
<trkpt lat="54.668170" lon="-3.182853"><ele>196</ele><time>2020-08-11T14:30:47Z</time><name>PT1995</name></trkpt>
<trkpt lat="54.668180" lon="-3.182856"><ele>195</ele><time>2020-08-11T14:30:48Z</time><name>PT1996</name></trkpt>
<trkpt lat="54.668194" lon="-3.182872"><ele>195</ele><time>2020-08-11T14:30:49Z</time><name>PT1997</name></trkpt>
<trkpt lat="54.668209" lon="-3.182883"><ele>195</ele><time>2020-08-11T14:30:50Z</time><name>PT1998</name></trkpt>
<trkpt lat="54.668220" lon="-3.182889"><ele>195</ele><time>2020-08-11T14:30:51Z</time><name>PT1999</name></trkpt>
<trkpt lat="54.668225" lon="-3.182892"><ele>195</ele><time>2020-08-11T14:30:52Z</time><name>PT2000</name></trkpt>
<trkpt lat="54.668233" lon="-3.182897"><ele>195</ele><time>2020-08-11T14:30:53Z</time><name>PT2001</name></trkpt>
<trkpt lat="54.668250" lon="-3.182902"><ele>195</ele><time>2020-08-11T14:30:54Z</time><name>PT2002</name></trkpt>
<trkpt lat="54.668267" lon="-3.182908"><ele>195</ele><time>2020-08-11T14:30:56Z</time><name>PT2003</name></trkpt>
<trkpt lat="54.668279" lon="-3.182914"><ele>194</ele><time>2020-08-11T14:30:56Z</time><name>PT2004</name></trkpt>
<trkpt lat="54.668283" lon="-3.182916"><ele>194</ele><time>2020-08-11T14:30:57Z</time><name>PT2005</name></trkpt>
<trkpt lat="54.668286" lon="-3.182920"><ele>193</ele><time>2020-08-11T14:30:58Z</time><name>PT2006</name></trkpt>
<trkpt lat="54.668294" lon="-3.182926"><ele>193</ele><time>2020-08-11T14:30:59Z</time><name>PT2007</name></trkpt>
<trkpt lat="54.668306" lon="-3.182939"><ele>193</ele><time>2020-08-11T14:31:00Z</time><name>PT2008</name></trkpt>
<trkpt lat="54.668318" lon="-3.182950"><ele>193</ele><time>2020-08-11T14:31:01Z</time><name>PT2009</name></trkpt>
<trkpt lat="54.668324" lon="-3.182955"><ele>193</ele><time>2020-08-11T14:31:02Z</time><name>PT2010</name></trkpt>
<trkpt lat="54.668329" lon="-3.182954"><ele>193</ele><time>2020-08-11T14:31:03Z</time><name>PT2011</name></trkpt>
<trkpt lat="54.668336" lon="-3.182957"><ele>193</ele><time>2020-08-11T14:31:04Z</time><name>PT2012</name></trkpt>
<trkpt lat="54.668348" lon="-3.182965"><ele>192</ele><time>2020-08-11T14:31:05Z</time><name>PT2013</name></trkpt>
<trkpt lat="54.668360" lon="-3.182976"><ele>192</ele><time>2020-08-11T14:31:06Z</time><name>PT2014</name></trkpt>
<trkpt lat="54.668370" lon="-3.182983"><ele>192</ele><time>2020-08-11T14:31:07Z</time><name>PT2015</name></trkpt>
<trkpt lat="54.668380" lon="-3.182989"><ele>192</ele><time>2020-08-11T14:31:08Z</time><name>PT2016</name></trkpt>
<trkpt lat="54.668382" lon="-3.183001"><ele>191</ele><time>2020-08-11T14:31:09Z</time><name>PT2017</name></trkpt>
<trkpt lat="54.668394" lon="-3.183008"><ele>191</ele><time>2020-08-11T14:31:10Z</time><name>PT2018</name></trkpt>
<trkpt lat="54.668410" lon="-3.183015"><ele>192</ele><time>2020-08-11T14:31:11Z</time><name>PT2019</name></trkpt>
<trkpt lat="54.668421" lon="-3.183022"><ele>191</ele><time>2020-08-11T14:31:12Z</time><name>PT2020</name></trkpt>
<trkpt lat="54.668425" lon="-3.183026"><ele>192</ele><time>2020-08-11T14:31:13Z</time><name>PT2021</name></trkpt>
<trkpt lat="54.668428" lon="-3.183030"><ele>191</ele><time>2020-08-11T14:31:14Z</time><name>PT2022</name></trkpt>
<trkpt lat="54.668438" lon="-3.183038"><ele>191</ele><time>2020-08-11T14:31:15Z</time><name>PT2023</name></trkpt>
<trkpt lat="54.668454" lon="-3.183049"><ele>191</ele><time>2020-08-11T14:31:16Z</time><name>PT2024</name></trkpt>
<trkpt lat="54.668470" lon="-3.183060"><ele>191</ele><time>2020-08-11T14:31:17Z</time><name>PT2025</name></trkpt>
<trkpt lat="54.668478" lon="-3.183064"><ele>191</ele><time>2020-08-11T14:31:18Z</time><name>PT2026</name></trkpt>
<trkpt lat="54.668482" lon="-3.183064"><ele>191</ele><time>2020-08-11T14:31:19Z</time><name>PT2027</name></trkpt>
<trkpt lat="54.668486" lon="-3.183064"><ele>191</ele><time>2020-08-11T14:31:20Z</time><name>PT2028</name></trkpt>
<trkpt lat="54.668498" lon="-3.183066"><ele>191</ele><time>2020-08-11T14:31:21Z</time><name>PT2029</name></trkpt>
<trkpt lat="54.668514" lon="-3.183079"><ele>190</ele><time>2020-08-11T14:31:22Z</time><name>PT2030</name></trkpt>
<trkpt lat="54.668525" lon="-3.183088"><ele>190</ele><time>2020-08-11T14:31:23Z</time><name>PT2031</name></trkpt>
<trkpt lat="54.668531" lon="-3.183090"><ele>190</ele><time>2020-08-11T14:31:24Z</time><name>PT2032</name></trkpt>
<trkpt lat="54.668536" lon="-3.183092"><ele>190</ele><time>2020-08-11T14:31:25Z</time><name>PT2033</name></trkpt>
<trkpt lat="54.668542" lon="-3.183098"><ele>189</ele><time>2020-08-11T14:31:26Z</time><name>PT2034</name></trkpt>
<trkpt lat="54.668557" lon="-3.183115"><ele>190</ele><time>2020-08-11T14:31:27Z</time><name>PT2035</name></trkpt>
<trkpt lat="54.668572" lon="-3.183133"><ele>190</ele><time>2020-08-11T14:31:28Z</time><name>PT2036</name></trkpt>
<trkpt lat="54.668583" lon="-3.183141"><ele>189</ele><time>2020-08-11T14:31:29Z</time><name>PT2037</name></trkpt>
<trkpt lat="54.668591" lon="-3.183144"><ele>189</ele><time>2020-08-11T14:31:30Z</time><name>PT2038</name></trkpt>
<trkpt lat="54.668596" lon="-3.183147"><ele>189</ele><time>2020-08-11T14:31:31Z</time><name>PT2039</name></trkpt>
<trkpt lat="54.668602" lon="-3.183145"><ele>189</ele><time>2020-08-11T14:31:32Z</time><name>PT2040</name></trkpt>
<trkpt lat="54.668617" lon="-3.183146"><ele>189</ele><time>2020-08-11T14:31:33Z</time><name>PT2041</name></trkpt>
<trkpt lat="54.668633" lon="-3.183158"><ele>189</ele><time>2020-08-11T14:31:34Z</time><name>PT2042</name></trkpt>
<trkpt lat="54.668643" lon="-3.183164"><ele>188</ele><time>2020-08-11T14:31:35Z</time><name>PT2043</name></trkpt>
<trkpt lat="54.668649" lon="-3.183168"><ele>188</ele><time>2020-08-11T14:31:36Z</time><name>PT2044</name></trkpt>
<trkpt lat="54.668652" lon="-3.183170"><ele>188</ele><time>2020-08-11T14:31:37Z</time><name>PT2045</name></trkpt>
<trkpt lat="54.668663" lon="-3.183173"><ele>188</ele><time>2020-08-11T14:31:38Z</time><name>PT2046</name></trkpt>
<trkpt lat="54.668679" lon="-3.183181"><ele>188</ele><time>2020-08-11T14:31:39Z</time><name>PT2047</name></trkpt>
<trkpt lat="54.668692" lon="-3.183189"><ele>187</ele><time>2020-08-11T14:31:40Z</time><name>PT2048</name></trkpt>
<trkpt lat="54.668697" lon="-3.183194"><ele>187</ele><time>2020-08-11T14:31:41Z</time><name>PT2049</name></trkpt>
<trkpt lat="54.668700" lon="-3.183197"><ele>187</ele><time>2020-08-11T14:31:42Z</time><name>PT2050</name></trkpt>
<trkpt lat="54.668709" lon="-3.183198"><ele>187</ele><time>2020-08-11T14:31:43Z</time><name>PT2051</name></trkpt>
<trkpt lat="54.668725" lon="-3.183221"><ele>187</ele><time>2020-08-11T14:31:44Z</time><name>PT2052</name></trkpt>
<trkpt lat="54.668741" lon="-3.183246"><ele>188</ele><time>2020-08-11T14:31:45Z</time><name>PT2053</name></trkpt>
<trkpt lat="54.668750" lon="-3.183257"><ele>188</ele><time>2020-08-11T14:31:47Z</time><name>PT2054</name></trkpt>
<trkpt lat="54.668753" lon="-3.183264"><ele>188</ele><time>2020-08-11T14:31:47Z</time><name>PT2055</name></trkpt>
<trkpt lat="54.668792" lon="-3.183275"><ele>187</ele><time>2020-08-11T14:31:51Z</time><name>PT2056</name></trkpt>
<trkpt lat="54.668821" lon="-3.183271"><ele>185</ele><time>2020-08-11T14:31:54Z</time><name>PT2057</name></trkpt>
<trkpt lat="54.668862" lon="-3.183307"><ele>185</ele><time>2020-08-11T14:31:58Z</time><name>PT2058</name></trkpt>
<trkpt lat="54.668899" lon="-3.183334"><ele>182</ele><time>2020-08-11T14:32:02Z</time><name>PT2059</name></trkpt>
<trkpt lat="54.668935" lon="-3.183354"><ele>181</ele><time>2020-08-11T14:32:06Z</time><name>PT2060</name></trkpt>
<trkpt lat="54.668966" lon="-3.183380"><ele>181</ele><time>2020-08-11T14:32:09Z</time><name>PT2061</name></trkpt>
<trkpt lat="54.668988" lon="-3.183391"><ele>182</ele><time>2020-08-11T14:32:12Z</time><name>PT2062</name></trkpt>
<trkpt lat="54.669021" lon="-3.183406"><ele>181</ele><time>2020-08-11T14:32:16Z</time><name>PT2063</name></trkpt>
<trkpt lat="54.669050" lon="-3.183420"><ele>180</ele><time>2020-08-11T14:32:20Z</time><name>PT2064</name></trkpt>
<trkpt lat="54.669075" lon="-3.183444"><ele>180</ele><time>2020-08-11T14:32:23Z</time><name>PT2065</name></trkpt>
<trkpt lat="54.669118" lon="-3.183436"><ele>179</ele><time>2020-08-11T14:32:27Z</time><name>PT2066</name></trkpt>
<trkpt lat="54.669156" lon="-3.183431"><ele>180</ele><time>2020-08-11T14:32:30Z</time><name>PT2067</name></trkpt>
<trkpt lat="54.669172" lon="-3.183462"><ele>180</ele><time>2020-08-11T14:32:33Z</time><name>PT2068</name></trkpt>
<trkpt lat="54.669163" lon="-3.183525"><ele>179</ele><time>2020-08-11T14:32:36Z</time><name>PT2069</name></trkpt>
<trkpt lat="54.669146" lon="-3.183586"><ele>177</ele><time>2020-08-11T14:32:40Z</time><name>PT2070</name></trkpt>
<trkpt lat="54.669122" lon="-3.183639"><ele>176</ele><time>2020-08-11T14:32:43Z</time><name>PT2071</name></trkpt>
<trkpt lat="54.669105" lon="-3.183676"><ele>175</ele><time>2020-08-11T14:32:46Z</time><name>PT2072</name></trkpt>
<trkpt lat="54.669086" lon="-3.183715"><ele>175</ele><time>2020-08-11T14:32:49Z</time><name>PT2073</name></trkpt>
<trkpt lat="54.669068" lon="-3.183759"><ele>174</ele><time>2020-08-11T14:32:53Z</time><name>PT2074</name></trkpt>
<trkpt lat="54.669037" lon="-3.183843"><ele>171</ele><time>2020-08-11T14:32:56Z</time><name>PT2075</name></trkpt>
<trkpt lat="54.669010" lon="-3.183892"><ele>169</ele><time>2020-08-11T14:33:00Z</time><name>PT2076</name></trkpt>
<trkpt lat="54.668990" lon="-3.183966"><ele>169</ele><time>2020-08-11T14:33:04Z</time><name>PT2077</name></trkpt>
<trkpt lat="54.668976" lon="-3.184026"><ele>171</ele><time>2020-08-11T14:33:07Z</time><name>PT2078</name></trkpt>
<trkpt lat="54.668964" lon="-3.184100"><ele>170</ele><time>2020-08-11T14:33:11Z</time><name>PT2079</name></trkpt>
<trkpt lat="54.668951" lon="-3.184161"><ele>171</ele><time>2020-08-11T14:33:14Z</time><name>PT2080</name></trkpt>
<trkpt lat="54.668939" lon="-3.184220"><ele>169</ele><time>2020-08-11T14:33:18Z</time><name>PT2081</name></trkpt>
<trkpt lat="54.668925" lon="-3.184277"><ele>169</ele><time>2020-08-11T14:33:21Z</time><name>PT2082</name></trkpt>
<trkpt lat="54.668918" lon="-3.184346"><ele>169</ele><time>2020-08-11T14:33:25Z</time><name>PT2083</name></trkpt>
<trkpt lat="54.668912" lon="-3.184393"><ele>168</ele><time>2020-08-11T14:33:28Z</time><name>PT2084</name></trkpt>
<trkpt lat="54.668900" lon="-3.184471"><ele>168</ele><time>2020-08-11T14:33:32Z</time><name>PT2085</name></trkpt>
<trkpt lat="54.668886" lon="-3.184547"><ele>167</ele><time>2020-08-11T14:33:36Z</time><name>PT2086</name></trkpt>
<trkpt lat="54.668875" lon="-3.184593"><ele>166</ele><time>2020-08-11T14:33:39Z</time><name>PT2087</name></trkpt>
<trkpt lat="54.668855" lon="-3.184676"><ele>167</ele><time>2020-08-11T14:33:43Z</time><name>PT2088</name></trkpt>
<trkpt lat="54.668841" lon="-3.184754"><ele>168</ele><time>2020-08-11T14:33:47Z</time><name>PT2089</name></trkpt>
<trkpt lat="54.668826" lon="-3.184817"><ele>168</ele><time>2020-08-11T14:33:51Z</time><name>PT2090</name></trkpt>
<trkpt lat="54.668811" lon="-3.184882"><ele>167</ele><time>2020-08-11T14:33:55Z</time><name>PT2091</name></trkpt>
<trkpt lat="54.668789" lon="-3.184949"><ele>166</ele><time>2020-08-11T14:33:59Z</time><name>PT2092</name></trkpt>
<trkpt lat="54.668775" lon="-3.184994"><ele>165</ele><time>2020-08-11T14:34:02Z</time><name>PT2093</name></trkpt>
<trkpt lat="54.668739" lon="-3.185053"><ele>163</ele><time>2020-08-11T14:34:06Z</time><name>PT2094</name></trkpt>
<trkpt lat="54.668728" lon="-3.185099"><ele>164</ele><time>2020-08-11T14:34:09Z</time><name>PT2095</name></trkpt>
<trkpt lat="54.668689" lon="-3.185152"><ele>164</ele><time>2020-08-11T14:34:13Z</time><name>PT2096</name></trkpt>
<trkpt lat="54.668665" lon="-3.185191"><ele>164</ele><time>2020-08-11T14:34:16Z</time><name>PT2097</name></trkpt>
<trkpt lat="54.668632" lon="-3.185253"><ele>164</ele><time>2020-08-11T14:34:20Z</time><name>PT2098</name></trkpt>
<trkpt lat="54.668614" lon="-3.185293"><ele>163</ele><time>2020-08-11T14:34:23Z</time><name>PT2099</name></trkpt>
<trkpt lat="54.668594" lon="-3.185353"><ele>163</ele><time>2020-08-11T14:34:27Z</time><name>PT2100</name></trkpt>
<trkpt lat="54.668576" lon="-3.185410"><ele>163</ele><time>2020-08-11T14:34:30Z</time><name>PT2101</name></trkpt>
<trkpt lat="54.668551" lon="-3.185467"><ele>164</ele><time>2020-08-11T14:34:33Z</time><name>PT2102</name></trkpt>
<trkpt lat="54.668515" lon="-3.185540"><ele>162</ele><time>2020-08-11T14:34:37Z</time><name>PT2103</name></trkpt>
<trkpt lat="54.668497" lon="-3.185578"><ele>162</ele><time>2020-08-11T14:34:40Z</time><name>PT2104</name></trkpt>
<trkpt lat="54.668490" lon="-3.185622"><ele>160</ele><time>2020-08-11T14:34:44Z</time><name>PT2105</name></trkpt>
<trkpt lat="54.668490" lon="-3.185635"><ele>158</ele><time>2020-08-11T14:34:47Z</time><name>PT2106</name></trkpt>
<trkpt lat="54.668471" lon="-3.185668"><ele>157</ele><time>2020-08-11T14:34:51Z</time><name>PT2107</name></trkpt>
<trkpt lat="54.668450" lon="-3.185740"><ele>156</ele><time>2020-08-11T14:34:54Z</time><name>PT2108</name></trkpt>
<trkpt lat="54.668423" lon="-3.185813"><ele>157</ele><time>2020-08-11T14:34:58Z</time><name>PT2109</name></trkpt>
<trkpt lat="54.668392" lon="-3.185855"><ele>157</ele><time>2020-08-11T14:35:01Z</time><name>PT2110</name></trkpt>
<trkpt lat="54.668352" lon="-3.185925"><ele>157</ele><time>2020-08-11T14:35:05Z</time><name>PT2111</name></trkpt>
<trkpt lat="54.668321" lon="-3.185972"><ele>156</ele><time>2020-08-11T14:35:08Z</time><name>PT2112</name></trkpt>
<trkpt lat="54.668288" lon="-3.186030"><ele>156</ele><time>2020-08-11T14:35:11Z</time><name>PT2113</name></trkpt>
<trkpt lat="54.668260" lon="-3.186081"><ele>157</ele><time>2020-08-11T14:35:15Z</time><name>PT2114</name></trkpt>
<trkpt lat="54.668225" lon="-3.186126"><ele>157</ele><time>2020-08-11T14:35:19Z</time><name>PT2115</name></trkpt>
<trkpt lat="54.668183" lon="-3.186166"><ele>155</ele><time>2020-08-11T14:35:23Z</time><name>PT2116</name></trkpt>
<trkpt lat="54.668164" lon="-3.186197"><ele>153</ele><time>2020-08-11T14:35:27Z</time><name>PT2117</name></trkpt>
<trkpt lat="54.668138" lon="-3.186227"><ele>154</ele><time>2020-08-11T14:35:30Z</time><name>PT2118</name></trkpt>
<trkpt lat="54.668100" lon="-3.186297"><ele>154</ele><time>2020-08-11T14:35:34Z</time><name>PT2119</name></trkpt>
<trkpt lat="54.668071" lon="-3.186328"><ele>154</ele><time>2020-08-11T14:35:37Z</time><name>PT2120</name></trkpt>
<trkpt lat="54.668030" lon="-3.186386"><ele>154</ele><time>2020-08-11T14:35:40Z</time><name>PT2121</name></trkpt>
<trkpt lat="54.667988" lon="-3.186442"><ele>154</ele><time>2020-08-11T14:35:44Z</time><name>PT2122</name></trkpt>
<trkpt lat="54.667954" lon="-3.186482"><ele>154</ele><time>2020-08-11T14:35:48Z</time><name>PT2123</name></trkpt>
<trkpt lat="54.667920" lon="-3.186525"><ele>154</ele><time>2020-08-11T14:35:52Z</time><name>PT2124</name></trkpt>
<trkpt lat="54.667873" lon="-3.186558"><ele>152</ele><time>2020-08-11T14:35:55Z</time><name>PT2125</name></trkpt>
<trkpt lat="54.667848" lon="-3.186575"><ele>151</ele><time>2020-08-11T14:35:59Z</time><name>PT2126</name></trkpt>
<trkpt lat="54.667810" lon="-3.186610"><ele>151</ele><time>2020-08-11T14:36:02Z</time><name>PT2127</name></trkpt>
<trkpt lat="54.667780" lon="-3.186641"><ele>151</ele><time>2020-08-11T14:36:05Z</time><name>PT2128</name></trkpt>
<trkpt lat="54.667721" lon="-3.186678"><ele>151</ele><time>2020-08-11T14:36:09Z</time><name>PT2129</name></trkpt>
<trkpt lat="54.667673" lon="-3.186720"><ele>151</ele><time>2020-08-11T14:36:13Z</time><name>PT2130</name></trkpt>
<trkpt lat="54.667648" lon="-3.186753"><ele>151</ele><time>2020-08-11T14:36:16Z</time><name>PT2131</name></trkpt>
<trkpt lat="54.667608" lon="-3.186772"><ele>151</ele><time>2020-08-11T14:36:19Z</time><name>PT2132</name></trkpt>
<trkpt lat="54.667569" lon="-3.186791"><ele>150</ele><time>2020-08-11T14:36:22Z</time><name>PT2133</name></trkpt>
<trkpt lat="54.667515" lon="-3.186833"><ele>150</ele><time>2020-08-11T14:36:26Z</time><name>PT2134</name></trkpt>
<trkpt lat="54.667476" lon="-3.186840"><ele>149</ele><time>2020-08-11T14:36:29Z</time><name>PT2135</name></trkpt>
<trkpt lat="54.667431" lon="-3.186857"><ele>149</ele><time>2020-08-11T14:36:32Z</time><name>PT2136</name></trkpt>
<trkpt lat="54.667401" lon="-3.186881"><ele>149</ele><time>2020-08-11T14:36:35Z</time><name>PT2137</name></trkpt>
<trkpt lat="54.667361" lon="-3.186888"><ele>148</ele><time>2020-08-11T14:36:38Z</time><name>PT2138</name></trkpt>
<trkpt lat="54.667316" lon="-3.186885"><ele>148</ele><time>2020-08-11T14:36:42Z</time><name>PT2139</name></trkpt>
<trkpt lat="54.667276" lon="-3.186913"><ele>149</ele><time>2020-08-11T14:36:45Z</time><name>PT2140</name></trkpt>
<trkpt lat="54.667234" lon="-3.186928"><ele>150</ele><time>2020-08-11T14:36:48Z</time><name>PT2141</name></trkpt>
<trkpt lat="54.667177" lon="-3.186952"><ele>148</ele><time>2020-08-11T14:36:52Z</time><name>PT2142</name></trkpt>
<trkpt lat="54.667157" lon="-3.186960"><ele>146</ele><time>2020-08-11T14:36:56Z</time><name>PT2143</name></trkpt>
<trkpt lat="54.667118" lon="-3.186974"><ele>148</ele><time>2020-08-11T14:37:00Z</time><name>PT2144</name></trkpt>
<trkpt lat="54.667062" lon="-3.186993"><ele>146</ele><time>2020-08-11T14:37:04Z</time><name>PT2145</name></trkpt>
<trkpt lat="54.667026" lon="-3.186988"><ele>145</ele><time>2020-08-11T14:37:07Z</time><name>PT2146</name></trkpt>
<trkpt lat="54.666993" lon="-3.187015"><ele>146</ele><time>2020-08-11T14:37:10Z</time><name>PT2147</name></trkpt>
<trkpt lat="54.666955" lon="-3.187041"><ele>146</ele><time>2020-08-11T14:37:13Z</time><name>PT2148</name></trkpt>
<trkpt lat="54.666912" lon="-3.187082"><ele>146</ele><time>2020-08-11T14:37:17Z</time><name>PT2149</name></trkpt>
<trkpt lat="54.666862" lon="-3.187101"><ele>144</ele><time>2020-08-11T14:37:21Z</time><name>PT2150</name></trkpt>
<trkpt lat="54.666826" lon="-3.187124"><ele>143</ele><time>2020-08-11T14:37:24Z</time><name>PT2151</name></trkpt>
<trkpt lat="54.666784" lon="-3.187163"><ele>143</ele><time>2020-08-11T14:37:28Z</time><name>PT2152</name></trkpt>
<trkpt lat="54.666756" lon="-3.187182"><ele>142</ele><time>2020-08-11T14:37:31Z</time><name>PT2153</name></trkpt>
<trkpt lat="54.666719" lon="-3.187199"><ele>142</ele><time>2020-08-11T14:37:34Z</time><name>PT2154</name></trkpt>
<trkpt lat="54.666686" lon="-3.187226"><ele>141</ele><time>2020-08-11T14:37:37Z</time><name>PT2155</name></trkpt>
<trkpt lat="54.666643" lon="-3.187254"><ele>140</ele><time>2020-08-11T14:37:41Z</time><name>PT2156</name></trkpt>
<trkpt lat="54.666588" lon="-3.187272"><ele>138</ele><time>2020-08-11T14:37:45Z</time><name>PT2157</name></trkpt>
<trkpt lat="54.666560" lon="-3.187291"><ele>137</ele><time>2020-08-11T14:37:48Z</time><name>PT2158</name></trkpt>
<trkpt lat="54.666512" lon="-3.187328"><ele>138</ele><time>2020-08-11T14:37:52Z</time><name>PT2159</name></trkpt>
<trkpt lat="54.666484" lon="-3.187332"><ele>136</ele><time>2020-08-11T14:37:55Z</time><name>PT2160</name></trkpt>
<trkpt lat="54.666435" lon="-3.187338"><ele>135</ele><time>2020-08-11T14:37:59Z</time><name>PT2161</name></trkpt>
<trkpt lat="54.666400" lon="-3.187355"><ele>133</ele><time>2020-08-11T14:38:02Z</time><name>PT2162</name></trkpt>
<trkpt lat="54.666349" lon="-3.187400"><ele>136</ele><time>2020-08-11T14:38:06Z</time><name>PT2163</name></trkpt>
<trkpt lat="54.666316" lon="-3.187417"><ele>135</ele><time>2020-08-11T14:38:09Z</time><name>PT2164</name></trkpt>
<trkpt lat="54.666280" lon="-3.187457"><ele>138</ele><time>2020-08-11T14:38:12Z</time><name>PT2165</name></trkpt>
<trkpt lat="54.666255" lon="-3.187481"><ele>140</ele><time>2020-08-11T14:38:15Z</time><name>PT2166</name></trkpt>
<trkpt lat="54.666227" lon="-3.187515"><ele>141</ele><time>2020-08-11T14:38:19Z</time><name>PT2167</name></trkpt>
<trkpt lat="54.666165" lon="-3.187529"><ele>141</ele><time>2020-08-11T14:38:23Z</time><name>PT2168</name></trkpt>
<trkpt lat="54.666117" lon="-3.187567"><ele>141</ele><time>2020-08-11T14:38:27Z</time><name>PT2169</name></trkpt>
<trkpt lat="54.666083" lon="-3.187586"><ele>139</ele><time>2020-08-11T14:38:31Z</time><name>PT2170</name></trkpt>
<trkpt lat="54.666045" lon="-3.187609"><ele>139</ele><time>2020-08-11T14:38:34Z</time><name>PT2171</name></trkpt>
<trkpt lat="54.665992" lon="-3.187632"><ele>136</ele><time>2020-08-11T14:38:38Z</time><name>PT2172</name></trkpt>
<trkpt lat="54.665930" lon="-3.187653"><ele>138</ele><time>2020-08-11T14:38:42Z</time><name>PT2173</name></trkpt>
<trkpt lat="54.665892" lon="-3.187665"><ele>138</ele><time>2020-08-11T14:38:45Z</time><name>PT2174</name></trkpt>
<trkpt lat="54.665850" lon="-3.187666"><ele>136</ele><time>2020-08-11T14:38:48Z</time><name>PT2175</name></trkpt>
<trkpt lat="54.665783" lon="-3.187697"><ele>135</ele><time>2020-08-11T14:38:52Z</time><name>PT2176</name></trkpt>
<trkpt lat="54.665758" lon="-3.187690"><ele>134</ele><time>2020-08-11T14:38:55Z</time><name>PT2177</name></trkpt>
<trkpt lat="54.665724" lon="-3.187693"><ele>133</ele><time>2020-08-11T14:38:58Z</time><name>PT2178</name></trkpt>
<trkpt lat="54.665691" lon="-3.187707"><ele>133</ele><time>2020-08-11T14:39:01Z</time><name>PT2179</name></trkpt>
<trkpt lat="54.665641" lon="-3.187709"><ele>129</ele><time>2020-08-11T14:39:05Z</time><name>PT2180</name></trkpt>
<trkpt lat="54.665611" lon="-3.187729"><ele>128</ele><time>2020-08-11T14:39:08Z</time><name>PT2181</name></trkpt>
<trkpt lat="54.665576" lon="-3.187726"><ele>126</ele><time>2020-08-11T14:39:11Z</time><name>PT2182</name></trkpt>
<trkpt lat="54.665532" lon="-3.187743"><ele>125</ele><time>2020-08-11T14:39:14Z</time><name>PT2183</name></trkpt>
<trkpt lat="54.665486" lon="-3.187760"><ele>125</ele><time>2020-08-11T14:39:18Z</time><name>PT2184</name></trkpt>
<trkpt lat="54.665428" lon="-3.187799"><ele>126</ele><time>2020-08-11T14:39:22Z</time><name>PT2185</name></trkpt>
<trkpt lat="54.665385" lon="-3.187821"><ele>126</ele><time>2020-08-11T14:39:25Z</time><name>PT2186</name></trkpt>
<trkpt lat="54.665343" lon="-3.187835"><ele>125</ele><time>2020-08-11T14:39:28Z</time><name>PT2187</name></trkpt>
<trkpt lat="54.665313" lon="-3.187858"><ele>126</ele><time>2020-08-11T14:39:31Z</time><name>PT2188</name></trkpt>
<trkpt lat="54.665262" lon="-3.187871"><ele>127</ele><time>2020-08-11T14:39:35Z</time><name>PT2189</name></trkpt>
<trkpt lat="54.665207" lon="-3.187899"><ele>128</ele><time>2020-08-11T14:39:39Z</time><name>PT2190</name></trkpt>
<trkpt lat="54.665166" lon="-3.187915"><ele>128</ele><time>2020-08-11T14:39:43Z</time><name>PT2191</name></trkpt>
<trkpt lat="54.665123" lon="-3.187935"><ele>128</ele><time>2020-08-11T14:39:47Z</time><name>PT2192</name></trkpt>
<trkpt lat="54.665080" lon="-3.187941"><ele>127</ele><time>2020-08-11T14:39:51Z</time><name>PT2193</name></trkpt>
<trkpt lat="54.665076" lon="-3.187941"><ele>127</ele><time>2020-08-11T14:39:54Z</time><name>PT2194</name></trkpt>
<trkpt lat="54.665075" lon="-3.187942"><ele>127</ele><time>2020-08-11T14:39:58Z</time><name>PT2195</name></trkpt>
<trkpt lat="54.665072" lon="-3.187953"><ele>128</ele><time>2020-08-11T14:40:06Z</time><name>PT2196</name></trkpt>
<trkpt lat="54.665071" lon="-3.187958"><ele>128</ele><time>2020-08-11T14:40:13Z</time><name>PT2197</name></trkpt>
<trkpt lat="54.665069" lon="-3.187961"><ele>127</ele><time>2020-08-11T14:40:16Z</time><name>PT2198</name></trkpt>
<trkpt lat="54.665073" lon="-3.187939"><ele>127</ele><time>2020-08-11T14:40:20Z</time><name>PT2199</name></trkpt>
<trkpt lat="54.665072" lon="-3.187924"><ele>128</ele><time>2020-08-11T14:40:23Z</time><name>PT2200</name></trkpt>
<trkpt lat="54.665074" lon="-3.187945"><ele>127</ele><time>2020-08-11T14:40:26Z</time><name>PT2201</name></trkpt>
<trkpt lat="54.665077" lon="-3.187952"><ele>127</ele><time>2020-08-11T14:40:27Z</time><name>PT2202</name></trkpt></trkseg></trk></gpx>